GFSGBSN_sfc_30mbdewp_000.txt.gz
Dewpoint
52 55 56 55 56 57 56 56 57 55 53 52 51 51 51 51 51 51 50 51 51 52 53 54 55 56 52 46 43 50 48 47 48 51 50 48 45 40 41 45 43 41 41 39 38 38 37
51 54 56 55 55 57 57 55 56 56 55 53 52 51 51 51 51 52 52 51 51 52 52 53 54 55 49 39 41 41 46 44 43 45 49 48 45 42 38 41 43 43 42 42 40 37 37
53 52 54 55 54 56 56 56 55 55 55 55 53 51 51 52 51 52 53 53 51 51 51 52 54 51 45 40 40 40 42 42 41 40 41 46 46 46 40 38 43 44 44 41 41 38 36
54 53 52 55 55 56 56 56 56 56 54 55 53 52 52 53 53 53 53 53 53 52 52 53 53 48 41 43 44 40 39 39 39 38 39 41 42 44 43 43 44 43 43 41 41 39 38
53 53 52 54 55 56 56 57 56 56 54 54 53 53 52 53 53 54 54 53 53 52 52 52 49 46 38 43 41 41 40 38 37 37 40 39 39 42 43 39 40 42 38 40 41 41 37
56 53 54 54 56 55 55 56 56 56 56 55 55 55 53 52 53 53 54 53 53 53 51 48 46 43 42 38 40 40 40 39 37 35 35 39 38 38 39 38 31 36 40 38 40 39 38
54 56 54 55 55 56 55 55 55 56 56 56 56 55 53 53 53 53 52 48 45 44 46 38 39 37 37 39 40 38 39 38 38 36 33 35 35 33 35 37 38 37 36 39 38 40 37
51 53 55 55 55 55 55 55 55 55 56 56 56 55 53 53 53 52 50 44 44 45 40 44 40 40 39 40 37 38 39 36 36 34 34 32 32 34 34 34 37 36 37 39 38 38 37
46 50 55 56 54 54 55 55 54 54 55 56 55 54 53 52 52 51 48 45 49 46 39 40 43 40 39 40 37 36 38 36 34 33 32 30 31 34 32 30 32 34 37 40 38 37 37
45 46 51 52 55 54 53 54 54 54 54 55 54 53 52 52 47 46 47 49 50 48 33 34 37 41 41 42 38 38 38 36 34 31 31 31 32 29 31 30 30 31 37 39 41 38 33
44 46 46 50 52 53 54 52 53 53 54 55 53 53 52 49 48 44 48 50 49 45 22 35 38 41 40 39 37 36 39 36 33 31 29 31 28 27 27 31 31 31 36 39 41 40 36
44 46 46 49 49 51 54 52 51 53 54 55 53 53 53 50 48 50 50 48 44 31 21 32 38 37 37 38 36 38 36 38 36 33 30 29 32 31 30 32 36 34 35 38 43 39 34
43 44 46 47 49 50 50 53 51 53 54 55 54 53 51 47 43 50 49 44 30 25 33 33 33 35 33 35 36 37 33 33 30 29 29 34 34 34 37 35 35 37 35 31 31 30 28
42 44 45 47 48 48 49 53 51 52 54 55 55 53 50 45 50 49 45 36 25 25 29 36 35 35 33 35 35 35 32 30 32 32 30 25 22 33 35 35 34 37 36 32 27 28 25
40 43 45 48 48 48 49 54 52 52 54 55 55 52 49 48 50 47 40 29 28 32 35 35 35 31 31 35 34 33 30 32 30 31 29 30 27 33 33 34 40 37 33 35 36 24 25
40 42 45 46 47 46 48 53 53 53 55 55 50 48 47 49 51 46 37 31 33 36 38 37 30 30 28 30 28 27 26 27 29 32 33 32 29 33 37 40 40 40 39 34 37 22 23
40 41 43 44 48 46 48 48 53 56 55 53 47 43 46 51 50 42 32 33 34 37 39 36 32 28 26 27 26 22 22 25 29 30 34 35 32 34 37 38 37 40 38 40 39 28 23
38 41 42 45 48 48 48 48 53 55 55 50 46 39 48 51 39 39 35 35 39 38 40 39 37 32 23 26 25 23 26 28 28 27 29 37 32 31 33 39 41 41 39 39 28 27 26
35 39 42 44 47 48 48 50 52 54 53 49 43 44 50 47 34 35 37 37 38 39 40 39 35 28 25 22 20 21 27 27 25 34 33 37 32 30 31 38 41 40 40 38 36 31 26
33 38 41 44 45 47 48 48 55 55 52 48 44 39 44 45 42 39 36 37 35 39 38 38 36 32 27 23 22 31 25 28 29 31 42 42 37 32 31 32 37 37 38 37 34 30 26
33 36 39 42 45 45 48 49 54 55 52 48 43 39 41 36 38 39 40 38 37 36 40 39 35 32 31 27 26 24 30 29 28 25 38 38 34 36 32 34 36 36 36 34 32 30 28
32 35 39 40 45 44 46 47 49 55 52 47 41 38 42 42 38 38 38 37 37 38 39 37 34 37 37 30 27 27 27 29 27 31 28 37 34 35 29 30 33 34 35 35 34 32 31
31 33 38 40 42 44 45 47 49 54 51 47 47 45 41 36 39 39 38 38 39 39 39 40 39 34 38 35 34 29 30 30 32 32 33 33 35 32 26 29 29 28 31 33 33 34 33
32 32 37 39 41 43 44 47 49 53 52 48 46 45 40 35 31 34 36 37 40 40 39 42 41 40 41 40 42 40 38 35 33 33 34 35 35 34 27 28 24 27 28 30 31 32 32
32 31 36 39 41 43 43 46 47 48 53 48 46 45 43 37 36 32 29 37 41 42 43 42 43 41 44 39 38 37 37 36 35 33 36 36 35 33 31 28 30 30 25 27 28 29 31
31 31 35 38 40 43 42 45 48 49 53 50 46 47 44 38 35 34 34 39 38 39 39 41 40 38 42 38 38 33 30 35 33 35 37 37 37 37 32 26 25 25 29 28 29 27 29
31 31 35 38 40 42 42 45 47 49 52 51 48 48 45 40 40 36 33 38 42 40 38 37 38 38 42 34 35 34 34 36 32 33 35 36 37 34 34 31 31 30 30 29 23 28 30
31 32 35 38 40 42 42 45 47 49 52 51 47 48 45 42 41 39 37 37 42 42 37 36 38 39 39 36 36 36 32 36 36 35 36 34 33 34 35 33 28 31 31 27 33 32 31
31 32 34 38 40 42 43 44 47 47 52 51 46 47 48 44 43 43 42 43 43 45 41 39 39 39 40 38 37 34 29 28 33 33 36 34 35 34 34 33 34 33 34 35 35 33 33

GFSGBSN_sfc_30mbdewp_003.txt.gz
Dewpoint
54 53 53 53 56 56 57 57 57 58 56 54 52 51 51 51 51 51 51 51 51 52 53 54 55 57 53 47 47 51 49 48 49 51 51 51 48 45 41 44 46 43 43 44 44 43 41
55 55 55 54 55 56 56 56 56 57 57 55 54 52 51 51 51 51 52 51 51 52 53 53 54 55 49 41 44 46 47 44 45 51 51 51 48 46 43 41 41 45 45 42 42 41 40
55 57 55 55 55 56 56 56 56 56 56 55 55 53 52 51 52 51 52 53 53 52 51 53 53 52 47 41 44 44 45 44 42 41 42 51 50 47 46 42 43 44 42 43 45 42 41
51 54 58 55 55 55 56 57 57 56 55 55 55 54 53 52 52 53 53 53 53 53 52 53 53 50 42 44 46 44 44 39 40 40 39 40 44 42 45 45 43 42 42 40 42 43 41
45 49 54 57 55 55 56 56 57 57 56 55 55 55 54 53 53 54 54 54 53 53 52 53 50 47 39 44 43 44 43 38 38 39 39 39 39 39 42 40 39 40 36 39 41 43 41
43 44 50 54 56 55 55 56 56 56 56 56 55 55 54 53 53 53 54 52 52 53 51 50 48 43 42 39 41 43 42 40 38 37 36 40 38 36 38 38 31 33 35 37 39 40 41
42 44 46 50 54 56 55 55 55 56 55 55 55 55 55 53 53 53 51 49 44 43 46 39 39 37 37 41 41 41 41 39 39 37 34 35 36 34 35 37 37 35 34 35 38 41 40
42 43 43 47 51 53 56 55 54 55 55 55 55 55 55 53 54 53 50 45 43 44 40 43 42 41 39 41 38 39 40 38 37 34 35 34 31 34 35 35 36 36 36 34 36 40 41
40 43 45 45 48 49 54 55 54 54 54 54 55 55 55 53 53 52 48 45 48 46 39 40 43 41 40 41 39 38 40 38 36 35 34 32 30 32 33 32 32 33 35 35 34 38 40
39 40 43 45 46 48 52 55 55 53 52 53 54 55 54 53 48 48 46 48 49 45 34 33 37 41 42 42 38 40 40 37 36 34 34 33 33 31 31 32 31 29 32 33 34 34 35
39 40 42 43 46 46 50 52 54 55 52 53 54 55 54 48 44 44 48 50 49 45 18 34 37 41 41 39 37 38 40 39 34 33 34 31 31 31 30 30 32 29 30 31 34 36 37
36 39 41 43 45 47 49 49 53 54 54 53 55 54 53 48 47 50 50 48 44 31 20 34 38 37 36 39 38 37 37 40 40 36 35 32 32 31 30 30 29 33 34 33 35 34 30
32 38 41 42 43 46 48 49 52 51 55 54 54 53 51 48 44 51 48 43 31 24 31 33 34 36 34 35 36 35 36 36 33 29 28 32 34 34 37 33 32 32 31 26 26 27 26
32 37 40 42 42 48 48 48 49 50 55 56 54 53 49 47 50 49 45 37 25 26 27 36 35 34 33 33 35 35 34 32 37 33 29 25 23 32 35 34 29 31 30 26 19 23 23
34 36 40 42 42 45 48 49 47 49 54 55 54 51 47 50 50 47 39 29 27 29 35 36 35 32 32 34 33 35 33 32 32 34 26 28 26 32 32 35 33 30 29 32 31 34 29
32 34 37 41 43 44 46 46 46 49 54 55 50 48 46 50 49 44 36 29 32 35 38 38 31 33 27 30 32 32 32 33 31 33 32 31 26 32 33 35 35 29 33 30 32 26 27
30 31 34 40 42 45 48 46 47 52 54 55 48 43 49 51 49 41 32 32 34 36 38 37 34 33 30 29 31 30 26 28 30 30 32 33 30 28 35 33 32 34 34 34 32 31 29
31 33 33 39 40 46 47 48 48 48 51 52 46 39 50 50 39 38 34 35 36 38 39 39 39 36 33 29 29 27 26 24 30 30 30 34 33 28 27 36 36 36 36 33 27 28 32
31 33 33 37 40 45 45 46 47 52 54 49 43 44 50 47 34 35 37 37 36 38 39 39 38 37 35 30 31 29 28 30 30 32 33 36 31 26 30 36 39 37 37 38 34 37 32
32 32 32 36 40 44 45 46 46 50 53 50 44 38 44 45 42 37 35 36 36 40 39 40 40 39 37 31 30 27 25 27 30 30 38 37 34 31 28 34 37 36 34 39 37 33 26
33 31 32 34 39 42 45 45 47 48 53 47 45 40 41 35 38 40 38 38 37 36 40 40 38 38 36 29 26 26 29 30 31 38 38 35 31 31 33 34 36 36 36 37 33 35 23
33 31 32 33 38 40 45 45 47 47 51 47 42 41 41 39 38 39 39 38 38 39 39 38 38 37 37 35 28 27 28 31 27 37 34 35 30 32 35 38 38 36 37 37 34 33 31
33 31 32 32 36 40 43 45 45 47 49 48 47 47 42 40 39 38 37 37 37 39 40 39 39 39 38 38 40 37 39 32 31 25 29 33 33 35 31 36 37 33 35 35 34 34 33
34 31 32 32 37 40 42 44 45 46 48 47 47 46 40 37 37 38 38 38 39 39 38 40 41 39 40 42 42 41 40 36 32 31 29 29 32 34 30 27 23 27 29 35 33 33 34
34 32 32 32 37 40 41 44 46 46 47 49 48 46 42 38 39 39 36 32 39 41 42 41 41 40 44 43 39 37 37 33 35 35 34 35 34 32 30 29 29 27 26 29 32 32 32
34 32 31 32 37 39 41 43 46 46 47 49 47 48 44 39 38 39 36 38 36 36 39 40 43 41 46 40 38 32 30 34 31 33 37 35 35 35 32 26 25 25 28 28 29 28 29
35 34 32 32 36 39 41 43 46 47 47 50 48 49 45 40 41 41 38 37 40 40 38 39 40 40 42 39 36 33 32 34 31 32 33 34 34 32 32 31 30 30 29 29 26 26 30
34 35 32 32 35 39 41 43 46 47 48 50 48 49 46 42 41 41 38 38 42 41 38 39 39 40 40 37 36 36 34 36 35 34 32 33 34 33 33 31 27 32 29 22 30 32 34
35 33 33 33 35 37 41 42 44 47 48 50 46 48 49 44 43 45 43 42 42 44 42 42 41 40 40 38 38 37 31 36 35 32 36 34 34 34 35 31 34 33 33 35 34 33 34

GFSGBSN_sfc_30mbdewp_006.txt.gz
Dewpoint
53 55 58 56 54 55 56 56 57 56 56 57 55 53 52 51 51 51 51 51 51 52 53 54 55 56 53 49 47 49 50 51 52 54 54 52 49 46 42 42 44 44 42 45 47 46 45
50 50 53 55 57 56 55 55 56 57 56 57 56 54 52 51 52 52 52 52 51 52 53 53 54 55 48 38 46 44 48 46 49 50 50 52 49 48 45 42 41 42 43 44 44 43 44
43 44 46 50 55 58 56 56 56 57 56 56 56 55 54 52 51 52 52 53 53 52 52 52 53 52 48 41 44 44 43 45 44 46 48 51 51 49 47 44 44 43 40 41 41 44 42
45 45 44 45 50 54 57 56 56 56 56 55 55 56 55 53 52 53 52 54 53 54 52 53 53 51 41 45 46 44 44 42 40 41 41 40 45 48 44 45 43 41 41 38 40 41 44
43 44 43 44 45 49 54 56 56 56 55 56 56 55 55 54 53 53 54 54 53 53 52 53 49 46 39 45 43 44 44 41 39 39 39 39 39 39 39 41 38 39 35 35 37 41 42
40 38 42 45 44 45 49 54 56 55 55 54 55 56 56 54 54 54 54 53 52 53 51 51 49 44 43 39 41 43 43 42 38 38 36 39 38 36 38 37 30 32 33 34 34 41 41
39 38 39 43 45 45 46 50 52 56 54 54 54 55 55 54 53 53 51 48 41 41 46 40 39 39 35 41 42 41 42 40 40 37 34 35 36 32 33 35 36 35 35 33 35 37 38
37 37 42 41 42 44 46 47 50 54 54 53 52 54 55 55 53 54 48 43 41 41 38 42 42 41 41 42 38 40 41 38 38 35 36 34 31 33 35 34 35 35 33 33 34 35 36
34 32 39 41 40 42 45 46 49 53 55 53 52 54 55 54 53 52 47 45 47 45 38 39 42 41 40 41 38 39 39 38 35 33 32 31 30 31 33 34 33 33 32 31 33 34 34
34 34 32 40 40 41 43 45 47 52 55 53 52 54 55 54 49 49 46 48 47 46 32 32 37 41 42 41 38 40 39 37 36 33 33 32 34 32 31 31 32 30 33 34 33 33 30
35 36 32 38 39 42 44 45 47 50 52 54 52 53 54 50 44 45 45 49 48 44 11 31 36 41 42 39 38 39 41 37 36 34 34 30 32 32 29 30 32 30 31 30 31 31 31
34 34 34 38 39 43 43 44 46 48 51 53 54 54 53 48 47 47 49 49 45 30 13 33 38 37 38 39 38 38 39 40 40 35 35 31 33 33 31 30 30 33 32 30 31 31 27
34 34 34 36 39 43 43 44 47 47 48 53 52 55 51 48 45 50 49 43 29 21 29 32 33 36 35 35 36 37 36 36 32 29 28 33 33 34 36 32 32 30 28 25 24 24 21
34 33 32 32 35 41 43 43 46 47 48 50 50 54 49 47 51 49 44 36 22 23 29 35 34 35 32 32 35 34 35 32 37 34 30 27 24 33 34 31 29 30 28 24 17 20 19
36 34 33 32 35 40 42 43 48 46 48 49 50 52 47 49 50 46 38 27 22 26 33 33 34 32 32 35 33 35 34 32 30 35 28 26 25 32 32 33 31 30 27 28 27 26 25
36 35 31 35 34 39 42 43 46 47 47 49 46 47 46 50 49 44 36 27 29 34 38 36 31 34 29 31 31 32 32 31 33 35 34 28 24 30 32 34 33 28 30 26 26 20 20
35 34 33 32 34 37 42 43 46 47 48 48 47 41 46 50 46 40 31 30 33 37 38 36 35 33 32 27 31 30 29 31 34 31 34 31 30 30 30 31 29 31 27 27 25 26 26
35 34 34 32 34 37 41 45 45 47 47 47 45 35 48 49 38 37 34 34 34 36 39 38 38 37 34 30 31 30 29 27 33 31 32 32 32 26 27 31 35 30 28 27 24 21 28
37 34 34 31 36 38 41 44 44 47 50 48 42 43 48 46 33 33 36 35 34 36 38 38 38 38 37 31 29 29 28 28 30 31 31 35 31 25 27 31 33 34 30 32 31 31 28
37 35 34 32 35 37 40 42 45 45 47 49 42 37 42 43 42 35 33 34 35 39 36 38 39 39 37 34 30 28 30 28 29 29 35 36 33 29 24 30 33 32 32 32 31 30 27
37 36 34 31 33 35 40 42 45 46 46 49 44 39 40 34 37 37 36 36 35 35 39 40 37 38 37 33 31 31 30 27 31 34 38 35 29 31 32 33 33 33 34 34 35 33 28
37 36 35 31 33 33 40 42 45 45 47 48 41 40 40 37 38 39 37 37 35 37 39 38 37 38 37 35 29 27 28 30 29 36 37 37 30 31 29 35 34 34 36 36 37 35 35
36 36 35 31 31 35 40 42 44 45 47 40 47 46 40 38 37 37 37 36 37 37 39 39 40 38 38 38 38 39 39 36 33 36 33 33 32 30 31 37 37 33 35 36 34 35 35
35 36 35 32 31 37 39 42 44 45 46 45 47 44 40 37 38 37 38 38 38 37 36 40 40 39 39 43 43 44 40 40 35 31 32 31 32 32 32 35 26 27 37 36 37 37 39
34 35 35 34 32 36 39 42 44 45 46 46 47 45 40 37 38 37 37 37 36 40 39 39 41 42 42 41 39 36 36 37 34 34 31 31 30 31 30 29 28 26 28 35 35 34 33
35 35 35 35 32 35 38 41 44 46 47 48 48 48 43 39 38 39 37 37 36 35 38 40 43 43 43 41 38 32 28 30 31 35 36 34 34 33 32 27 24 24 28 29 30 29 29
35 36 34 32 33 35 37 40 43 46 47 48 48 49 44 40 40 40 37 36 39 38 36 39 40 42 44 39 35 32 31 34 30 30 33 33 33 32 31 30 29 31 30 29 27 26 30
35 35 35 32 34 34 36 39 42 44 46 47 47 49 45 41 41 40 39 39 41 39 36 40 40 40 41 37 35 36 32 34 33 33 33 32 31 31 31 30 25 33 28 23 27 32 34
34 35 36 33 34 35 35 39 41 42 45 47 46 49 49 44 43 45 43 42 41 42 41 42 41 41 41 38 38 39 34 36 34 31 35 31 34 32 32 30 34 33 32 35 33 33 34

GFSGBSN_sfc_30mbdewp_009.txt.gz
Dewpoint
45 45 45 47 48 52 56 56 56 56 56 56 56 55 54 52 51 52 51 52 51 52 53 54 55 56 53 48 47 49 51 53 55 57 55 52 49 45 41 42 43 43 43 43 44 46 46
44 45 46 45 46 48 50 54 56 56 56 55 56 56 55 53 52 52 52 52 51 52 53 53 54 54 48 37 44 44 44 47 50 53 53 53 50 48 45 43 41 42 42 42 44 43 44
40 41 42 44 46 46 47 50 55 56 56 55 55 56 56 54 52 52 52 52 53 53 52 52 53 51 46 41 44 44 43 44 45 50 47 51 52 48 47 43 44 43 41 41 41 42 42
40 42 42 40 44 46 45 48 52 55 55 55 55 55 56 55 53 52 52 52 54 53 53 52 53 51 40 45 46 44 44 41 43 46 42 44 50 49 47 45 42 41 40 37 38 39 42
38 38 38 41 43 45 46 46 49 52 53 55 54 54 55 56 54 53 53 53 53 53 53 53 49 45 38 45 44 44 44 40 39 39 39 39 40 40 40 39 37 38 32 35 36 39 41
36 36 36 36 41 43 43 44 46 48 50 54 55 54 53 56 54 54 53 53 53 52 52 50 48 43 42 39 42 43 44 42 38 37 36 37 39 37 37 37 29 30 34 34 34 38 39
36 36 35 35 36 40 42 42 44 47 47 52 55 53 53 54 54 54 52 47 41 41 46 41 40 39 36 41 42 42 42 41 39 37 34 35 36 34 34 36 37 36 34 33 35 36 35
36 36 35 36 35 36 41 42 43 44 47 49 53 55 53 54 54 54 48 41 40 40 37 42 42 42 41 42 38 40 41 38 38 35 35 34 31 34 34 33 33 33 33 32 32 33 33
35 36 34 37 34 37 40 41 44 45 46 49 52 55 53 54 54 52 46 44 46 44 36 38 42 41 41 40 38 39 40 39 37 35 35 32 30 33 32 32 33 33 32 30 30 32 32
36 36 34 34 33 38 39 42 43 44 45 48 52 54 53 54 50 49 46 47 47 45 30 30 38 41 41 40 37 40 40 38 36 34 34 33 33 32 31 30 31 29 33 33 32 30 25
36 36 35 36 33 35 39 42 44 43 45 48 51 53 53 54 48 46 44 48 47 38 16 31 37 42 42 37 38 39 40 37 34 34 33 32 33 31 30 30 31 29 31 30 31 31 30
38 37 37 35 34 33 38 41 45 43 44 48 50 51 54 49 48 46 48 48 44 26 15 31 38 37 38 39 38 39 39 39 40 35 34 31 34 34 32 32 31 33 32 31 30 29 24
38 38 38 35 33 35 41 43 45 43 45 46 49 50 51 48 43 49 48 43 28 20 29 31 32 36 33 36 35 36 37 36 33 29 29 34 33 35 35 31 31 29 28 23 23 22 20
36 37 37 36 35 35 36 40 44 44 46 46 48 49 49 48 50 48 45 34 20 21 27 34 34 35 31 33 34 35 35 32 36 33 30 26 25 33 34 32 29 29 26 21 15 19 18
39 38 36 36 35 34 35 38 41 44 47 47 48 48 45 50 49 46 38 27 23 24 30 33 33 30 31 32 33 34 34 31 31 34 28 26 26 34 34 32 32 32 29 27 21 24 25
40 39 38 35 35 33 35 38 42 46 47 47 46 43 43 50 48 44 34 26 26 32 35 33 28 31 27 30 31 32 30 32 31 33 33 30 24 29 32 33 32 29 30 27 27 18 18
39 39 38 36 35 33 34 37 43 45 46 47 44 38 46 50 46 40 31 28 31 35 38 35 32 32 30 31 32 28 27 30 33 32 35 34 29 27 31 30 28 30 29 27 25 24 19
39 38 38 36 36 32 34 38 42 45 46 46 41 32 49 49 37 38 33 31 33 35 39 37 37 34 33 31 31 29 29 29 34 34 32 33 31 25 24 30 32 30 28 27 26 20 21
38 37 38 36 35 33 35 39 42 45 46 43 39 40 48 45 31 33 34 32 35 34 37 36 37 37 37 32 28 31 29 30 34 32 32 32 30 23 27 31 33 31 31 28 27 28 22
38 37 37 36 36 34 35 39 42 45 45 45 40 33 40 42 40 34 30 33 34 37 34 37 38 38 37 34 31 30 30 30 31 32 34 35 32 29 22 27 32 28 32 29 26 24 23
36 36 37 36 34 32 36 40 42 45 44 46 40 36 37 33 36 34 33 34 33 35 38 38 38 38 36 33 32 30 31 30 31 33 36 36 29 32 32 32 33 32 32 30 28 26 23
36 36 37 35 35 32 36 39 42 46 46 45 41 39 38 36 37 33 34 33 35 34 37 37 37 37 38 36 32 27 31 30 29 37 36 38 30 31 29 32 32 30 32 34 30 30 30
35 35 35 36 35 32 35 40 43 46 46 40 42 46 39 36 37 34 34 35 36 37 39 38 39 38 37 38 37 36 39 38 34 35 36 33 31 30 26 34 33 27 31 32 33 32 33
35 35 35 35 35 32 33 39 42 45 47 44 43 42 41 35 35 35 37 37 36 37 36 39 40 39 39 42 42 41 40 40 39 35 38 33 32 31 28 32 26 33 38 36 34 36 36
36 35 36 35 32 32 33 38 41 44 46 45 46 45 42 36 35 36 37 38 39 39 39 38 40 41 43 42 38 35 35 36 36 35 35 34 32 30 30 29 29 34 39 37 36 35 37
37 35 36 36 32 33 34 37 41 43 45 45 45 48 44 38 37 39 38 39 38 37 38 40 43 44 44 41 37 31 27 31 31 34 33 31 32 30 30 28 21 25 37 36 39 32 39
37 35 36 36 34 34 35 36 40 42 43 45 45 49 44 38 40 39 37 37 38 37 35 39 39 41 43 38 34 32 30 33 29 31 31 33 32 28 29 29 29 31 30 31 32 27 34
36 36 36 36 36 34 35 36 39 41 43 45 44 47 46 41 41 41 40 40 40 38 36 39 39 40 39 36 35 34 32 33 32 31 33 31 29 30 31 29 23 33 29 25 28 33 32
35 36 35 36 37 35 36 35 39 40 41 45 44 49 50 43 42 45 43 42 41 41 40 41 40 41 41 38 37 37 34 35 33 29 35 31 32 30 30 29 33 33 33 35 33 33 34

GFSGBSN_sfc_30mbdewp_012.txt.gz
Dewpoint
42 43 43 42 42 45 47 48 50 52 56 55 56 56 56 55 53 52 51 52 52 52 53 54 55 56 54 49 48 49 52 50 56 57 53 50 48 44 39 41 43 42 43 44 44 43 44
41 40 41 40 43 43 45 48 48 49 52 57 55 55 56 56 54 52 52 52 52 51 53 53 54 53 48 38 43 44 43 46 55 56 54 52 48 48 45 43 41 42 42 42 42 43 44
40 39 39 40 42 42 43 45 47 47 49 55 55 55 55 55 54 53 52 53 52 52 52 52 53 50 46 40 44 45 43 43 45 51 52 53 51 46 46 43 45 44 40 41 41 41 41
38 38 38 38 37 37 42 44 44 45 47 50 54 55 54 54 54 53 52 53 53 54 54 53 53 49 38 44 46 44 43 40 42 47 45 49 52 49 47 45 41 40 39 35 37 39 41
38 38 37 37 37 39 37 38 43 44 46 48 50 53 55 54 54 54 53 53 53 52 53 53 48 45 39 44 44 43 43 39 40 41 41 41 46 42 43 40 36 37 31 33 34 37 39
39 36 37 35 35 38 37 38 42 42 44 46 48 50 54 54 54 54 54 52 52 52 51 50 47 42 42 38 42 43 44 41 38 38 37 37 38 37 37 36 26 29 32 34 33 36 36
37 36 35 35 35 34 34 39 41 41 41 45 47 50 52 55 54 54 52 48 43 43 47 41 40 39 37 41 42 42 43 40 38 36 36 36 35 33 35 35 34 34 33 33 34 35 34
37 36 38 39 38 34 34 38 40 42 43 43 45 48 52 53 54 54 49 42 40 39 37 43 43 42 42 42 38 40 42 38 37 34 35 34 31 34 35 35 35 34 32 31 31 32 32
39 39 39 39 38 36 34 33 38 41 44 45 45 46 51 51 55 52 46 42 45 44 35 36 41 41 41 41 38 39 40 39 36 35 34 32 30 33 33 33 32 32 31 30 29 29 30
41 38 39 39 37 36 37 33 41 42 44 44 44 46 49 52 52 49 45 46 46 41 27 28 38 40 41 40 36 41 41 38 36 34 34 33 35 33 31 31 31 28 31 32 32 30 24
40 38 37 39 37 36 34 37 42 43 43 44 44 46 49 52 50 46 46 47 46 34 15 31 37 42 41 36 37 39 41 38 35 34 34 31 32 32 31 30 31 27 31 31 31 31 30
41 41 40 39 37 37 36 39 42 41 43 44 45 47 49 46 50 47 47 47 40 22 18 31 36 38 38 37 38 39 38 39 39 34 34 31 34 33 31 32 31 32 31 30 30 29 22
42 40 40 40 38 37 37 36 38 41 44 46 46 47 48 47 45 49 47 41 27 20 29 30 32 35 35 34 35 36 36 36 32 30 29 34 34 34 35 30 32 31 30 22 22 22 18
40 40 40 40 39 38 37 35 37 40 44 45 48 48 48 46 49 49 44 31 22 22 25 33 31 33 30 34 33 35 35 33 36 35 30 27 23 33 34 31 28 29 27 22 15 17 18
41 40 40 39 39 38 36 34 36 41 44 47 47 46 45 46 49 47 36 25 22 23 31 33 32 28 29 32 33 33 34 33 31 36 29 27 25 33 33 33 31 32 27 28 22 20 21
38 39 39 38 39 37 34 35 37 41 44 46 44 44 43 46 50 45 31 27 25 29 34 33 27 30 28 31 30 33 32 32 33 35 35 31 25 28 32 34 33 32 33 27 26 17 14
38 39 39 38 38 37 35 35 38 41 45 46 43 37 44 48 49 40 30 28 28 36 35 32 31 29 28 30 31 30 27 29 33 32 35 32 30 26 33 30 27 31 29 30 30 27 18
38 39 38 37 38 37 34 34 40 42 45 44 41 32 47 47 36 35 32 29 33 34 39 37 35 32 31 30 31 29 27 27 32 34 32 34 31 25 25 30 31 29 27 27 23 20 22
38 38 36 37 37 37 33 36 40 43 45 42 38 39 48 44 31 33 33 32 34 35 37 36 35 36 36 33 29 31 30 31 33 33 31 32 30 24 24 29 32 31 30 28 27 27 21
38 38 36 37 37 37 33 36 40 44 45 44 39 33 40 40 40 34 31 30 31 36 36 37 37 37 36 35 32 29 30 31 33 34 35 33 32 27 22 26 31 29 31 31 29 24 22
38 38 36 36 37 36 33 36 41 45 45 44 41 34 36 31 34 33 31 31 30 34 36 36 37 36 36 33 34 33 31 31 32 33 35 35 29 31 31 31 32 31 31 31 29 27 23
38 37 36 37 36 34 33 36 41 45 46 42 39 38 37 34 37 33 31 33 33 34 36 35 35 36 37 36 34 30 32 32 32 34 34 37 29 32 29 32 32 30 32 31 33 29 26
38 37 37 37 37 33 33 37 40 45 46 38 39 42 38 36 36 32 31 33 32 35 36 37 38 38 37 38 39 38 37 37 37 35 35 34 31 29 25 31 32 26 30 32 31 34 28
38 38 36 36 36 33 33 36 39 44 45 44 41 42 39 34 34 32 34 33 36 37 35 39 39 39 39 42 41 40 38 38 39 39 37 33 31 31 27 30 25 35 38 34 30 31 34
38 37 36 35 36 35 34 35 37 42 44 44 44 43 42 34 35 34 36 35 36 38 38 38 38 41 42 40 38 36 36 35 36 38 37 37 32 29 27 29 31 34 36 33 31 31 33
38 37 37 36 36 36 35 36 37 41 42 43 44 47 44 36 34 35 36 38 38 37 38 40 43 44 42 39 37 31 27 29 30 33 33 36 33 31 29 27 23 27 40 41 38 33 37
36 36 36 36 35 37 36 37 36 40 41 43 43 47 45 39 40 39 36 37 39 38 35 38 39 39 43 38 33 32 30 32 28 30 31 31 31 28 28 27 29 32 35 40 32 28 33
38 36 37 36 37 37 36 37 36 40 41 43 42 47 46 41 41 41 40 39 39 38 34 39 38 40 38 35 34 34 33 32 31 31 32 30 29 28 28 28 24 33 36 30 29 32 33
38 37 36 37 37 37 36 36 35 39 41 43 40 43 48 44 41 45 43 42 41 40 39 41 39 40 40 38 37 38 35 33 32 28 34 31 30 30 31 28 31 34 33 34 33 33 33

GFSGBSN_sfc_30mbdewp_015.txt.gz
Dewpoint
41 41 41 41 40 40 40 44 45 45 47 50 53 56 55 56 56 54 51 51 52 51 53 53 54 55 53 49 49 50 49 49 56 56 53 51 46 42 38 41 43 42 42 43 44 44 44
40 40 40 40 39 39 39 39 41 43 44 47 50 53 55 55 55 55 53 52 52 52 52 53 54 52 48 42 44 44 44 47 56 56 53 50 47 46 43 42 40 40 42 42 42 42 43
40 40 39 39 38 38 40 41 39 40 43 45 48 52 54 55 54 55 53 53 52 52 52 52 53 49 45 39 45 44 43 43 48 53 52 53 51 46 45 42 45 44 40 40 40 40 40
38 38 37 37 38 36 35 36 35 39 42 43 45 49 51 54 55 54 54 53 52 53 53 52 53 47 37 43 46 44 43 40 42 50 48 52 52 49 46 45 40 40 40 34 36 39 40
36 38 36 38 39 39 37 36 35 38 42 42 43 45 49 52 54 54 54 53 53 53 52 53 48 43 38 44 44 44 42 39 41 43 41 50 47 42 44 39 35 37 30 34 34 37 37
37 37 39 39 40 40 39 37 36 36 40 43 43 44 47 49 52 54 54 53 52 52 51 49 47 42 42 38 42 43 44 40 39 39 38 39 38 36 37 36 26 29 32 33 32 35 36
42 43 40 40 39 39 38 37 37 35 38 41 44 45 46 47 53 54 53 49 45 43 46 40 40 39 39 42 43 42 43 39 38 37 37 37 35 32 34 35 33 34 33 32 34 34 33
42 40 40 40 39 38 38 36 36 37 39 41 44 45 45 45 52 53 51 43 41 39 37 44 43 42 43 42 38 41 42 37 36 35 35 34 32 34 35 36 35 34 32 31 32 31 30
41 41 41 40 40 39 38 37 37 38 41 42 44 46 44 45 49 51 47 42 43 41 32 35 42 42 40 41 38 39 40 39 36 35 34 32 31 33 33 34 32 32 30 28 28 30 31
41 42 42 41 41 40 39 38 37 40 42 43 43 43 45 45 46 49 46 45 45 37 24 27 36 40 41 40 36 40 41 38 36 34 35 32 33 33 32 32 33 29 31 31 30 29 23
42 41 41 40 40 40 40 38 38 39 39 41 43 43 45 46 46 47 47 47 42 34 11 31 37 42 41 37 35 39 41 38 35 34 34 30 32 33 32 31 32 29 30 29 31 31 29
41 41 41 41 40 40 40 38 38 37 38 41 43 46 45 46 47 47 49 46 34 23 15 31 36 38 37 36 38 39 39 39 38 34 35 31 34 32 31 32 32 32 32 31 31 30 23
39 39 40 40 40 39 40 38 37 36 38 43 45 46 46 46 42 49 50 43 27 19 29 30 32 38 34 33 36 36 36 35 33 29 29 32 32 34 34 30 32 31 30 22 20 21 18
37 36 39 40 40 39 39 37 36 36 41 43 45 46 47 47 46 46 45 35 23 22 26 31 31 35 32 31 32 35 34 32 35 34 30 26 22 32 35 31 28 30 28 22 15 15 17
37 37 39 39 39 39 38 37 36 37 41 44 45 46 46 47 48 45 39 28 22 23 32 31 31 29 30 31 32 32 34 32 33 34 29 26 25 32 34 34 31 31 28 28 25 24 22
35 38 39 39 38 39 38 37 35 40 43 45 43 42 43 47 47 42 33 29 25 32 33 32 28 29 27 30 31 31 31 32 32 35 34 31 25 28 32 34 33 33 33 26 26 17 15
40 39 39 38 38 38 38 36 36 41 43 46 41 37 44 47 43 37 30 29 30 35 34 31 30 29 29 30 30 31 29 30 34 34 35 34 30 26 32 30 26 30 29 30 29 27 19
39 38 38 38 39 37 38 35 36 40 43 44 38 32 45 47 33 32 32 30 34 36 38 36 33 31 30 31 30 30 28 27 33 34 33 33 31 25 24 28 31 29 28 27 24 20 25
39 38 38 38 38 38 37 34 36 41 44 43 35 37 45 41 30 31 34 33 35 35 36 35 34 35 34 30 29 30 30 31 33 33 31 33 30 23 23 29 30 31 30 29 28 26 23
39 38 38 38 38 38 34 34 37 42 44 44 37 31 39 40 39 34 31 32 33 36 37 37 36 36 35 34 32 30 31 31 33 34 34 34 30 25 18 22 29 28 29 31 30 25 22
39 39 38 38 37 38 34 35 38 41 45 45 39 33 36 31 34 33 31 30 32 32 36 36 37 36 34 33 33 32 31 31 33 34 35 34 28 30 30 29 30 31 31 31 29 28 25
39 39 38 37 37 36 34 36 40 41 46 40 35 36 37 35 37 32 32 30 28 34 35 34 33 33 36 35 33 32 33 31 31 33 34 36 29 32 29 32 32 29 31 32 31 31 29
39 39 38 37 36 37 35 37 39 41 45 40 39 41 40 35 35 32 31 32 32 34 35 37 36 35 37 36 39 39 39 37 35 33 33 34 31 29 25 31 31 27 31 32 32 32 31
38 38 38 37 36 37 37 35 38 40 44 43 41 41 38 33 34 32 31 32 33 35 35 38 38 38 39 43 41 41 41 40 38 37 37 34 31 30 27 30 24 35 37 35 33 32 31
38 37 36 36 36 36 37 35 38 38 42 43 43 41 40 33 34 33 33 31 33 35 38 37 38 41 41 40 36 35 35 35 35 38 38 38 34 30 26 27 30 33 35 35 32 31 32
37 38 37 37 37 37 37 36 37 37 41 43 43 46 43 35 33 34 36 35 35 36 37 38 43 44 42 38 34 30 28 29 29 32 35 37 36 32 29 25 25 29 37 35 36 30 33
37 38 37 37 37 37 37 36 37 36 40 43 42 46 43 40 39 36 35 37 39 38 37 38 40 41 42 37 32 31 30 31 27 28 30 31 32 29 29 27 28 31 32 40 29 26 32
37 36 36 36 36 37 37 36 37 36 40 42 41 46 41 42 41 40 40 39 38 38 35 37 38 39 38 34 33 33 32 32 31 30 30 29 28 29 28 27 24 32 37 33 29 32 33
35 35 36 37 37 37 36 37 36 36 39 41 39 41 42 42 42 45 43 42 40 40 39 40 39 39 39 37 37 37 33 33 31 28 33 30 30 29 30 28 31 34 32 33 34 33 33

GFSGBSN_sfc_30mbdewp_018.txt.gz
Dewpoint
42 42 40 41 40 39 39 40 41 41 41 42 44 46 51 54 55 55 55 52 52 52 52 53 54 55 52 49 47 49 49 50 56 56 52 49 45 42 39 39 40 39 36 39 39 42 40
41 40 39 39 39 40 38 37 37 37 38 41 43 45 48 53 54 56 55 53 52 52 52 54 54 52 45 42 45 44 44 51 54 54 52 50 48 44 41 39 39 38 40 40 40 39 39
39 38 40 39 40 41 41 39 39 38 36 39 44 44 44 49 52 55 55 54 53 52 52 53 53 48 45 35 42 44 43 45 55 54 52 51 48 45 44 40 43 40 37 35 35 35 35
38 39 39 40 39 40 41 41 39 38 37 36 41 43 44 46 50 54 55 55 53 52 52 52 53 45 37 43 45 43 42 43 49 50 52 53 51 45 40 43 38 36 37 32 33 37 38
39 44 44 40 41 40 40 39 39 37 36 37 40 42 44 45 47 51 55 55 54 53 53 53 48 42 39 45 43 42 40 42 45 44 47 50 46 41 42 35 33 33 28 31 31 34 35
43 40 42 41 41 43 41 40 39 37 38 39 40 40 45 46 46 49 54 55 53 52 51 50 47 42 42 39 42 42 42 41 41 42 42 42 38 34 34 34 27 27 31 29 29 32 34
42 41 42 42 43 41 40 41 40 39 37 38 40 42 45 46 45 47 51 52 45 43 45 38 39 38 40 42 43 41 41 39 39 40 36 38 35 32 31 32 32 31 30 29 30 32 31
42 42 42 42 42 40 41 41 41 39 38 40 42 44 44 43 45 45 49 44 39 40 37 43 42 41 42 42 38 41 41 36 36 33 36 35 32 33 33 33 32 32 30 29 29 30 30
42 42 41 42 42 41 41 41 40 39 39 41 42 41 44 43 44 45 46 47 47 40 33 39 42 40 40 41 37 39 39 37 35 34 34 31 31 32 33 33 31 31 29 28 27 28 28
38 40 41 41 41 41 41 41 40 39 39 41 39 41 43 43 42 42 44 49 48 44 31 31 37 39 40 39 36 40 39 37 36 33 34 33 33 32 31 31 31 28 29 29 28 27 24
39 40 41 39 41 41 40 40 41 38 37 38 43 43 41 45 42 40 45 50 49 40 20 31 36 42 40 34 36 39 41 38 34 33 34 31 31 32 31 30 31 29 29 28 28 27 26
40 40 40 40 40 40 40 40 40 38 38 40 42 43 45 44 43 43 49 48 44 29 19 30 38 38 37 36 36 39 39 38 36 33 34 30 34 32 30 32 31 32 30 30 29 28 24
36 37 39 40 40 39 39 40 38 37 36 41 43 46 45 45 39 46 50 42 28 25 29 30 31 36 33 32 35 35 35 34 31 29 29 30 30 32 32 29 32 31 28 21 21 22 17
39 41 40 40 39 38 39 38 37 36 40 42 45 45 46 44 47 48 46 33 25 25 26 31 32 32 30 30 33 34 33 33 33 32 29 25 25 31 34 30 26 28 26 20 13 11 12
41 41 40 39 38 39 39 38 37 37 41 43 45 43 44 45 46 43 37 28 27 24 29 29 32 29 31 29 31 32 31 30 31 33 28 27 25 31 32 32 30 30 28 27 24 23 21
40 40 39 38 38 39 38 38 36 37 41 45 41 41 42 47 45 41 32 31 26 32 31 30 27 27 26 28 29 29 30 30 30 31 32 30 26 28 32 34 33 31 29 26 27 16 13
40 39 38 38 39 39 38 36 36 38 42 45 40 36 44 47 41 36 30 31 33 33 32 30 29 28 28 27 29 28 29 31 32 33 33 32 28 27 31 30 26 30 29 31 28 25 16
40 40 39 38 39 39 39 34 37 40 42 44 39 30 44 45 33 33 32 32 35 34 38 35 31 30 29 30 29 28 28 28 32 35 32 32 29 25 25 26 28 25 25 27 25 22 25
40 39 39 39 38 38 38 34 37 40 41 42 36 34 45 44 30 32 35 34 36 36 36 35 33 33 31 30 28 29 30 31 33 33 31 32 30 24 24 28 28 27 26 26 29 29 24
39 39 39 38 38 36 38 35 38 40 42 45 36 31 38 39 39 34 31 32 34 37 36 36 36 35 32 30 31 30 30 32 32 32 34 32 28 26 20 22 26 29 29 30 31 25 23
40 39 39 38 37 38 38 36 38 41 44 44 37 33 37 32 34 32 31 32 32 32 36 36 35 35 32 31 31 31 32 31 33 34 34 32 29 30 29 28 29 30 30 31 30 29 25
37 38 38 38 37 37 37 36 39 42 44 39 34 35 38 36 34 31 30 30 30 34 34 34 31 34 35 32 31 32 33 33 31 33 32 35 30 32 29 33 32 31 33 33 32 32 31
37 38 38 38 37 36 38 38 39 41 43 39 40 41 39 36 33 30 30 30 30 34 35 36 35 34 34 34 37 37 36 36 34 33 32 34 32 30 26 29 31 29 32 33 33 35 32
37 38 38 37 37 37 37 38 38 39 42 42 40 41 38 33 33 30 31 32 33 30 36 37 38 36 39 42 41 41 40 39 38 38 35 34 32 31 27 31 24 34 37 37 35 35 35
37 37 37 37 37 38 37 37 38 37 40 41 43 40 39 34 33 32 32 32 35 37 35 37 38 39 42 40 35 32 34 35 36 37 37 36 35 30 27 28 27 34 35 38 34 32 32
37 36 35 35 36 37 37 37 38 37 39 41 43 45 42 37 33 33 33 32 31 31 34 37 43 44 42 38 35 28 27 29 29 32 36 36 38 33 30 26 24 31 32 37 35 29 32
36 35 35 37 37 37 37 37 38 36 39 41 42 44 40 39 40 34 33 34 38 37 37 39 40 41 42 37 32 29 28 32 28 28 30 31 32 29 28 27 27 30 33 39 28 29 33
36 36 35 35 34 35 36 35 35 35 37 41 39 44 39 37 42 40 40 39 39 38 35 38 38 39 39 34 32 33 33 33 31 30 31 29 29 28 29 26 25 32 35 31 33 34 33
36 36 35 34 34 34 33 33 34 36 36 39 38 41 42 38 43 45 43 43 40 40 39 40 39 39 39 35 36 37 34 33 32 27 33 30 30 28 29 28 32 33 34 35 35 34 34

GFSGBSN_sfc_30mbdewp_021.txt.gz
Dewpoint
40 40 41 41 40 41 42 41 40 40 40 38 37 42 45 45 48 52 54 56 53 53 52 53 53 54 51 49 48 49 50 51 56 55 49 45 41 39 36 35 35 35 33 30 34 36 36
40 40 41 41 42 41 40 41 42 41 40 39 38 39 43 44 45 49 53 56 55 53 52 53 53 53 47 44 47 47 45 49 50 54 50 48 44 41 39 37 37 36 36 36 36 36 36
41 41 44 43 42 40 41 41 40 40 40 39 38 38 41 44 45 48 50 55 55 53 52 54 53 48 42 40 40 42 44 47 52 52 51 50 48 45 43 40 40 40 38 36 36 36 36
43 45 43 42 43 42 44 44 42 41 40 39 39 40 41 42 45 47 48 51 55 54 53 53 53 44 39 42 43 41 41 47 50 53 52 51 49 46 41 41 37 35 34 32 31 33 32
43 41 42 43 43 44 44 43 41 42 41 41 38 39 39 41 44 46 47 48 53 54 53 52 48 43 38 45 39 39 40 44 48 47 49 51 50 43 42 37 32 32 27 28 29 32 33
42 42 43 44 44 43 44 43 42 42 42 42 40 40 43 43 45 46 47 48 50 54 52 50 46 42 40 39 41 40 39 44 44 43 44 43 40 36 36 33 27 27 29 29 27 28 32
44 44 44 44 42 42 44 44 42 42 41 41 40 41 43 44 45 45 46 46 48 45 48 40 41 38 40 41 42 40 39 42 41 40 35 37 35 32 30 30 30 29 28 27 27 28 28
41 39 39 41 41 42 42 41 41 41 41 41 40 42 42 41 44 44 45 41 43 45 40 40 40 40 41 40 38 39 39 38 38 36 36 36 33 32 31 31 31 30 29 27 27 27 27
41 41 42 40 41 41 41 41 41 41 41 40 40 42 42 42 43 42 41 40 47 48 39 39 40 38 40 40 36 38 38 35 36 34 34 33 32 32 32 31 31 30 29 27 26 27 27
40 40 39 39 40 41 41 41 40 41 41 40 38 43 42 43 41 41 38 43 49 47 34 35 37 37 40 39 36 39 38 36 35 32 33 33 32 30 30 30 30 27 28 27 27 26 23
41 39 42 41 41 41 40 40 40 40 39 38 39 42 45 45 42 38 41 49 49 44 24 33 36 39 39 34 36 38 38 37 33 32 32 31 31 31 29 29 30 28 30 28 27 26 26
39 42 42 41 41 40 40 40 39 38 37 40 42 44 45 45 43 41 44 48 42 29 24 31 37 37 35 33 35 38 37 38 34 31 32 30 32 31 30 30 30 31 29 28 28 26 22
39 42 41 40 39 39 40 39 39 38 39 41 43 45 45 45 38 41 47 42 28 24 29 30 31 34 33 31 33 35 35 34 31 29 28 29 29 31 30 29 31 30 28 22 22 23 17
39 41 40 40 39 39 39 39 37 38 40 42 45 43 44 42 44 46 42 34 23 29 27 30 33 32 30 31 31 31 31 31 31 28 27 25 26 29 32 29 28 29 27 19 12 8 9
40 41 41 40 39 39 39 39 36 38 41 44 45 41 43 44 46 45 36 26 29 26 29 30 31 30 30 30 32 30 30 30 29 30 28 27 26 29 31 31 29 28 27 27 24 21 18
40 42 41 40 40 39 39 38 36 39 42 43 43 40 41 45 44 41 34 31 29 29 29 30 26 28 26 27 29 27 28 29 28 30 29 29 26 27 29 32 31 29 30 26 27 17 12
40 41 40 39 39 39 39 36 36 39 41 43 42 35 44 44 43 37 30 32 31 30 31 28 27 26 26 26 26 26 28 30 30 30 30 29 27 27 30 29 25 29 28 30 24 23 18
38 41 41 39 39 38 39 37 37 40 43 44 39 31 44 42 34 35 32 36 31 31 36 31 29 27 27 27 27 28 27 27 31 31 29 30 29 25 26 26 26 25 26 25 25 20 24
40 38 41 40 38 39 38 38 38 41 44 44 35 34 44 44 31 31 35 36 33 35 35 32 31 30 29 28 27 27 28 31 31 32 29 31 28 24 27 27 26 24 25 25 28 30 26
37 38 39 39 38 37 38 38 39 41 44 45 37 31 37 40 38 30 34 33 34 37 35 34 33 30 29 28 30 28 29 32 31 31 33 32 28 27 21 21 26 30 29 29 31 27 24
37 38 38 38 39 37 39 38 39 41 44 41 38 35 37 32 34 32 36 33 32 30 34 35 32 31 29 28 29 29 30 31 32 32 32 30 30 29 29 29 29 30 29 30 31 32 28
37 38 39 37 38 38 38 39 39 41 43 40 35 35 37 32 32 29 31 33 32 32 31 31 30 32 32 29 30 29 31 30 30 32 31 34 31 32 29 30 30 30 32 34 35 34 33
38 37 37 37 39 38 38 39 40 40 42 39 39 40 38 33 31 28 28 30 31 32 36 34 33 32 32 33 35 36 35 35 33 33 32 33 32 30 26 28 30 29 34 35 36 36 35
36 36 35 35 36 37 38 38 39 38 42 41 41 40 38 32 30 28 30 30 29 31 34 35 36 33 40 41 40 38 38 38 36 37 34 34 33 32 28 30 25 35 34 37 37 35 31
37 36 35 37 37 38 37 38 39 37 41 41 43 41 38 32 31 31 30 31 33 32 34 35 37 39 40 39 34 30 32 35 35 36 37 35 34 30 27 27 26 32 33 34 35 34 32
38 36 36 35 35 35 37 37 36 37 39 41 43 43 40 36 30 31 31 32 33 32 34 35 41 43 40 36 33 27 23 28 28 33 36 37 36 33 30 26 24 30 31 35 35 32 33
38 36 36 35 35 34 34 34 35 36 37 40 41 43 39 37 38 33 31 32 33 32 35 38 40 40 42 36 33 27 25 31 26 27 30 31 32 30 30 28 26 28 32 37 30 29 34
38 37 36 36 35 35 34 34 35 35 35 37 39 43 38 36 39 39 34 36 38 37 34 39 38 39 39 34 32 32 32 31 30 28 29 28 28 28 28 26 25 32 32 31 34 35 34
37 37 37 36 36 35 35 34 34 34 36 36 36 40 41 37 40 45 43 43 41 39 38 39 39 38 39 36 36 36 34 32 31 28 32 29 29 29 28 28 31 33 34 35 36 35 34

GFSGBSN_sfc_30mbdewp_024.txt.gz
Dewpoint
42 42 42 45 43 43 42 42 42 42 42 42 41 40 40 39 41 44 47 52 54 56 54 53 53 54 51 48 49 53 54 56 57 56 51 44 41 39 36 33 32 32 33 32 32 33 34
43 44 46 45 43 43 43 44 45 44 43 42 42 41 40 41 42 44 46 49 52 56 56 53 53 53 48 43 48 46 45 48 51 54 52 47 41 40 38 35 33 34 35 35 34 33 35
46 44 44 43 44 44 44 46 46 45 44 43 42 42 40 41 41 42 45 47 50 53 55 53 54 50 42 42 41 45 46 45 49 53 50 48 48 44 43 39 39 38 38 38 37 36 36
47 44 43 46 45 45 44 44 46 46 44 43 43 42 41 40 41 42 45 47 49 50 56 53 54 47 41 42 42 40 42 45 48 51 52 52 49 46 43 41 38 37 37 35 32 34 35
43 46 42 41 40 42 44 44 45 44 41 42 43 43 41 41 43 43 46 47 48 48 54 53 50 46 38 43 40 41 39 43 47 49 53 51 48 44 42 38 34 34 30 30 30 33 32
47 41 41 43 43 42 43 43 42 42 42 42 42 43 41 42 43 44 45 46 47 48 55 52 47 42 40 40 39 38 38 42 45 45 48 49 45 40 39 37 30 29 30 30 28 31 32
42 42 42 41 41 41 42 42 42 42 42 42 42 42 41 42 43 43 44 43 43 46 49 43 42 37 37 41 41 39 39 43 42 43 39 42 38 34 35 36 35 31 29 28 28 28 27
42 41 42 42 42 42 42 42 42 41 41 41 42 42 42 43 42 43 44 40 40 46 40 46 41 39 40 41 38 38 39 41 40 39 37 36 34 34 33 31 30 30 29 29 29 27 27
41 39 44 44 43 42 41 41 41 41 41 41 42 41 42 43 43 42 41 39 46 44 40 42 40 39 39 40 38 37 38 38 38 36 36 32 32 33 32 31 30 30 29 29 27 28 27
41 41 43 43 41 41 40 40 41 40 40 40 39 43 44 45 40 40 39 41 46 46 32 36 38 39 40 39 36 39 38 37 36 36 35 34 33 30 32 31 31 28 29 28 28 27 24
42 41 42 42 40 40 40 40 40 38 38 39 41 42 43 45 41 39 39 47 45 43 22 37 38 39 40 36 37 38 39 37 34 33 34 33 32 31 29 29 30 28 30 28 27 26 26
39 41 42 42 41 40 41 40 40 38 38 41 42 43 45 44 45 42 42 47 42 28 22 33 37 36 37 35 36 37 37 37 35 32 33 32 32 31 31 30 30 31 29 28 28 26 22
39 42 43 42 41 40 39 40 39 36 39 42 43 45 45 44 40 44 46 41 27 22 33 31 33 34 32 32 35 35 35 35 32 29 30 30 31 31 31 29 31 30 26 24 23 22 17
38 42 43 42 40 40 39 40 38 36 39 43 44 45 44 44 45 45 42 32 22 30 31 30 33 33 29 30 33 33 34 31 33 29 28 27 25 30 31 30 29 29 27 22 16 17 18
38 41 43 42 40 40 38 40 37 37 41 44 45 42 44 45 46 43 37 26 28 29 29 32 32 31 29 29 32 32 32 31 29 30 27 26 26 29 31 31 29 28 27 28 25 22 19
40 40 42 41 40 39 40 40 37 38 42 45 45 40 43 46 45 40 34 29 31 30 32 30 27 27 26 29 29 29 29 28 28 30 29 29 26 28 31 31 30 28 28 25 26 17 14
41 39 40 41 40 40 38 39 38 41 43 47 42 36 42 45 42 38 30 31 34 32 31 30 27 27 26 27 29 27 27 28 29 29 30 28 27 27 30 29 28 28 28 28 27 26 19
40 38 39 39 40 38 39 39 39 42 45 45 38 32 42 43 34 35 32 33 34 34 34 29 27 26 26 26 27 25 25 28 29 30 28 29 28 26 27 28 29 28 27 26 23 20 22
40 37 40 39 40 38 39 39 40 41 45 44 35 36 45 43 30 32 34 36 34 35 33 32 29 28 27 27 27 28 28 30 32 31 29 29 30 24 26 27 26 25 25 27 27 27 23
40 38 39 38 39 39 39 40 41 41 44 44 37 32 38 40 39 34 33 34 36 37 34 32 30 29 27 28 29 28 30 31 31 32 32 31 28 26 23 26 29 29 29 28 27 27 25
39 38 37 37 39 39 39 39 41 42 44 43 38 36 37 32 34 34 37 34 32 30 34 33 31 29 28 27 28 28 29 32 32 34 31 30 28 29 29 29 28 29 29 30 31 32 28
38 37 36 36 36 37 38 40 41 42 44 40 36 35 38 33 34 34 34 35 31 32 33 30 31 31 31 28 31 27 29 30 30 32 31 32 29 33 29 30 30 29 30 30 32 35 34
38 37 36 37 38 38 38 41 40 40 43 39 40 41 38 32 31 30 30 32 32 33 35 34 32 31 32 37 37 37 35 35 34 32 31 34 33 30 26 29 30 29 31 34 36 36 36
38 37 37 36 36 36 38 38 37 38 42 42 41 40 37 31 30 28 29 30 32 31 33 35 36 34 40 40 38 39 37 37 37 34 34 34 33 32 27 30 24 33 36 35 35 36 37
38 38 37 36 36 35 35 36 36 38 38 41 42 40 38 34 31 28 29 30 31 36 35 36 38 40 40 38 35 31 32 34 34 36 35 35 35 30 27 27 26 28 34 33 34 33 33
39 38 37 37 36 36 35 35 36 37 37 39 42 43 39 35 33 34 30 32 32 31 34 36 41 43 40 36 32 26 22 31 30 33 37 37 36 33 30 26 23 32 32 35 36 33 34
41 36 37 37 37 36 36 35 35 36 36 38 41 42 39 36 39 39 31 32 33 32 36 38 39 40 42 35 32 27 24 30 27 29 30 33 34 29 29 28 28 28 32 38 31 29 35
41 37 37 37 37 37 36 35 35 35 35 37 37 42 37 35 37 40 41 35 35 36 34 39 38 39 38 35 32 31 31 32 30 29 30 29 28 28 29 27 24 32 32 31 34 35 35
41 37 36 38 36 37 37 36 35 35 35 36 34 39 40 36 37 42 43 45 43 42 40 40 39 37 39 36 35 36 33 35 32 30 31 29 29 30 29 29 31 34 33 35 36 35 35

GFSGBSN_sfc_30mbdewp_027.txt.gz
Dewpoint
46 47 46 44 45 44 45 45 46 47 47 45 45 43 43 42 42 39 43 44 48 52 53 56 53 53 52 47 47 54 57 54 56 54 52 50 45 41 37 36 36 35 35 36 35 34 33
48 48 46 46 44 46 44 45 46 47 47 47 43 43 44 43 41 41 40 41 45 50 52 56 53 54 50 42 47 50 51 56 55 54 53 51 44 41 38 37 34 33 35 36 36 37 37
45 44 44 42 43 44 42 45 46 45 45 44 42 43 43 43 43 41 42 41 44 48 51 55 54 52 44 43 44 46 46 48 52 54 51 52 48 44 43 39 40 39 36 38 38 38 37
46 48 44 43 43 42 43 43 44 44 44 44 43 44 43 43 42 42 43 44 46 47 51 51 53 50 42 44 43 41 42 45 48 53 52 51 48 45 42 41 38 36 37 34 35 35 37
47 41 42 41 43 43 43 43 43 43 43 43 43 43 43 42 42 42 44 44 45 46 48 50 51 47 39 44 41 41 39 43 47 51 53 51 49 44 41 38 35 35 31 32 33 33 34
41 43 42 44 45 44 44 42 42 42 42 41 42 42 43 42 42 43 44 44 44 45 47 54 49 42 42 39 40 41 39 40 46 49 51 49 47 42 40 36 31 31 32 31 30 31 33
44 42 42 45 43 41 41 41 41 41 42 41 42 42 43 42 43 43 43 43 38 41 47 40 42 38 38 42 40 39 39 43 44 46 42 46 39 37 38 38 35 34 32 29 30 30 28
43 43 43 43 43 40 40 41 41 41 40 40 41 41 42 43 43 44 43 39 39 41 35 44 45 41 41 41 38 38 39 42 41 40 39 38 36 38 37 37 36 33 30 29 30 29 28
43 41 43 43 42 41 41 42 41 41 39 39 40 41 43 44 44 43 41 39 45 41 36 41 45 42 40 40 39 38 38 41 39 39 36 34 32 34 34 32 30 30 30 29 29 29 28
42 40 44 43 43 41 41 40 40 40 39 39 41 43 44 45 43 41 38 43 45 43 30 36 40 41 40 40 37 38 40 39 38 36 36 34 33 31 33 32 31 29 29 29 28 27 23
41 41 44 43 43 41 40 39 40 41 37 39 42 43 44 45 42 39 40 46 45 40 20 37 39 42 41 38 37 37 39 37 35 36 37 35 33 32 29 32 31 29 30 28 28 26 25
38 40 43 43 43 41 39 39 40 38 37 42 42 43 45 45 45 43 44 46 40 26 21 33 38 37 37 37 37 38 38 38 36 35 35 32 32 32 31 30 31 30 29 28 28 26 20
39 40 41 43 42 41 40 40 40 38 38 42 43 45 45 45 40 45 45 42 25 21 34 31 35 36 35 35 35 36 35 34 32 31 32 34 32 31 31 30 31 29 25 22 20 21 14
38 40 40 42 41 40 40 38 40 38 40 44 45 46 46 45 44 46 43 32 19 30 30 36 35 33 32 33 35 34 34 32 34 30 30 28 25 30 31 30 29 29 25 20 14 18 20
40 38 40 41 40 40 38 39 39 41 43 45 47 42 43 46 46 43 37 24 26 32 34 35 32 28 31 31 34 33 32 30 31 31 26 26 25 31 31 30 30 29 26 28 24 23 19
39 40 40 40 40 39 39 40 39 42 45 47 44 39 42 47 44 40 34 29 30 36 34 32 29 29 28 29 30 30 31 31 29 30 30 29 25 29 31 31 31 27 28 24 25 13 12
40 38 40 39 40 39 39 40 40 42 46 46 39 36 39 46 44 37 29 29 33 33 32 30 28 28 26 31 29 28 28 29 30 29 30 29 26 28 31 29 27 28 27 27 26 25 19
40 38 38 38 40 40 40 40 40 43 46 43 38 31 40 45 33 35 31 32 37 35 35 30 28 28 26 29 28 27 28 28 29 30 28 29 28 25 26 29 30 29 27 27 21 18 23
39 38 37 37 39 40 39 40 40 43 45 43 35 37 42 41 30 31 34 35 39 35 33 31 29 28 28 27 24 26 29 31 30 30 27 30 28 22 24 27 29 28 28 27 27 26 23
39 38 37 36 37 38 40 41 40 43 45 43 37 30 36 39 39 34 34 36 35 36 34 32 28 27 27 27 28 28 30 30 32 33 32 30 30 24 21 26 29 26 28 28 28 26 24
39 38 37 37 38 39 40 41 41 44 44 42 38 34 37 31 32 34 36 37 32 31 33 32 30 28 28 28 26 26 31 31 32 33 31 31 26 28 28 29 29 28 28 29 28 29 28
40 39 37 37 36 36 38 38 40 43 43 40 36 35 36 36 32 34 34 34 32 34 33 31 32 33 34 32 31 28 30 31 30 32 31 32 27 32 28 29 30 29 30 29 30 30 31
41 38 37 37 36 36 36 37 38 40 42 39 40 41 38 34 32 31 32 32 32 34 34 35 34 34 35 37 38 37 35 34 32 31 31 31 30 30 25 29 30 28 30 30 33 36 36
41 38 38 37 37 36 36 36 37 38 39 42 41 40 37 32 31 30 30 31 32 34 34 36 36 36 39 40 38 39 37 36 34 32 34 34 33 32 27 30 21 31 35 34 34 34 36
39 39 37 37 37 37 36 36 36 37 38 39 42 39 37 32 35 30 30 31 36 36 36 37 39 40 41 38 35 34 34 34 35 35 34 36 35 30 27 27 26 28 35 34 33 33 35
38 42 35 38 37 37 37 36 36 36 37 38 42 42 38 34 33 38 34 33 31 33 34 38 42 43 40 37 32 26 23 29 31 33 37 36 37 33 30 25 22 28 32 34 37 31 35
38 42 38 37 38 38 37 36 36 35 36 37 40 40 39 35 38 38 36 34 33 33 35 38 39 39 41 35 31 27 24 30 28 30 31 33 33 30 29 28 28 29 31 38 30 28 35
38 41 38 36 36 38 37 37 36 35 35 35 36 40 35 34 36 38 39 41 39 35 34 38 36 38 37 33 33 30 28 32 31 31 31 30 29 29 31 28 23 29 33 32 32 35 36
37 40 38 36 36 37 36 34 35 35 35 34 33 37 40 35 35 39 39 40 42 42 40 40 39 38 38 35 34 34 32 33 32 28 33 30 30 30 29 27 28 33 34 35 36 35 35

GFSGBSN_sfc_30mbdewp_033.txt.gz
Dewpoint
44 49 45 45 44 44 47 47 46 45 45 44 44 45 45 44 44 45 45 45 44 42 42 42 45 50 54 45 42 47 54 56 55 55 52 50 46 43 39 40 39 37 37 38 38 37 37
47 44 45 43 43 47 46 45 43 42 42 42 43 44 44 44 44 44 44 44 43 43 42 42 45 51 50 38 44 45 54 55 55 54 51 49 46 44 40 38 38 37 37 37 36 36 36
47 44 44 44 45 46 44 44 41 42 41 41 42 43 43 43 43 43 43 43 43 43 43 43 47 50 46 40 44 47 55 54 54 53 51 50 48 43 41 38 38 37 34 37 37 37 36
45 45 42 44 45 45 43 43 43 43 43 41 42 43 43 43 43 43 43 43 43 43 44 44 47 49 43 45 43 41 52 54 55 55 52 53 51 46 42 41 39 37 36 33 34 36 36
44 45 44 41 46 45 43 43 43 41 42 41 41 42 42 42 43 44 44 44 44 44 44 45 44 46 40 47 42 40 43 47 51 54 52 51 49 44 41 37 35 34 32 33 33 34 34
45 44 43 41 46 45 44 43 43 42 42 42 42 39 41 43 44 44 44 44 44 44 44 44 44 43 44 39 41 41 40 47 49 51 50 48 46 41 39 36 28 31 32 31 30 31 33
45 43 42 42 45 45 44 43 42 40 42 44 39 39 42 44 45 46 44 41 33 37 41 35 40 38 40 43 42 42 39 43 49 47 43 44 41 37 37 37 34 33 32 31 31 31 29
44 42 42 42 44 43 43 42 42 42 41 41 38 41 43 44 44 45 43 37 37 38 31 36 43 43 43 41 38 41 41 42 44 41 44 42 38 40 40 38 37 36 34 33 31 31 29
44 40 42 42 43 42 43 42 41 39 42 40 39 40 42 44 45 44 40 37 41 42 34 33 40 44 41 39 38 39 40 43 42 40 39 37 39 42 40 40 38 33 31 30 29 29 28
41 41 41 41 43 42 42 38 39 42 39 40 42 43 44 45 44 42 38 41 44 41 28 33 38 42 41 39 37 40 41 41 40 38 38 37 39 40 39 38 32 29 29 30 28 27 25
40 41 41 41 41 41 38 39 40 41 42 45 45 45 46 46 43 40 40 45 43 39 19 34 39 46 41 37 37 38 42 39 37 37 37 34 33 37 36 34 31 30 29 28 27 25 24
40 41 40 42 38 41 40 41 42 44 46 47 47 46 46 43 44 44 45 44 40 26 20 31 39 39 36 36 37 40 39 39 40 36 34 33 33 32 31 32 31 30 28 27 28 25 17
40 41 39 38 40 41 40 41 43 45 46 46 45 47 45 45 40 46 45 40 25 20 33 30 34 36 34 35 37 37 35 35 35 32 32 33 32 31 32 29 30 28 26 18 12 13 11
41 40 39 38 40 39 39 43 42 45 46 46 45 46 46 46 46 45 40 31 21 29 31 37 35 34 33 35 35 36 34 32 33 34 33 29 27 30 30 30 29 27 26 18 3 9 17
41 40 38 37 38 39 41 41 43 45 47 47 44 42 43 45 45 43 37 24 25 29 36 34 32 31 31 35 36 36 33 32 32 30 27 26 25 31 30 31 30 29 25 26 22 22 19
41 40 38 38 40 40 41 40 43 44 46 46 39 39 39 44 46 40 31 29 32 35 33 31 29 31 29 33 32 33 30 31 30 32 30 27 25 30 31 30 30 28 29 23 23 12 8
41 40 39 38 38 38 38 40 42 44 46 44 37 32 37 44 44 35 27 30 35 36 36 30 30 28 29 28 30 29 29 29 30 30 30 29 26 29 30 28 28 27 27 26 24 19 12
41 40 39 39 38 38 39 40 41 43 46 40 36 26 37 42 33 33 31 33 36 37 37 30 28 29 28 29 27 25 27 28 31 30 28 29 28 27 27 30 30 29 27 26 19 17 23
42 40 39 39 38 38 38 39 41 43 46 40 33 34 39 39 31 33 35 35 36 37 34 30 27 27 30 27 25 26 27 30 31 29 27 29 25 21 24 27 29 28 28 27 24 24 20
41 41 39 39 38 38 38 39 40 42 45 40 34 26 33 37 37 34 34 34 33 36 30 29 28 29 27 27 27 28 29 33 32 30 31 30 27 22 18 22 26 26 28 28 26 25 23
40 41 40 38 38 38 38 38 39 41 44 38 35 33 36 31 32 33 35 33 32 31 32 30 28 27 27 27 29 29 30 31 33 34 33 29 26 27 27 27 28 27 27 28 27 27 24
39 42 39 39 38 38 38 37 38 40 42 39 35 35 36 34 34 32 32 32 32 33 33 30 26 29 31 30 30 29 30 30 29 32 31 30 28 29 26 28 29 27 28 28 28 28 28
40 42 41 39 38 38 38 37 37 38 40 39 40 40 38 33 33 30 30 32 32 33 35 36 35 35 34 36 36 32 31 31 30 30 30 29 28 28 24 27 28 26 28 29 29 30 28
40 40 43 37 38 38 38 37 37 37 38 40 40 40 36 31 32 31 33 32 33 34 33 37 37 34 39 40 38 37 35 32 32 32 32 30 31 32 26 27 21 26 31 30 30 31 32
39 39 42 40 37 36 37 37 37 37 36 36 42 38 36 31 33 33 35 34 35 36 36 37 39 40 41 38 34 32 32 32 32 32 33 33 32 29 25 25 26 28 33 33 32 30 33
39 39 41 42 37 35 38 36 37 35 36 35 41 40 37 33 31 36 37 35 32 33 34 37 41 42 39 36 32 29 26 28 31 34 35 35 35 32 29 25 22 26 32 35 35 29 34
40 38 39 43 39 37 37 38 36 35 34 34 36 39 37 34 35 37 35 35 35 34 32 36 38 37 38 34 30 26 23 30 29 29 31 32 33 29 29 28 28 30 31 37 29 28 34
39 40 39 41 42 39 35 39 38 37 37 34 32 38 34 33 32 34 37 38 40 35 33 35 36 37 35 31 30 30 28 29 30 31 33 31 30 29 29 28 24 31 36 32 33 35 35
40 40 39 40 42 40 37 36 38 36 37 37 31 33 37 31 29 35 35 35 38 41 40 38 35 36 36 32 33 32 31 32 30 27 33 30 31 29 30 28 30 30 31 35 36 35 35

GFSGBSN_sfc_30mbdewp_036.txt.gz
Dewpoint
47 47 44 45 46 44 47 46 44 44 43 43 42 41 43 44 44 45 45 45 45 45 44 44 42 45 50 46 42 46 50 55 51 55 53 51 46 44 40 40 39 38 37 38 38 38 37
47 45 44 45 47 45 46 46 44 44 44 43 43 42 43 43 43 43 44 43 44 44 43 43 42 46 48 40 45 45 45 55 51 55 51 51 46 43 41 39 38 38 38 37 37 36 36
44 45 46 46 41 46 47 46 45 44 44 42 42 42 43 42 42 42 43 43 43 43 42 43 42 45 46 43 46 44 51 54 53 54 51 51 47 43 40 37 39 37 34 36 36 36 35
45 46 45 43 43 46 46 45 45 43 43 43 42 43 41 42 43 44 44 44 44 43 43 44 44 47 42 47 50 47 48 54 56 54 52 51 50 45 41 40 38 36 35 33 35 37 36
45 44 45 43 43 45 45 44 44 44 42 42 44 44 41 41 43 44 45 44 43 44 44 44 43 44 41 50 46 44 43 51 53 53 52 51 49 44 41 37 35 35 31 33 33 35 35
45 45 44 43 44 45 44 43 43 43 43 42 45 41 40 42 44 45 46 44 43 43 44 44 43 39 43 41 46 41 45 52 49 49 48 46 45 41 40 35 28 31 31 32 31 30 34
44 43 43 43 43 44 43 43 42 40 40 41 43 40 39 43 45 45 45 40 32 35 40 32 36 38 42 45 48 42 42 49 51 47 41 44 39 36 37 37 34 33 33 31 31 31 30
42 41 43 43 43 43 41 39 39 42 43 42 40 40 41 42 43 45 43 36 35 37 30 34 35 40 44 44 41 43 44 44 44 41 40 39 36 38 39 37 36 35 34 33 33 31 29
43 42 42 41 44 40 40 41 42 43 45 45 45 46 45 44 45 45 39 37 40 41 32 35 39 42 42 42 39 41 43 45 42 41 39 37 39 41 39 37 36 33 33 31 30 29 28
42 41 43 41 39 44 41 42 43 45 46 46 46 46 46 46 41 42 38 41 44 41 26 32 37 43 43 42 37 41 44 43 41 39 37 37 42 41 40 38 36 34 30 30 28 27 25
41 43 41 38 43 41 39 42 44 46 46 46 46 46 45 42 41 39 42 44 43 39 17 35 37 46 43 36 37 40 44 40 38 38 38 35 39 39 38 37 37 34 30 28 27 25 24
41 42 40 38 39 39 41 43 44 45 46 46 47 47 45 43 42 43 45 43 39 25 20 31 38 38 36 37 39 40 40 41 40 37 36 35 39 39 38 37 35 30 27 27 26 24 18
41 41 40 39 41 41 42 41 44 45 46 46 45 46 46 45 38 46 44 38 25 20 33 31 34 35 34 35 36 37 38 36 36 31 31 35 32 31 32 30 29 28 27 21 14 14 15
42 41 39 39 38 39 40 42 44 45 46 47 45 45 45 45 46 45 41 29 21 30 32 37 34 34 33 34 36 37 36 33 33 35 32 29 28 30 31 30 29 27 27 20 11 5 15
42 41 40 39 38 39 40 41 44 45 46 48 42 41 41 42 46 44 36 26 26 30 36 35 32 31 32 35 36 35 33 32 31 31 27 25 26 31 31 31 29 28 26 25 21 21 17
42 41 40 40 39 39 40 41 43 44 46 47 38 38 38 42 45 40 32 30 33 35 32 30 29 30 28 31 32 33 31 32 30 31 30 27 26 30 30 30 30 28 28 23 21 8 8
42 42 40 40 39 39 40 41 42 44 46 43 36 31 36 44 41 35 29 32 35 37 35 28 29 29 30 30 31 31 28 30 30 31 30 28 27 29 29 28 27 27 26 24 22 18 11
42 42 40 40 40 39 39 40 42 44 46 39 35 30 37 41 34 35 32 34 36 36 37 29 29 28 28 28 27 27 28 28 31 30 28 29 28 26 26 30 30 29 27 24 18 17 21
41 41 41 40 40 39 39 40 40 43 45 38 32 32 37 38 31 33 35 35 36 35 33 29 27 28 30 27 25 26 27 30 31 29 28 29 24 21 23 26 29 28 28 26 23 22 20
41 41 41 40 40 39 39 39 40 41 44 39 33 27 34 36 36 34 34 33 32 35 30 29 28 29 27 26 28 27 27 33 32 30 32 29 25 21 17 21 26 26 28 27 25 23 22
41 40 42 40 40 39 39 38 39 40 43 37 35 33 35 31 32 32 34 33 32 30 33 30 28 27 27 26 29 29 31 32 33 34 32 29 25 27 27 27 27 26 27 28 26 26 23
41 40 43 41 39 39 39 38 38 39 42 39 35 35 36 34 33 31 31 31 32 33 33 29 27 30 32 28 29 29 30 29 29 31 30 30 27 29 26 28 28 27 28 28 28 27 27
40 40 41 42 39 38 39 38 38 37 39 37 39 39 36 33 32 30 30 31 32 33 35 36 34 33 33 36 36 32 31 31 30 30 30 29 28 27 22 27 28 25 27 28 28 29 28
40 40 39 43 39 37 37 37 38 37 38 40 40 39 34 29 31 31 32 33 34 35 33 37 37 34 38 39 38 35 32 32 32 31 31 29 30 30 25 26 21 24 31 30 28 29 30
40 39 39 41 41 38 37 36 37 37 37 38 40 38 36 30 32 32 34 35 35 35 35 37 39 40 40 37 33 31 31 30 31 31 33 32 31 27 24 23 25 27 32 30 30 30 32
40 41 39 40 42 38 37 39 36 35 37 33 39 40 36 33 30 35 34 36 32 32 33 37 41 42 39 35 32 27 25 28 30 33 35 35 32 30 28 24 21 26 33 36 34 29 33
41 39 39 39 42 41 38 37 40 38 37 33 33 36 36 33 33 36 33 35 35 33 31 35 38 37 37 33 30 27 25 29 28 29 30 32 32 29 28 26 28 29 30 37 29 28 33
41 40 41 40 41 43 40 37 38 39 37 35 33 37 29 29 30 33 36 36 38 35 32 35 36 36 34 31 30 29 26 28 30 31 30 30 29 29 28 27 22 32 36 32 33 34 35
40 40 41 40 40 41 43 42 38 37 37 37 32 33 37 29 24 33 33 34 35 36 40 39 34 35 35 31 31 30 30 31 29 27 33 30 30 29 28 27 30 33 32 33 35 35 35

GFSGBSN_sfc_30mbdewp_042.txt.gz
Dewpoint
46 46 46 47 46 45 46 47 47 46 45 46 45 45 45 44 43 43 42 43 44 43 44 45 47 46 41 36 40 50 48 47 54 50 49 48 45 44 40 39 39 34 36 34 34 38 38
45 47 46 46 46 44 46 46 46 46 46 45 45 45 45 45 44 44 44 43 43 43 44 45 46 45 39 32 41 50 48 47 51 48 49 48 42 43 40 40 37 35 36 34 35 36 37
45 48 46 45 44 43 47 45 44 42 43 42 42 43 44 45 45 42 43 44 44 44 44 44 44 42 38 32 46 50 48 48 51 47 45 48 43 43 41 40 39 38 34 36 36 34 34
47 45 43 45 44 44 42 42 43 44 45 45 46 46 44 45 43 41 44 45 45 45 44 44 44 41 33 36 38 42 48 46 48 49 47 50 47 42 40 39 38 35 34 31 29 34 36
46 43 44 45 43 42 45 44 43 45 46 46 46 46 48 45 41 42 45 45 45 45 43 44 42 40 31 46 46 45 47 47 47 48 51 50 47 41 40 35 34 32 23 24 28 35 30
43 43 45 43 41 45 44 43 46 45 46 46 45 46 47 42 40 44 45 46 44 43 43 42 40 36 36 37 44 46 45 49 48 48 48 45 43 38 34 31 21 25 23 26 23 30 35
45 43 45 42 41 43 44 46 45 46 46 46 46 46 46 46 42 44 45 39 34 33 37 27 27 34 38 45 45 45 46 48 48 45 40 43 39 35 33 31 28 28 26 22 26 30 30
43 43 42 41 42 44 45 45 46 46 47 46 46 45 45 46 46 44 43 33 33 37 26 32 33 33 35 43 41 42 46 45 42 38 40 39 33 34 36 34 32 29 25 25 32 31 30
43 44 43 41 40 41 44 44 46 47 47 46 46 46 44 42 45 45 39 37 42 40 29 34 38 37 41 43 39 40 45 43 40 38 39 34 34 35 36 34 32 31 28 31 28 30 29
43 43 42 41 41 41 43 44 47 47 46 47 46 46 44 42 37 41 37 43 43 41 30 32 37 42 42 42 39 44 48 42 38 38 38 36 40 34 32 33 32 31 33 32 30 29 22
43 43 42 42 41 41 41 43 46 47 46 48 47 45 44 44 39 39 42 43 43 40 18 34 37 44 41 39 41 42 48 46 36 36 38 35 38 35 32 32 34 30 32 30 29 28 27
43 44 42 42 41 41 41 42 45 46 46 47 48 46 45 43 42 43 45 43 40 28 20 32 38 37 37 39 40 43 44 44 43 38 38 37 41 40 39 37 36 30 28 27 28 27 26
42 44 42 42 42 41 41 42 43 45 46 46 47 47 44 44 38 45 44 39 29 23 33 31 34 35 37 37 37 38 37 37 36 31 31 34 35 39 39 35 35 31 30 28 26 26 23
43 44 43 42 42 41 41 41 42 44 45 46 47 45 45 43 45 45 42 33 24 31 31 36 35 35 35 37 37 37 35 35 35 35 33 31 28 35 38 36 34 34 33 25 18 14 14
42 43 43 42 42 41 41 41 41 43 45 46 44 40 42 43 44 45 38 29 29 33 34 33 30 29 31 34 36 36 34 33 32 32 30 29 30 33 33 32 36 32 31 24 22 20 20
42 42 42 42 42 41 41 41 41 42 45 46 41 37 38 42 45 42 37 31 34 36 32 30 27 29 27 30 31 32 33 32 30 30 30 29 28 31 30 31 30 29 28 26 26 19 15
42 42 43 42 41 42 41 41 41 42 45 44 39 37 39 44 43 38 31 32 34 36 34 29 29 28 29 29 31 29 28 31 31 29 29 29 29 30 31 30 28 27 27 25 24 20 14
42 42 43 42 42 41 40 41 41 41 44 42 37 35 40 42 35 38 34 35 36 35 35 29 30 30 28 30 29 28 25 29 31 30 27 29 30 28 28 30 30 29 27 23 20 20 21
42 42 42 45 41 41 41 40 40 40 44 42 36 36 41 42 32 34 35 35 36 33 30 28 27 29 29 28 27 28 29 32 31 29 28 28 27 25 26 27 29 28 28 25 23 24 23
42 42 42 43 42 41 40 40 40 39 43 40 37 31 37 39 37 34 33 32 30 35 31 29 29 28 26 26 27 27 28 33 32 31 32 28 25 23 17 22 28 28 28 26 26 24 21
41 41 42 41 43 41 40 39 39 38 42 40 38 34 35 33 33 33 34 33 31 30 34 30 28 26 25 25 26 27 30 31 32 34 31 29 26 26 26 26 28 28 28 27 25 25 22
41 41 41 40 42 41 39 39 38 37 41 38 36 34 35 33 33 31 31 32 32 33 33 28 26 27 29 26 24 26 29 29 27 32 29 30 28 29 27 29 28 27 27 27 27 27 25
40 41 40 40 40 42 39 39 38 37 39 37 39 39 37 32 32 30 30 32 32 34 36 36 30 31 31 33 35 33 30 30 29 29 29 29 29 27 24 27 27 26 28 27 28 28 27
41 39 38 36 39 42 41 39 39 38 37 40 37 39 33 30 31 30 33 33 33 35 34 36 36 32 36 35 33 32 32 32 31 31 30 29 30 29 26 26 21 25 30 29 28 27 28
40 40 42 39 41 41 43 39 40 39 37 38 37 37 35 29 30 30 33 34 35 35 35 36 38 40 40 37 32 29 29 29 31 33 30 30 30 28 25 22 23 24 29 29 29 29 29
41 42 41 41 41 41 42 42 39 39 39 36 37 36 36 29 27 32 32 34 33 33 33 37 41 42 39 35 31 26 25 25 28 31 35 32 31 28 27 23 20 28 32 34 34 30 32
43 43 41 41 40 40 41 42 44 39 39 35 35 36 34 29 29 31 31 33 36 33 32 35 38 39 38 34 28 25 26 28 26 25 29 31 31 27 26 23 23 27 35 37 31 32 34
44 43 41 41 41 40 40 41 42 43 39 38 36 37 32 28 25 26 34 32 36 37 32 35 37 36 36 33 30 29 26 27 28 27 27 27 27 28 26 24 21 31 37 34 35 35 37
46 42 41 41 40 41 41 40 40 44 43 38 35 35 36 31 28 27 26 26 29 29 32 37 37 35 36 34 33 32 28 28 29 27 31 26 28 26 26 24 28 34 34 36 35 34 35

GFSGBSN_sfc_30mbdewp_045.txt.gz
Dewpoint
45 48 47 46 46 44 47 47 45 44 44 44 44 45 45 45 46 44 44 44 43 44 44 45 47 47 42 36 31 50 53 55 54 50 46 46 38 41 37 35 34 34 30 30 32 35 34
46 47 45 46 44 46 45 44 45 45 46 46 46 46 46 45 45 45 44 44 44 44 44 44 45 46 40 35 32 48 49 48 53 50 42 44 38 41 38 35 33 35 33 32 31 35 36
46 44 45 45 45 44 46 46 45 45 47 47 46 45 46 45 45 45 42 43 45 45 44 44 44 41 38 34 36 49 50 47 48 51 41 43 38 41 40 36 36 36 31 33 31 33 33
45 45 45 44 42 44 45 44 46 47 47 47 46 46 46 47 46 44 41 45 45 45 45 44 44 39 34 35 35 43 49 45 50 51 41 45 44 39 39 38 37 34 33 30 30 33 33
45 45 44 44 43 44 45 47 46 47 47 46 46 45 46 47 45 41 44 45 45 45 45 44 41 37 31 36 35 36 46 44 47 50 43 47 47 40 39 34 33 31 26 26 26 31 32
46 45 44 43 43 45 45 45 46 47 47 46 46 45 46 46 41 43 45 45 44 44 42 40 38 34 32 34 40 42 48 47 45 44 44 47 46 39 34 30 24 24 25 20 22 30 30
45 45 44 43 42 43 44 45 46 47 47 46 46 45 46 46 42 45 44 38 37 33 34 27 27 31 35 39 45 45 46 47 45 43 39 43 39 34 31 27 23 19 23 19 20 30 30
44 44 44 43 42 43 44 45 46 47 46 46 47 44 45 46 45 45 42 33 35 38 26 28 30 31 33 36 40 44 44 42 43 37 36 40 36 34 32 28 24 26 22 21 25 28 29
45 44 44 43 42 42 43 44 46 47 47 47 48 45 43 45 46 43 37 37 40 40 34 31 36 37 40 43 37 43 43 43 40 35 37 34 36 36 33 29 27 25 24 21 24 30 29
44 45 44 43 43 42 42 43 45 46 47 47 48 46 44 44 39 39 36 41 41 41 31 32 37 40 43 42 39 45 46 43 39 35 37 37 35 38 34 31 26 23 29 28 30 27 16
44 44 44 43 43 42 42 42 43 46 46 47 47 48 45 44 38 37 40 43 42 41 20 33 35 44 44 40 41 44 48 44 37 38 38 36 38 34 32 31 28 28 33 31 30 29 27
44 45 44 43 43 43 42 42 43 43 46 46 46 47 47 43 41 41 44 42 40 29 21 33 38 37 36 38 41 43 43 45 42 38 37 37 40 39 35 33 30 32 30 30 29 29 25
44 44 44 44 43 43 43 42 42 43 44 46 46 47 46 43 39 43 43 39 31 24 33 32 35 38 37 36 38 39 38 38 34 30 31 34 34 39 38 33 33 31 28 25 25 27 21
44 44 43 43 43 43 43 43 42 42 43 46 47 46 44 42 44 44 42 35 24 31 32 36 36 36 35 38 37 37 36 36 38 37 33 30 27 33 37 36 33 32 29 26 17 19 20
43 43 44 43 43 43 43 43 42 42 44 46 46 40 42 42 44 44 40 29 29 33 32 31 30 30 31 35 36 34 32 31 33 34 32 31 29 36 37 37 36 34 33 26 21 18 17
43 43 44 44 43 43 43 43 42 42 44 46 40 37 40 42 45 43 37 32 34 35 31 29 26 28 26 30 30 30 31 31 31 30 30 30 29 34 35 38 36 36 32 28 29 21 14
43 43 43 45 43 43 42 42 42 42 44 46 40 37 41 44 45 39 33 33 32 33 32 29 27 26 27 28 30 28 28 31 30 28 29 30 29 31 30 30 30 31 30 26 27 23 19
43 43 42 44 44 43 42 42 41 41 44 43 40 40 42 44 38 36 33 35 36 33 32 29 30 29 26 28 28 26 26 29 31 29 27 29 30 28 29 30 30 29 27 25 23 23 20
42 42 42 43 44 43 42 41 40 40 42 42 36 38 43 43 34 33 34 33 34 31 29 27 27 29 29 27 26 27 27 32 31 29 27 28 28 26 26 28 29 28 28 27 24 25 26
42 42 42 42 43 43 41 41 40 39 40 42 37 37 37 37 38 33 30 29 30 35 30 28 27 28 27 25 26 27 28 32 32 31 31 28 26 27 21 25 27 28 27 27 26 26 23
42 41 42 41 41 42 41 40 39 38 40 42 38 37 36 36 33 33 34 31 29 28 32 29 27 26 24 24 24 25 28 30 31 32 30 29 29 27 25 26 29 29 28 27 27 27 24
41 41 41 39 39 42 42 40 39 38 39 38 35 34 36 33 33 32 32 31 31 31 31 27 25 25 24 23 22 23 26 27 26 31 29 30 28 30 27 28 27 27 27 26 27 27 25
41 41 40 38 40 42 43 40 40 39 37 35 35 39 37 33 31 29 28 31 31 34 34 33 27 27 27 30 31 32 27 27 27 26 27 27 31 28 24 26 27 25 27 26 26 27 26
41 40 42 41 41 41 43 40 40 40 36 34 35 38 33 30 31 29 32 33 32 34 32 31 34 29 33 34 33 31 30 29 30 29 28 27 29 29 26 27 21 26 29 28 26 27 28
41 40 43 41 41 41 42 43 41 40 39 33 32 35 32 28 28 29 31 33 34 34 35 33 36 39 36 35 29 27 27 28 29 30 29 28 27 27 24 22 22 21 27 29 28 29 28
43 42 43 41 41 41 41 42 43 40 40 34 35 34 34 28 24 31 31 33 33 31 32 35 41 41 39 36 29 23 23 23 25 29 33 30 28 27 26 21 20 28 31 31 32 30 31
43 43 42 41 41 41 40 41 41 42 40 37 35 36 31 25 20 27 28 31 35 35 32 35 38 39 39 31 28 24 22 26 24 24 28 28 27 26 25 22 23 24 34 35 30 32 34
44 45 42 41 41 41 41 41 41 41 42 40 36 37 32 28 26 24 27 25 26 36 33 36 36 36 37 31 28 27 24 26 25 25 26 25 24 24 24 25 20 28 36 33 35 37 39
45 46 42 41 41 40 42 42 42 40 41 40 36 36 37 34 27 30 27 24 25 29 32 36 37 35 35 32 30 29 26 26 24 22 28 25 25 25 25 24 28 30 32 36 36 36 36

GFSGBSN_sfc_30mbdewp_048.txt.gz
Dewpoint
47 47 45 46 47 44 46 48 45 46 47 47 48 47 46 47 46 45 46 45 45 43 44 44 46 46 45 39 37 41 45 51 55 53 47 47 37 43 39 39 36 36 33 31 31 35 34
47 46 45 47 44 45 46 45 47 48 47 48 46 46 45 46 47 45 45 45 44 45 45 45 44 45 42 36 35 38 49 52 53 53 44 47 35 41 38 35 36 34 34 34 29 35 35
47 47 45 44 44 46 45 46 46 47 48 47 46 46 45 46 47 46 45 42 44 45 45 45 44 42 38 35 38 50 50 49 54 51 43 45 41 37 40 37 35 35 33 35 32 33 35
46 45 46 44 45 45 46 46 46 47 47 47 46 45 45 47 46 46 43 44 45 45 45 45 44 40 34 36 38 37 51 46 47 52 45 43 44 37 39 39 35 34 34 31 32 33 34
46 45 45 44 44 44 45 45 46 48 48 48 46 45 46 46 45 42 43 45 45 45 45 45 41 39 31 36 33 35 47 45 48 51 50 44 46 42 41 37 34 33 29 30 30 32 32
46 46 45 44 43 43 45 45 46 47 47 48 47 44 47 46 41 44 45 44 44 44 43 41 37 34 33 33 31 31 44 46 47 48 46 43 43 40 38 35 30 29 28 27 28 30 32
46 46 45 44 44 43 44 45 46 47 48 48 48 45 46 45 42 45 44 42 37 34 34 35 32 30 35 37 36 35 47 46 48 46 39 42 37 35 36 33 30 27 26 24 26 30 30
46 46 45 44 44 43 43 44 44 46 47 47 47 47 44 46 45 45 43 33 36 38 30 28 28 29 31 34 40 44 46 42 44 39 37 39 35 35 36 32 28 25 22 23 24 30 29
46 45 45 44 44 44 43 43 43 45 46 46 46 48 45 45 45 42 37 37 41 40 33 32 37 38 39 42 39 44 42 43 41 36 36 34 33 35 33 31 27 24 24 21 23 29 29
45 45 45 45 44 44 43 43 43 43 44 46 46 47 48 45 42 39 37 40 41 41 30 33 36 39 42 43 41 45 44 43 39 34 34 34 37 36 34 31 29 24 25 24 26 28 24
45 45 45 45 45 44 44 43 43 43 43 44 46 47 48 48 41 37 40 42 42 42 21 33 37 43 44 42 41 41 47 41 37 35 38 37 36 37 37 34 29 27 31 31 30 29 28
45 45 44 45 44 45 45 44 44 43 43 44 45 46 47 46 44 39 43 42 41 29 21 33 39 36 38 39 41 42 44 43 42 38 37 37 41 39 37 39 34 33 31 31 30 29 25
45 44 44 45 45 44 44 45 44 43 43 44 46 47 47 43 41 43 43 41 30 24 35 33 34 37 37 38 38 37 36 36 33 31 31 34 34 39 40 38 37 32 29 26 24 25 21
44 44 44 45 45 44 44 44 44 44 43 45 47 47 45 42 44 44 42 36 25 31 32 36 36 35 35 36 37 37 35 34 39 36 32 30 27 35 37 36 34 31 27 24 17 21 22
44 44 44 44 45 44 44 44 43 44 44 46 47 44 42 45 45 44 40 29 29 32 33 33 33 30 33 35 34 35 37 36 37 39 32 30 29 36 37 38 36 33 31 27 24 17 19
44 44 44 44 45 44 44 43 43 43 43 46 42 40 40 43 45 43 38 31 33 35 31 29 27 29 29 31 32 31 30 31 31 34 32 33 28 35 37 39 37 36 35 28 28 20 14
43 43 44 44 44 44 43 43 42 42 42 45 44 38 42 45 45 42 33 33 31 32 32 29 27 26 28 28 29 26 28 31 30 28 29 30 30 32 35 33 32 34 31 28 27 25 22
43 43 43 43 43 44 43 42 41 41 41 42 43 38 43 46 39 40 34 36 34 32 31 29 30 28 27 28 28 26 27 30 30 29 27 30 30 29 29 30 33 36 33 30 26 25 21
43 42 43 43 42 42 42 42 41 40 39 42 38 37 44 43 34 34 33 32 34 31 28 27 27 29 29 27 26 27 28 32 31 30 28 29 30 26 26 28 29 29 29 33 26 26 25
42 41 42 42 40 41 43 42 41 40 40 43 38 37 41 41 37 35 30 29 30 34 31 28 27 28 27 26 26 27 29 31 32 31 29 28 27 27 22 25 29 27 28 28 28 24 24
42 41 42 40 40 42 44 41 41 41 41 42 37 36 36 34 34 33 33 31 28 29 33 29 27 26 25 24 24 25 29 31 31 31 30 30 28 25 26 26 30 30 28 28 27 27 24
41 41 41 41 41 42 44 41 41 40 40 36 34 34 35 35 33 32 32 31 30 31 31 27 26 25 24 23 23 23 27 28 28 31 29 31 28 30 24 27 27 26 27 27 28 28 27
41 41 42 42 42 41 43 43 41 40 38 33 34 36 36 33 31 30 31 31 31 33 33 33 30 26 25 32 32 32 28 27 27 29 28 29 30 27 24 27 27 23 27 27 27 28 28
41 41 43 42 42 41 42 43 43 41 39 32 32 36 34 30 30 30 32 32 33 34 34 31 34 31 33 34 33 30 29 28 28 27 28 27 29 29 26 26 17 23 29 29 27 27 28
41 41 43 42 41 41 41 41 43 42 39 35 34 32 31 24 22 27 31 33 34 34 34 35 37 38 35 34 27 27 27 27 27 29 29 27 29 27 23 23 23 22 29 28 27 27 27
42 43 43 42 41 41 41 41 41 42 41 37 36 36 31 27 21 21 27 31 32 33 33 35 40 41 39 36 30 24 24 22 26 29 32 29 28 26 25 20 20 30 30 31 31 30 31
43 44 44 42 42 41 42 42 41 42 42 40 37 37 33 26 22 23 26 30 33 35 34 35 38 39 39 33 28 25 22 25 23 23 28 29 28 27 27 23 22 30 33 33 30 31 33
43 44 45 42 42 41 41 42 42 41 42 43 38 37 34 29 29 27 23 23 24 27 34 37 36 37 37 32 29 29 23 25 24 24 27 26 25 24 25 25 21 34 35 34 36 39 37
44 45 46 42 42 41 42 42 42 42 41 40 37 37 37 34 31 33 32 30 27 25 28 33 36 36 38 34 32 28 27 26 25 22 26 25 26 24 24 25 29 32 33 36 36 36 38

GFSGBSN_sfc_30mbdewp_051.txt.gz
Dewpoint
47 47 46 45 45 46 47 47 47 47 48 48 47 46 46 45 46 47 46 46 45 45 44 45 45 46 44 38 38 41 42 45 50 53 49 48 43 47 41 42 41 40 36 38 38 41 40
47 47 46 45 44 46 46 46 47 48 49 48 47 45 46 46 47 46 45 45 44 45 45 45 45 45 41 35 39 46 43 47 52 52 49 49 36 46 42 40 38 38 38 37 37 36 35
47 46 46 45 44 45 46 48 47 47 48 48 47 45 47 47 47 46 45 43 44 45 45 45 45 42 39 36 39 40 49 50 52 50 48 47 44 43 39 37 38 37 35 37 37 35 35
47 46 46 45 44 44 46 46 47 48 48 47 48 45 47 45 45 45 43 45 45 45 46 45 45 42 35 37 38 38 46 47 52 53 49 46 47 41 40 39 36 33 35 33 35 35 34
47 46 46 45 45 43 45 47 47 47 48 48 48 44 46 43 42 42 45 44 45 44 45 46 43 40 33 38 36 36 43 42 49 52 53 46 45 42 39 36 34 34 32 32 31 33 34
47 46 46 45 45 44 43 44 46 47 47 47 47 46 46 44 42 45 44 44 44 45 43 42 40 35 35 35 36 41 46 44 47 49 48 43 42 39 38 35 28 31 31 31 30 31 32
47 46 46 45 45 44 44 43 43 45 46 48 46 48 45 46 44 45 44 43 35 34 36 34 34 32 33 35 39 40 43 45 48 48 39 41 37 35 37 36 33 31 30 27 30 30 31
47 46 45 46 45 45 44 44 44 43 44 46 47 47 47 45 45 44 43 35 38 38 33 34 35 30 31 33 38 40 46 45 44 38 40 39 34 36 38 34 33 30 28 27 26 30 31
47 46 46 46 45 45 45 44 44 44 44 44 46 46 48 46 45 44 38 38 41 41 34 34 38 38 39 40 38 37 47 44 40 39 37 34 34 35 36 33 31 30 25 25 25 29 29
46 46 46 46 46 45 45 45 45 44 44 43 45 47 47 48 41 40 38 41 42 42 30 32 36 41 41 43 38 46 45 43 40 36 35 33 36 35 34 33 31 28 26 24 29 28 24
46 46 46 46 46 46 46 45 45 45 45 44 44 47 46 48 43 39 40 42 42 41 18 35 36 44 43 39 39 40 46 43 37 36 37 35 36 35 35 34 33 29 29 29 30 28 28
46 45 46 46 46 46 45 45 45 45 45 44 44 47 46 47 45 41 43 43 41 26 19 33 37 36 38 41 40 42 41 43 41 37 37 37 40 39 38 40 38 33 31 31 30 29 22
45 45 45 46 46 46 45 45 45 44 45 45 46 47 47 45 42 44 43 41 28 22 34 30 34 38 37 37 36 36 37 37 35 30 32 35 35 39 40 37 38 34 27 26 23 24 19
44 45 45 45 45 45 45 44 44 44 44 44 47 48 45 44 45 44 42 34 23 31 31 36 36 35 33 36 36 37 35 34 37 35 32 29 28 36 38 36 35 34 27 22 14 19 20
44 45 45 45 45 46 45 44 43 44 45 44 47 45 43 44 44 44 39 26 25 31 34 34 34 31 33 34 35 34 33 35 37 38 30 30 29 36 37 39 38 35 31 27 25 21 20
44 44 45 45 44 43 43 43 43 42 43 43 44 41 42 46 45 43 35 29 31 36 32 30 29 30 31 32 32 35 35 36 37 38 39 35 28 35 37 38 37 36 35 28 28 20 14
44 44 44 44 44 43 43 43 43 42 42 44 44 38 42 45 45 41 29 31 34 33 32 29 28 27 29 30 32 30 30 31 32 34 35 34 30 32 36 33 34 34 33 29 28 27 22
44 43 43 43 42 41 43 43 42 41 42 41 40 37 43 46 39 39 32 34 34 32 32 30 30 28 28 29 26 26 29 30 30 29 29 31 31 29 30 36 37 36 33 30 27 25 21
43 42 42 41 41 42 44 42 42 40 42 40 37 37 44 44 33 32 34 33 35 32 29 27 28 29 29 27 26 27 30 32 31 31 28 31 29 26 27 29 34 33 35 35 33 27 23
42 42 42 41 42 43 44 43 42 40 42 42 39 34 40 42 38 35 31 31 32 33 32 28 27 28 28 26 26 27 30 31 31 31 29 29 29 25 20 23 29 27 31 35 34 24 23
42 42 42 42 42 42 44 43 43 42 43 41 36 35 35 32 33 33 32 31 29 31 32 29 27 27 27 24 24 27 31 32 31 30 30 30 25 24 26 29 29 29 28 31 32 29 24
41 42 43 42 42 42 42 43 43 42 40 34 32 33 34 34 34 32 32 32 30 31 31 29 27 27 25 25 25 25 29 29 29 31 29 31 27 28 23 27 26 26 27 28 29 28 27
41 41 43 42 42 42 42 42 43 41 39 32 33 34 34 32 33 30 31 33 33 33 33 32 32 29 25 33 32 31 29 28 28 29 29 29 29 25 23 27 26 22 26 26 27 29 28
41 41 43 42 42 42 42 42 42 42 40 33 32 34 32 29 25 27 31 32 33 34 34 33 36 32 32 34 33 30 29 29 28 29 29 30 27 27 24 25 16 18 29 28 26 25 29
41 42 43 42 42 42 42 42 41 42 41 35 35 33 30 22 24 22 24 31 32 34 34 35 38 39 38 35 28 27 27 27 27 29 28 29 26 24 22 21 20 22 29 28 27 26 28
42 43 43 42 42 41 42 42 43 42 42 38 36 36 31 26 22 24 23 27 32 33 34 37 41 41 39 36 31 25 23 21 24 26 31 30 28 24 26 18 17 27 30 30 32 27 32
43 43 44 43 42 41 42 43 43 42 42 42 38 36 33 27 26 27 23 27 30 32 33 37 38 38 39 33 27 25 20 25 24 24 25 28 28 26 25 25 23 24 31 33 29 27 33
43 44 45 43 42 41 42 42 43 42 42 40 38 37 32 29 29 29 27 23 23 26 31 35 35 36 36 32 30 28 22 23 25 24 27 26 23 24 26 24 20 32 35 32 34 37 36
44 45 46 43 42 42 42 43 42 41 41 41 37 38 38 33 30 33 32 32 31 25 25 30 34 36 38 35 33 31 26 26 25 23 28 24 25 24 24 24 27 35 35 37 38 38 38

GFSGBSN_sfc_30mbdewp_054.txt.gz
Dewpoint
48 47 47 46 45 47 47 47 47 47 49 48 48 44 47 47 47 46 46 46 45 45 45 45 45 46 43 38 38 41 44 46 47 53 51 46 45 44 43 43 45 40 41 42 43 46 45
48 47 47 46 45 45 47 48 47 48 48 48 48 45 46 47 46 45 45 45 44 45 45 45 45 45 42 35 38 44 41 44 46 51 49 48 44 46 42 42 43 42 39 40 42 44 43
48 47 47 46 46 44 47 48 47 48 48 48 48 46 46 45 45 45 44 43 45 45 45 45 45 42 40 36 40 44 41 46 48 52 48 50 44 45 41 40 40 39 39 37 37 37 38
48 47 46 46 45 45 44 46 47 48 48 48 47 45 46 44 42 43 44 45 45 45 46 46 45 42 36 38 41 40 41 49 52 52 49 50 45 44 40 39 38 35 36 33 35 36 35
48 47 47 46 46 45 45 44 44 46 48 48 47 48 46 45 43 45 44 45 44 45 45 46 42 40 32 38 36 38 43 46 50 52 49 49 46 42 40 35 34 34 31 32 33 35 34
48 47 45 46 46 45 45 44 44 43 45 47 46 47 46 47 45 45 45 46 44 45 43 43 41 35 35 34 37 43 46 46 48 48 47 45 43 39 37 34 28 30 31 32 31 33 34
48 47 47 47 46 47 46 45 45 44 44 44 46 47 48 45 46 45 44 38 33 32 36 32 31 33 31 35 37 43 46 46 48 46 41 41 37 35 35 34 32 32 30 31 31 32 32
47 47 47 47 46 45 45 45 45 45 44 44 45 46 47 48 45 46 43 36 38 38 31 35 36 35 36 32 37 41 46 44 42 37 40 39 34 37 37 36 32 31 30 29 29 30 31
47 47 47 47 46 46 46 46 46 45 46 45 44 46 45 47 47 41 38 37 41 41 34 35 38 39 40 41 38 40 45 44 38 39 37 34 35 38 37 35 33 30 28 28 25 29 30
47 47 47 46 46 46 46 46 46 46 45 46 45 44 46 47 43 40 38 41 42 42 29 33 36 38 42 42 37 46 48 44 40 38 37 35 36 36 36 34 32 29 28 26 26 28 26
47 46 46 46 46 46 46 46 46 45 45 45 44 45 46 47 42 39 39 42 42 39 12 34 37 45 40 39 39 41 47 42 38 38 37 36 35 34 34 34 32 30 29 27 29 28 28
46 46 46 45 45 46 46 46 45 45 45 45 44 46 46 46 46 42 42 43 41 21 15 32 38 35 35 38 40 41 41 43 42 37 37 37 40 39 38 39 36 33 31 30 30 28 24
45 46 46 46 45 45 46 45 44 44 44 43 44 47 46 46 42 43 43 40 24 22 31 28 35 38 36 35 36 36 37 36 35 31 31 36 36 39 40 36 37 33 27 26 23 23 21
45 45 46 45 44 44 43 44 44 44 43 44 45 48 45 45 45 44 42 31 22 29 28 34 37 35 33 36 36 35 35 33 36 33 30 28 27 36 38 36 35 34 31 23 17 19 20
44 45 45 45 44 44 43 44 44 43 43 45 46 43 43 44 45 44 36 22 25 30 34 34 34 33 33 35 35 35 34 33 36 36 28 28 29 36 38 39 37 35 32 29 25 22 20
44 45 45 44 44 43 43 44 43 43 43 44 42 41 41 46 45 43 32 27 29 35 33 31 30 31 31 32 33 35 34 36 36 38 35 33 27 36 37 38 38 37 35 28 27 21 15
44 44 44 44 43 43 44 44 44 42 43 44 42 38 42 45 44 40 29 30 33 36 32 29 28 28 30 31 32 33 33 35 37 37 38 34 29 32 36 34 33 34 33 32 28 26 21
44 43 43 42 43 43 44 44 44 41 43 41 38 37 43 45 38 39 31 33 34 32 32 30 30 28 28 29 27 27 29 30 32 34 31 34 31 27 31 35 37 36 34 31 27 25 22
43 43 43 42 43 43 44 44 44 41 43 41 37 37 45 44 33 30 33 33 35 32 30 28 28 29 29 27 26 29 30 32 31 30 30 32 29 26 27 31 36 35 36 34 33 28 24
43 43 43 43 43 43 43 44 43 41 43 41 37 34 40 42 39 35 31 31 30 34 32 28 28 28 28 26 26 28 29 31 32 30 30 31 29 24 20 22 29 30 34 35 34 28 24
42 43 43 43 43 42 42 44 43 40 42 39 35 33 35 32 34 33 32 30 30 31 32 29 27 27 27 24 25 27 31 32 31 31 31 28 25 25 26 29 29 28 29 34 33 31 26
41 43 43 43 42 42 42 43 43 41 39 33 30 31 33 32 34 33 32 31 30 31 31 29 27 28 27 25 25 25 30 30 27 31 29 30 27 27 23 26 26 25 27 31 34 34 33
42 42 43 42 42 42 42 42 43 41 36 29 32 33 35 30 29 30 32 32 33 34 33 32 31 31 29 31 32 30 30 29 29 29 29 29 27 24 20 27 25 22 25 26 29 31 32
42 42 43 42 42 42 42 42 43 42 37 32 32 33 29 27 24 26 25 31 32 33 34 35 36 32 32 34 33 30 29 29 30 30 30 29 27 25 23 24 18 20 25 27 26 26 29
42 42 43 43 42 42 42 43 43 43 42 35 35 31 28 18 23 20 20 27 30 34 34 35 38 38 39 34 28 27 27 27 28 29 29 31 25 24 23 21 19 20 28 28 27 25 27
42 43 43 43 42 41 42 43 43 42 43 38 36 35 30 24 22 24 21 26 31 32 33 37 40 41 38 34 30 24 22 22 22 25 30 30 28 22 26 19 17 21 31 30 31 26 32
43 44 44 43 42 41 43 43 42 42 42 40 37 36 32 27 27 28 23 22 27 27 30 34 36 37 38 31 26 25 22 24 23 22 25 27 27 24 23 23 23 24 26 33 27 25 34
43 44 45 44 42 42 42 43 43 42 42 39 37 37 32 28 29 29 28 25 26 24 27 33 34 36 35 31 28 26 22 23 24 24 25 25 24 25 26 23 19 28 33 30 32 36 36
44 44 46 44 42 42 42 42 42 42 42 39 36 39 38 33 29 33 33 33 31 30 26 25 32 35 35 35 32 31 27 26 25 23 28 24 24 22 24 23 26 30 33 35 38 37 36

GFSGBSN_sfc_30mbdewp_057.txt.gz
Dewpoint
48 47 47 46 46 45 46 47 46 48 49 49 49 46 46 47 46 45 45 46 45 46 45 45 45 47 43 37 37 42 44 42 43 48 49 44 42 43 41 45 44 41 40 43 43 47 45
48 48 48 47 46 46 44 46 47 48 48 48 49 46 46 45 45 45 45 44 44 45 45 46 45 46 42 34 38 45 44 41 42 47 47 49 42 44 42 43 43 42 43 43 46 45 44
49 48 47 47 46 45 45 44 45 46 47 48 48 47 47 45 43 44 44 45 45 46 46 45 45 43 40 35 41 47 46 42 46 48 45 50 45 44 42 41 44 42 41 43 45 46 46
49 48 47 47 46 46 45 44 44 43 46 46 49 47 46 46 44 44 45 45 45 45 46 46 46 42 34 39 44 46 44 47 48 50 51 50 46 45 40 40 39 38 38 37 39 42 42
48 48 47 47 47 48 46 45 45 45 44 44 47 48 48 47 45 45 46 46 45 46 45 45 41 39 29 39 40 44 44 45 48 51 52 47 45 42 40 36 34 35 32 34 34 37 36
48 48 48 47 45 45 46 46 46 46 44 44 45 47 47 47 46 46 46 46 46 45 44 44 41 34 33 34 40 44 46 46 47 48 46 45 42 38 38 34 30 32 31 33 32 34 35
48 48 48 46 46 46 46 46 45 44 45 45 43 45 47 47 47 46 45 36 32 30 36 31 33 32 32 32 41 44 45 44 47 44 40 42 36 34 36 35 31 32 32 31 32 33 33
48 48 47 47 46 46 46 45 45 45 45 44 44 44 46 46 48 46 41 36 36 38 31 36 36 37 38 36 37 41 44 39 43 38 40 39 33 37 37 34 32 31 31 31 31 31 33
47 48 47 47 46 46 46 45 45 46 46 46 45 44 46 46 48 41 37 36 41 41 33 35 38 39 41 41 39 38 42 42 39 39 37 33 33 37 37 34 31 29 29 29 28 30 31
47 47 47 46 46 46 46 46 45 45 45 46 46 44 47 46 44 39 38 40 42 42 28 34 35 37 41 41 38 44 45 42 40 35 36 35 37 37 36 34 32 29 29 29 28 28 27
46 47 46 46 45 45 45 46 46 45 45 45 45 44 47 45 41 39 39 42 42 37 16 33 36 42 39 39 39 39 47 44 38 38 38 35 36 36 35 34 32 30 29 27 27 28 27
46 46 46 46 45 45 43 43 44 44 44 45 44 45 45 46 45 44 42 43 40 21 18 31 37 35 35 38 40 42 43 45 43 38 38 37 40 38 38 38 33 32 30 30 29 27 24
46 46 46 46 45 44 45 44 44 43 43 43 44 47 46 46 41 43 43 40 24 19 28 28 35 35 35 35 35 38 37 36 34 31 32 35 36 38 39 35 36 32 27 25 23 24 22
45 45 46 46 44 45 44 44 44 44 43 44 45 48 47 46 44 44 41 29 19 26 28 33 36 36 33 33 35 34 35 34 36 32 30 29 28 36 38 35 33 31 28 23 17 19 20
44 45 46 45 45 44 44 44 44 44 44 45 45 43 43 44 45 43 34 22 22 28 33 34 35 33 33 35 34 34 34 32 35 33 26 27 28 36 37 38 37 34 29 28 24 21 20
44 45 45 44 44 44 44 44 44 44 43 44 41 40 42 45 45 42 31 27 29 33 35 32 29 32 31 33 33 33 32 34 36 37 33 31 26 34 37 37 37 36 36 28 26 20 17
44 44 44 43 44 44 44 44 44 44 42 44 41 38 43 45 44 38 28 29 32 35 35 29 29 28 31 31 33 32 32 35 37 38 36 31 29 30 35 34 32 34 33 33 28 24 18
44 43 43 43 43 43 43 44 44 43 42 40 38 37 43 45 37 37 30 32 34 32 32 31 30 29 30 32 32 30 31 31 38 38 34 33 30 28 30 35 37 35 34 34 28 25 24
44 43 43 43 43 43 43 44 44 42 42 41 36 38 44 43 33 31 33 33 34 32 31 28 28 29 29 27 26 30 30 32 35 35 33 33 30 25 27 31 36 35 35 35 33 28 23
43 43 43 43 43 43 43 44 44 42 42 41 37 33 40 42 39 36 31 31 28 34 31 29 28 28 28 26 28 29 29 31 32 32 34 33 28 24 21 23 30 31 33 34 33 29 27
43 43 43 43 43 42 43 43 43 41 41 38 33 33 34 32 35 33 33 32 29 30 32 30 27 27 27 25 26 27 31 31 31 31 31 28 25 26 26 27 29 30 31 33 32 32 29
42 44 43 42 42 42 43 43 43 41 37 32 27 29 32 31 32 32 32 31 30 31 31 29 27 28 28 25 25 25 30 29 27 30 29 29 27 26 24 26 27 26 27 31 32 32 31
43 44 43 42 42 43 43 43 43 41 33 28 31 33 34 29 27 30 30 31 33 34 33 33 30 32 27 29 31 30 31 30 29 29 28 28 26 23 18 26 25 22 24 26 30 33 33
42 44 43 42 42 43 43 43 43 43 36 32 32 32 28 26 24 25 21 22 31 31 33 34 36 33 32 35 32 29 29 29 30 30 30 28 25 23 21 23 13 17 23 24 26 26 32
42 43 43 42 42 43 43 43 42 43 41 34 34 30 24 16 23 20 20 26 31 33 34 34 38 39 40 33 28 27 26 27 28 29 29 29 27 23 20 21 19 18 27 27 26 25 27
42 43 44 43 41 43 43 43 42 43 43 37 35 34 29 18 20 25 21 26 29 30 32 35 39 39 37 33 28 24 22 23 24 27 30 30 28 21 24 18 15 19 28 30 30 25 32
43 43 44 43 41 42 43 43 43 42 42 38 36 35 31 26 27 27 23 22 25 24 26 32 32 36 37 31 27 25 23 24 22 20 25 28 28 23 22 23 23 24 27 32 26 25 34
44 44 45 43 41 42 43 42 42 42 42 38 37 37 32 29 28 29 28 25 26 24 24 28 34 37 35 30 28 26 24 22 24 24 25 25 25 25 25 24 19 27 32 29 29 35 36
44 45 46 43 42 42 42 42 42 42 42 39 35 39 38 33 29 33 33 33 31 29 27 25 31 31 34 34 32 31 28 25 24 22 28 24 25 23 25 24 25 27 33 34 37 36 36

GFSGBSN_sfc_30mbdewp_060.txt.gz
Dewpoint
49 48 48 47 46 46 46 45 45 47 47 49 49 48 47 45 46 46 45 45 45 46 45 45 45 47 43 37 37 40 45 45 43 46 47 46 42 40 41 44 45 42 44 43 45 45 44
49 49 48 48 47 46 46 45 45 43 46 48 49 49 46 45 44 45 45 45 44 45 45 45 45 46 41 32 40 46 46 44 42 44 47 49 43 41 42 43 42 42 42 42 46 45 46
49 49 48 47 46 48 46 46 45 44 44 47 48 49 48 47 44 44 45 44 44 45 46 46 45 43 40 34 43 45 44 44 44 43 46 47 47 42 44 43 44 44 41 43 44 43 43
49 49 48 47 46 47 46 46 46 47 45 43 46 47 48 47 46 45 45 46 45 46 45 45 46 42 34 40 45 44 44 44 44 46 46 46 49 44 42 43 41 40 41 38 43 45 46
49 49 48 47 47 46 45 45 45 44 45 46 43 46 47 48 46 46 46 46 46 45 45 45 42 39 30 41 40 46 46 43 48 48 49 49 47 42 39 38 36 37 34 36 40 45 45
49 49 48 46 46 47 46 46 46 45 46 45 47 43 46 47 48 47 46 46 46 44 43 44 42 34 32 33 40 46 47 47 45 47 45 46 43 39 37 36 30 32 32 34 34 41 43
49 48 48 47 46 46 47 47 47 45 45 46 47 46 44 46 47 48 45 34 30 28 35 32 32 32 33 35 45 41 44 45 46 41 38 41 37 34 35 35 32 33 32 33 33 35 35
48 48 48 47 46 46 47 47 44 45 46 46 47 46 44 45 46 48 40 34 34 37 34 36 38 36 38 40 37 41 45 40 43 36 38 38 32 36 37 35 32 32 31 32 32 33 34
48 48 48 47 46 46 45 46 45 45 45 46 47 46 44 47 46 42 37 36 41 41 34 35 38 38 40 42 39 40 41 40 39 37 36 32 33 37 36 34 31 30 30 30 30 30 31
48 47 47 47 46 45 45 44 44 44 45 45 45 43 44 47 44 39 37 40 42 40 27 31 35 36 40 41 37 43 44 39 38 37 35 33 37 36 36 32 31 29 30 29 29 29 28
47 47 47 47 47 46 45 45 45 44 43 44 43 44 46 46 41 39 39 42 42 34 16 30 34 40 39 38 37 38 46 42 36 38 37 35 36 35 34 33 31 30 29 28 28 28 27
47 47 46 47 46 45 45 45 44 44 44 44 44 45 47 45 44 43 42 43 38 20 20 30 37 35 34 38 39 40 43 45 42 37 38 38 40 37 37 36 32 32 29 29 28 27 23
46 46 46 46 46 45 45 45 44 44 44 44 45 47 46 46 41 44 43 38 24 17 26 31 33 32 33 35 36 36 36 35 34 31 32 35 36 38 39 34 34 31 28 25 23 23 22
46 45 46 46 45 45 45 44 45 44 44 44 46 48 47 46 44 43 39 29 20 25 27 32 35 33 31 35 35 37 34 33 36 34 31 30 28 36 38 34 32 30 27 23 17 19 20
46 45 46 45 45 44 44 45 44 45 44 45 45 43 44 43 44 43 35 22 21 27 33 34 35 33 31 35 33 33 34 34 33 31 27 27 29 36 38 38 35 33 28 26 22 21 19
45 45 45 44 44 44 44 44 44 44 43 45 41 40 42 45 45 42 31 27 29 30 34 34 30 32 30 29 32 33 32 34 35 35 32 30 27 34 37 37 38 34 33 27 26 20 17
45 45 44 44 44 44 44 44 44 44 42 44 40 38 43 45 44 38 29 29 31 34 34 29 29 28 31 31 33 31 31 34 37 35 33 30 27 31 34 33 32 34 33 32 27 24 19
45 44 43 43 44 44 43 44 44 43 43 39 38 36 43 44 37 35 31 31 34 32 33 31 30 29 31 32 32 32 31 33 38 37 31 31 29 28 29 36 35 34 32 32 27 24 24
45 44 43 43 43 43 43 44 44 42 43 39 36 39 44 43 31 31 32 33 34 32 31 28 28 29 29 29 26 30 31 32 38 35 32 32 28 25 27 32 35 34 33 34 33 30 25
44 43 43 43 43 43 43 44 44 41 44 40 36 33 40 42 39 36 32 31 29 34 32 29 28 28 27 26 28 29 29 31 35 35 37 33 29 24 21 22 30 30 32 32 32 28 26
44 43 44 43 43 43 43 44 43 39 45 36 33 32 34 31 35 33 33 32 29 29 31 31 27 27 27 25 27 28 30 31 31 36 36 35 28 27 26 25 30 31 31 33 32 32 29
43 44 43 43 42 43 43 43 43 39 37 31 25 28 31 31 31 31 32 31 32 31 31 29 27 29 27 25 25 26 30 30 31 30 31 30 26 25 24 26 28 28 28 31 32 33 33
43 44 43 42 43 43 44 43 43 39 31 27 31 33 32 29 27 30 28 28 32 34 34 33 31 32 28 28 30 29 31 30 29 29 29 28 27 24 18 25 24 22 25 27 29 32 32
44 44 43 42 42 43 43 43 43 41 34 31 32 31 28 26 24 26 21 22 29 30 32 34 37 32 34 37 31 30 30 30 30 30 30 27 24 22 20 22 13 15 24 24 25 27 31
44 43 43 42 43 43 43 43 43 43 38 34 34 29 22 15 23 19 20 26 31 32 34 34 39 39 40 32 28 26 26 26 28 29 30 28 26 23 19 20 19 19 28 26 25 25 28
44 44 43 42 42 43 43 43 43 43 41 36 35 33 28 17 19 25 21 25 26 27 31 34 37 35 37 33 28 25 21 23 24 27 30 30 27 21 23 18 12 18 24 30 29 25 31
44 44 43 42 42 43 43 43 42 42 42 37 36 34 29 25 27 27 24 22 24 23 22 31 31 35 36 30 29 27 23 24 21 21 24 28 28 26 23 22 22 24 27 29 24 25 33
44 45 44 41 42 43 42 42 42 41 40 37 36 36 32 29 28 29 29 27 26 24 21 25 32 34 35 29 28 27 24 22 24 24 24 25 26 26 24 23 18 26 31 29 28 34 36
45 45 44 42 42 42 42 42 42 42 41 37 35 39 37 31 29 33 33 33 32 30 28 25 29 32 33 32 31 30 27 25 23 20 27 24 25 23 25 23 25 25 30 32 35 35 36

GFSGBSN_sfc_30mbdewp_063.txt.gz
Dewpoint
50 50 49 48 47 47 48 46 46 45 44 46 48 49 48 47 44 45 46 45 45 45 45 45 45 46 43 37 37 41 45 48 46 50 48 46 43 42 42 42 44 42 44 41 44 44 44
50 50 49 48 47 47 47 48 47 47 45 44 45 47 48 47 45 44 45 45 44 45 46 45 45 45 40 29 39 45 44 43 44 47 47 49 43 41 43 43 42 43 44 44 44 45 45
50 50 49 48 48 47 46 45 45 47 46 47 43 45 47 48 46 45 45 45 45 45 46 45 45 43 39 32 41 44 43 43 44 43 44 49 48 42 43 43 44 43 40 42 44 45 44
50 50 49 48 47 47 46 47 48 44 47 47 47 43 45 47 48 46 46 46 46 46 45 45 46 41 31 39 44 45 46 42 44 45 45 49 49 43 42 43 41 41 40 37 42 43 45
51 50 49 48 47 47 47 48 46 47 46 48 46 44 44 46 47 48 47 46 47 46 45 45 40 38 32 42 40 44 45 40 43 46 47 49 48 42 40 40 37 38 34 35 40 43 45
51 49 49 48 47 46 46 48 48 47 47 48 47 47 43 44 47 47 48 47 46 44 41 44 42 34 35 37 42 44 45 45 44 45 45 47 44 39 37 37 28 33 33 34 36 43 44
51 49 49 48 48 46 46 47 47 46 47 47 48 47 44 45 45 46 45 34 28 27 35 33 33 32 34 40 46 44 46 46 44 41 36 40 36 34 36 33 33 33 34 33 33 42 41
51 49 49 48 48 46 46 45 45 47 46 47 47 46 44 44 45 47 40 33 33 36 33 35 37 37 38 41 36 42 46 41 39 35 38 37 33 36 36 33 33 33 32 33 32 38 39
52 49 48 48 47 47 46 46 45 44 46 46 46 44 43 45 46 43 36 36 41 41 33 34 38 38 39 42 39 40 43 40 36 34 36 34 34 37 36 32 31 31 31 31 31 34 35
51 49 48 48 47 47 46 46 45 45 46 44 44 43 43 48 42 39 37 39 42 39 26 28 35 37 40 41 37 43 44 41 38 34 36 36 37 36 35 33 31 28 31 30 30 30 28
51 48 47 47 47 47 47 46 45 44 44 44 43 43 44 47 40 38 39 42 42 32 17 29 34 39 40 37 37 38 45 42 35 36 38 35 36 35 33 32 31 29 31 29 29 29 27
51 48 47 47 47 47 46 46 45 45 44 45 44 45 46 45 44 43 42 42 36 19 19 30 36 34 35 39 38 39 42 44 41 38 38 37 39 37 36 35 32 31 29 28 28 27 24
50 47 47 47 47 46 46 45 44 44 44 44 46 47 45 45 41 44 43 37 23 18 25 31 33 31 33 35 35 37 36 37 34 30 32 36 36 38 38 32 32 30 27 24 22 22 21
50 47 46 46 46 46 45 45 45 44 44 44 46 46 47 45 44 43 38 28 20 24 28 33 33 33 31 35 36 36 34 34 37 36 32 30 28 36 37 34 32 29 28 22 16 19 20
49 47 46 46 46 45 45 45 45 44 44 44 46 43 44 44 44 43 34 22 22 26 32 32 34 33 30 34 33 35 33 34 34 34 28 28 29 37 38 38 34 32 27 25 21 20 19
48 46 46 46 45 45 45 44 44 44 44 45 40 40 42 45 45 42 31 27 28 29 35 35 29 31 27 30 31 33 33 34 35 34 32 29 28 35 37 37 37 32 31 26 26 19 17
48 46 46 45 44 44 44 44 45 44 43 45 39 38 43 45 44 37 30 28 30 33 34 30 29 29 31 30 32 31 31 35 37 34 32 29 28 32 34 33 33 33 31 30 27 23 20
47 45 45 44 44 44 44 44 44 44 43 40 38 35 43 44 37 35 32 31 34 32 35 31 30 29 31 32 32 32 31 33 38 35 29 31 29 27 30 36 36 34 32 30 25 23 24
46 45 44 44 44 43 43 44 44 43 42 38 37 38 44 42 31 31 31 33 34 32 31 29 28 29 29 32 27 30 31 32 38 34 31 31 28 25 27 29 33 31 31 33 32 29 23
46 45 44 44 43 43 44 44 44 41 44 39 36 32 40 41 39 34 33 31 29 34 32 29 28 28 27 26 29 29 29 32 37 37 36 32 28 23 20 22 30 30 29 29 30 27 25
46 44 44 43 43 43 43 44 43 39 45 35 33 31 33 32 34 33 33 32 29 29 31 30 27 27 27 26 27 28 31 31 32 38 36 34 28 27 26 25 31 30 30 29 29 30 27
45 44 44 43 43 43 44 44 43 38 38 30 27 30 31 30 31 31 31 32 32 32 31 29 27 29 27 25 26 26 30 30 30 32 34 32 27 25 24 26 28 28 29 31 32 31 30
45 45 44 43 44 44 44 44 42 38 30 28 31 33 31 27 27 30 27 28 32 33 34 34 30 31 28 29 31 30 31 30 31 31 30 29 28 24 22 24 23 18 22 26 29 32 32
45 45 43 43 44 43 43 43 41 39 33 30 31 30 29 25 25 27 22 22 30 30 33 34 36 32 35 38 30 30 30 30 30 30 30 29 28 23 21 20 15 17 23 26 25 27 30
45 44 43 43 43 44 43 43 43 38 37 33 33 26 18 20 22 19 20 26 29 31 34 34 39 38 38 31 29 27 26 27 28 29 29 27 25 23 20 19 18 20 28 25 23 24 27
45 44 43 43 43 43 43 43 43 41 38 35 34 31 23 15 20 25 20 24 24 25 30 32 35 36 38 32 29 25 21 23 24 28 29 29 26 23 22 18 14 18 25 30 29 25 30
45 44 43 42 43 43 44 42 43 42 40 36 35 33 28 25 27 26 22 21 24 22 22 30 25 35 36 30 29 26 23 24 22 24 28 30 30 26 24 22 22 23 25 29 25 24 31
45 44 42 42 43 43 42 42 41 41 40 36 35 36 30 27 28 29 29 26 26 23 20 24 32 33 35 30 28 27 24 23 24 23 24 26 25 26 26 24 17 26 29 28 27 32 35
46 44 42 42 43 42 42 42 42 41 39 37 34 39 36 29 29 33 32 32 32 30 27 25 30 32 32 31 31 29 27 24 22 20 27 24 25 24 25 23 25 25 29 30 31 33 34

GFSGBSN_sfc_30mbdewp_066.txt.gz
Dewpoint
52 51 50 49 48 48 47 48 48 48 47 47 44 46 48 48 46 44 45 46 45 44 46 45 46 45 40 32 33 39 43 48 51 49 48 47 44 38 35 41 43 43 42 41 40 42 40
52 51 50 49 49 48 48 46 47 48 47 47 46 44 46 48 47 45 45 45 45 45 45 46 45 44 36 24 36 42 41 44 48 48 46 47 42 39 35 38 41 43 45 40 42 42 42
53 51 50 50 49 48 48 47 48 48 47 48 47 45 45 46 48 46 46 46 46 46 46 46 45 43 37 25 38 42 42 43 45 46 45 50 47 40 39 39 43 41 40 46 43 42 42
55 52 50 50 48 48 48 48 48 48 48 47 47 47 46 44 47 48 47 46 47 47 46 45 46 41 28 36 41 42 43 40 43 45 48 50 50 43 39 42 41 40 38 36 41 42 43
56 53 51 50 49 47 47 46 48 48 47 48 47 47 46 45 46 47 48 47 47 47 46 45 40 39 32 42 40 42 42 38 41 45 48 48 48 41 42 36 33 35 27 30 38 42 42
56 54 51 50 49 48 47 46 47 48 48 48 48 47 46 45 46 46 47 48 44 45 43 43 41 37 35 37 42 43 43 44 39 41 44 42 44 38 35 32 24 26 25 29 31 40 40
57 54 52 50 49 48 47 47 46 45 46 48 47 47 46 46 46 46 47 36 30 31 35 34 35 34 35 43 45 40 45 44 40 40 37 38 38 32 30 30 25 26 28 28 31 38 38
57 55 52 50 49 48 47 47 46 46 46 47 47 44 45 45 46 45 43 33 33 38 32 36 36 38 39 42 40 41 45 37 39 36 38 35 34 32 35 33 31 30 29 29 33 39 39
57 55 52 49 49 48 48 47 46 45 45 46 46 44 44 44 47 45 38 35 42 41 34 34 38 38 39 42 39 41 43 37 37 36 36 34 35 36 35 32 30 29 27 30 28 39 38
57 55 52 49 49 48 48 47 46 45 44 46 46 43 44 44 43 40 37 39 43 40 31 30 34 38 40 41 38 44 44 40 36 34 37 37 35 35 32 31 28 29 32 32 32 29 24
57 54 51 49 48 48 47 47 46 45 45 45 44 45 44 46 41 38 40 42 42 36 20 31 36 40 40 36 38 40 45 38 34 35 37 35 34 34 33 31 30 29 32 31 31 25 27
57 54 50 48 48 48 47 46 46 45 44 44 44 45 46 45 43 43 43 43 38 27 20 31 35 33 36 36 36 40 40 40 41 35 38 37 39 37 34 34 32 31 30 29 29 27 22
57 53 50 48 47 47 47 46 45 45 44 45 45 47 44 45 41 44 43 37 29 24 27 31 31 31 34 33 34 36 35 35 33 30 31 36 37 38 38 31 31 30 26 23 21 23 18
56 53 49 48 47 47 46 46 45 45 44 44 47 46 46 45 45 44 40 31 24 26 28 34 32 33 33 36 35 36 36 32 36 37 33 30 29 36 38 33 29 28 25 21 16 17 17
55 52 49 47 47 46 46 45 45 44 45 44 46 45 45 45 45 44 35 28 26 29 31 31 33 30 31 34 36 35 35 33 33 34 30 29 30 38 38 37 34 30 27 25 22 21 20
54 51 48 47 46 45 45 45 45 45 44 45 43 42 43 46 46 42 33 29 30 29 35 33 29 31 25 30 32 34 34 35 34 34 32 30 29 36 37 37 36 33 29 26 29 21 16
54 51 48 47 46 45 44 44 45 45 43 45 41 40 43 45 45 39 32 31 31 33 35 32 29 29 30 28 32 31 33 36 36 34 31 29 30 33 35 34 30 31 30 29 27 25 19
53 51 48 46 45 44 44 44 44 44 44 44 41 36 44 45 37 37 33 32 33 33 36 32 30 29 31 32 31 31 32 35 37 33 29 31 30 28 32 35 36 32 29 29 23 23 24
53 49 48 46 45 44 44 44 44 44 42 39 39 38 45 43 30 32 34 33 35 32 32 30 29 30 29 32 30 30 32 34 38 34 30 31 28 25 28 30 31 30 31 30 30 30 27
52 50 48 45 44 44 44 44 44 42 43 40 39 33 40 41 39 34 33 31 30 34 32 29 28 29 28 28 29 30 30 35 38 37 35 32 28 26 21 24 26 27 28 28 28 27 24
52 49 47 45 44 44 44 44 44 40 45 38 35 34 34 32 33 34 34 32 29 30 31 30 28 28 28 28 28 29 31 33 35 39 36 33 29 28 25 28 31 30 28 28 28 29 26
51 49 46 44 44 44 44 44 41 41 41 32 29 32 33 32 33 33 32 31 30 32 31 30 27 28 28 26 27 28 30 31 32 34 36 34 29 27 25 27 28 28 29 30 28 28 28
50 48 46 44 43 44 44 44 40 40 34 30 32 35 33 29 30 31 30 31 32 33 34 34 31 30 29 30 32 29 31 31 32 33 33 34 30 27 25 24 24 21 23 26 28 30 29
49 48 46 44 44 44 44 42 40 38 32 30 32 35 29 24 28 30 24 24 31 31 33 35 37 32 37 39 31 31 31 31 31 31 31 30 29 27 25 23 17 19 21 25 24 24 27
49 47 45 44 44 43 43 42 39 39 36 33 33 25 25 23 24 21 22 27 30 32 34 37 39 37 37 33 29 27 27 28 29 30 29 30 28 25 23 21 19 21 28 26 24 26 28
48 47 45 44 43 43 44 43 39 39 38 35 34 31 20 20 20 23 22 25 26 27 32 32 35 35 38 34 30 26 22 23 25 28 30 27 27 24 23 19 14 21 26 30 29 24 30
48 46 45 44 44 43 43 43 42 40 39 37 35 34 28 24 27 26 20 20 24 22 27 31 26 36 38 32 31 26 22 24 22 24 28 30 29 26 23 20 20 23 23 29 24 26 31
48 46 45 44 44 43 42 43 41 40 38 36 36 37 30 27 29 30 29 26 25 23 25 25 32 35 34 32 29 28 24 24 23 24 26 26 26 25 26 23 19 26 30 28 30 31 33
47 46 45 44 44 43 42 41 41 40 38 37 34 38 35 30 29 32 31 32 32 30 27 26 31 32 32 31 31 29 25 24 23 21 27 23 25 24 25 22 25 28 28 30 32 33 33

GFSGBSN_sfc_30mbdewp_069.txt.gz
Dewpoint
56 53 52 51 50 49 48 48 47 48 47 47 48 48 46 47 49 47 45 46 46 45 45 46 46 46 40 29 26 38 40 49 49 50 48 48 44 41 34 40 46 43 39 40 46 40 38
57 55 53 51 50 49 49 48 48 48 48 48 47 48 47 45 47 49 46 46 46 45 46 46 46 46 37 26 32 38 38 45 48 49 47 49 44 39 32 37 43 44 44 42 48 41 38
58 56 54 51 50 49 49 48 48 49 48 48 48 48 48 47 45 47 49 46 46 47 47 46 46 42 36 29 34 40 40 42 47 47 45 48 50 43 33 34 41 41 40 40 42 46 37
59 57 55 52 51 50 48 48 47 48 48 48 48 47 48 47 45 46 47 48 47 47 47 45 46 39 32 34 37 38 39 40 46 49 47 48 50 46 35 37 40 41 39 37 42 40 40
61 58 56 53 51 50 49 48 47 48 49 48 48 47 47 47 46 46 46 47 48 47 47 45 42 38 30 38 37 41 40 37 44 47 48 47 48 39 39 36 34 38 35 37 37 43 41
62 59 57 54 52 50 49 48 48 47 46 46 47 47 46 46 46 46 46 47 45 45 43 40 39 37 36 35 41 42 41 40 41 46 44 43 42 37 34 31 25 25 28 31 31 39 40
61 60 58 55 52 50 49 48 48 47 47 47 47 47 45 46 45 47 45 39 34 34 35 33 33 34 36 42 44 39 40 40 42 40 35 39 37 34 29 27 22 22 23 22 31 36 36
62 60 58 55 52 51 49 48 47 47 46 46 46 46 45 45 46 47 44 35 35 39 32 35 36 37 41 45 37 39 43 34 36 36 37 36 34 31 28 27 27 21 23 22 28 34 34
62 61 58 56 52 50 49 48 48 47 46 45 46 46 45 45 46 45 40 33 41 39 34 32 37 37 41 43 35 38 41 37 37 36 36 34 35 33 30 29 26 23 23 24 27 33 35
62 61 58 56 53 50 49 48 48 47 46 46 45 44 46 45 44 41 36 38 41 40 32 30 33 37 39 39 36 44 44 39 38 35 35 37 36 33 29 27 25 23 25 27 29 31 25
61 61 58 55 53 50 49 48 47 47 46 45 45 43 46 45 42 37 40 40 41 39 22 32 34 39 39 38 38 38 44 35 32 35 38 35 34 31 28 27 27 27 32 30 31 28 21
61 61 58 55 52 50 48 48 47 46 45 44 45 45 47 44 43 42 41 41 41 30 22 30 34 33 32 33 36 39 38 40 37 34 36 36 39 35 31 32 31 32 29 29 27 23 22
61 60 57 54 51 49 48 47 46 46 45 44 46 47 46 44 41 43 42 39 30 28 29 30 29 32 31 31 34 36 34 32 29 29 30 35 37 37 37 32 31 28 25 21 19 22 19
61 59 57 53 51 49 48 47 46 46 45 45 47 45 46 44 43 43 42 33 27 28 29 32 30 34 34 32 33 34 32 31 35 35 33 30 28 34 38 29 27 28 21 19 14 15 15
60 59 56 53 50 48 48 46 46 45 45 45 47 45 44 45 44 44 36 30 30 30 29 29 31 34 32 34 33 35 33 29 32 35 31 29 30 38 39 37 34 27 27 26 22 19 18
60 58 56 52 50 48 47 46 45 45 45 45 42 42 42 45 45 43 34 31 32 31 33 30 26 30 29 30 30 33 31 32 31 36 32 29 28 35 38 37 35 32 28 24 26 20 10
54 57 55 52 50 48 46 46 45 45 44 46 41 38 44 46 45 40 31 34 33 34 34 32 26 26 26 29 32 30 33 35 33 34 31 30 28 31 35 32 29 30 28 27 25 24 18
52 57 54 52 50 48 46 45 45 45 45 44 40 35 44 45 38 36 32 33 33 34 34 32 31 29 27 29 30 29 33 35 35 32 28 29 32 29 29 34 35 34 28 27 22 22 21
51 56 54 52 49 47 45 44 45 45 45 42 37 38 45 44 30 31 34 33 34 32 31 29 30 30 30 29 29 30 35 35 37 33 29 29 29 27 29 30 31 31 28 29 26 28 29
53 55 53 52 49 47 45 44 45 45 43 42 37 33 39 40 37 33 32 30 31 35 31 29 29 30 29 30 29 30 32 36 37 35 35 31 28 27 22 24 27 27 27 27 28 30 25
50 54 52 51 48 46 44 44 45 44 42 42 37 34 34 32 32 32 34 31 28 30 32 30 28 29 28 27 28 29 32 36 37 37 34 32 30 28 25 29 30 30 27 27 27 27 26
49 54 52 50 48 45 44 44 44 41 45 39 31 31 34 31 33 32 32 30 28 31 29 28 26 27 28 27 28 28 31 32 32 36 34 34 30 29 28 27 28 28 28 27 27 26 26
50 52 51 49 47 45 44 44 42 45 42 33 32 34 32 32 32 31 29 28 29 32 34 32 30 27 27 31 31 30 31 30 31 33 33 33 30 28 27 25 24 22 23 25 27 28 27
53 52 50 48 46 45 44 44 41 46 39 29 31 32 26 23 28 29 29 30 31 33 31 35 34 31 37 37 31 30 30 30 31 32 33 32 32 30 27 24 19 21 21 22 22 23 23
46 50 50 47 46 45 44 42 40 44 38 30 34 30 25 20 25 27 26 28 31 33 35 36 38 36 38 33 28 27 27 28 28 30 30 31 30 28 25 22 19 19 26 25 23 25 28
48 51 49 47 46 45 43 41 41 39 38 34 32 31 22 22 23 25 26 28 28 30 33 34 35 38 38 32 30 24 22 23 25 28 30 29 29 26 23 19 14 22 26 28 28 24 30
51 49 48 47 46 45 42 41 41 40 38 35 35 36 27 23 26 23 23 25 25 27 28 32 32 37 38 32 28 23 22 23 21 22 26 28 27 25 24 21 20 21 23 28 21 27 30
50 49 48 46 45 45 43 41 40 40 38 36 36 37 31 26 29 29 28 24 23 23 27 27 33 35 36 31 28 26 22 22 21 23 25 25 24 25 24 25 19 28 29 26 30 31 32
49 48 47 46 46 44 43 43 42 39 38 36 34 34 33 29 29 30 29 31 31 30 25 30 33 33 33 32 32 29 23 24 21 19 26 21 25 25 23 26 26 29 28 32 33 31 31

GFSGBSN_sfc_30mbdewp_072.txt.gz
Dewpoint
59 59 56 54 52 51 50 49 49 49 48 48 49 48 49 48 46 46 49 46 45 45 45 45 46 46 43 32 29 38 39 49 49 47 42 45 44 44 41 39 44 43 43 44 47 42 41
61 61 59 55 53 51 50 50 49 49 49 49 48 49 49 49 48 45 48 49 46 46 46 46 46 47 39 30 31 38 38 42 46 46 42 47 44 44 41 36 41 41 46 45 47 45 44
61 61 60 57 54 52 51 50 49 49 49 49 48 48 48 48 48 45 46 48 48 46 46 47 46 43 37 33 32 38 37 42 46 46 43 48 47 47 41 34 44 43 41 47 46 46 45
61 62 62 59 55 53 52 50 49 49 48 49 49 48 48 48 48 47 46 47 47 48 47 47 46 41 34 37 37 38 38 39 46 47 45 46 47 47 45 37 41 41 40 38 45 45 43
61 62 62 60 57 54 53 50 49 48 48 47 47 47 48 47 46 46 44 47 47 48 47 47 43 40 32 38 39 41 40 37 44 46 45 44 47 44 40 37 35 40 33 36 37 45 45
61 62 62 60 57 55 53 51 50 49 48 47 48 48 47 45 46 44 47 47 46 46 44 42 39 37 37 38 43 42 42 40 42 43 42 40 44 40 37 33 30 33 33 34 33 39 42
61 62 62 60 58 55 53 51 50 48 48 48 47 47 46 46 44 44 47 43 38 36 36 33 33 34 39 43 44 40 40 39 43 40 34 38 36 35 35 33 28 35 34 33 35 37 38
61 61 61 61 59 56 53 51 50 49 48 47 46 46 46 43 44 46 45 39 38 39 33 34 35 39 41 41 37 38 41 36 38 34 37 37 33 34 32 31 27 24 29 32 36 37 33
58 61 61 61 59 57 54 51 50 49 48 47 46 45 46 45 46 46 42 35 41 38 35 33 37 37 39 40 34 36 40 38 37 35 36 35 37 34 33 28 26 25 23 31 34 39 37
55 56 61 61 59 57 54 51 49 49 48 47 46 46 44 46 44 42 37 38 40 40 33 31 33 37 40 37 36 42 44 39 38 36 36 37 38 33 35 31 25 23 24 27 30 31 28
54 55 58 61 59 57 54 51 49 48 47 46 45 45 44 46 44 38 41 39 40 40 23 31 33 39 38 35 37 38 42 39 35 36 35 35 36 35 28 26 28 29 30 28 31 30 26
53 55 55 60 59 57 54 51 49 48 47 46 45 46 47 45 44 42 40 40 41 30 20 29 33 33 32 34 35 38 37 39 37 34 38 37 39 39 38 32 30 32 31 29 28 27 22
51 52 55 55 59 56 54 50 49 47 47 45 45 47 46 43 42 43 41 40 31 25 30 29 29 30 29 30 33 34 32 33 31 28 31 35 37 38 38 31 31 29 27 24 21 21 21
51 52 54 52 58 56 53 50 48 47 46 45 46 45 45 44 44 43 42 34 25 28 28 29 30 33 30 29 30 32 29 30 35 34 32 30 28 35 37 32 29 28 26 21 15 18 20
51 51 52 52 57 55 53 50 48 46 46 45 46 46 44 45 44 44 39 27 31 29 27 27 30 30 29 32 32 32 33 29 32 36 30 31 31 37 38 37 35 28 27 27 24 18 18
47 50 51 52 57 55 53 50 47 46 46 46 44 43 43 45 45 43 36 30 31 31 30 29 29 32 26 29 28 32 30 31 31 36 34 30 28 35 37 37 35 34 29 24 25 18 11
48 51 50 51 56 54 52 50 47 46 45 46 43 39 44 46 45 40 30 31 32 32 34 31 28 28 28 28 29 30 30 34 33 35 32 30 28 33 35 33 30 30 27 28 26 23 21
43 44 50 51 52 53 52 50 48 46 45 45 41 35 45 45 37 37 30 33 34 33 34 33 31 30 27 30 29 28 31 34 34 33 29 31 31 26 30 33 35 34 28 26 22 23 22
42 44 48 50 53 52 50 50 48 46 45 43 38 39 45 44 30 30 32 33 34 33 32 30 29 30 30 29 28 31 33 36 35 32 30 30 30 26 27 29 31 31 31 31 27 29 26
42 44 47 49 53 51 49 49 48 46 46 45 37 33 40 41 37 33 30 28 31 35 32 29 29 30 29 28 29 30 33 35 37 34 34 32 30 28 25 26 28 28 28 29 29 28 27
42 43 46 47 53 50 49 48 48 46 46 45 39 35 34 31 32 32 32 29 27 30 33 30 28 30 28 29 28 29 32 35 37 37 35 33 30 27 26 29 30 29 27 27 26 29 27
40 43 44 45 52 50 48 47 47 47 45 43 34 34 35 32 32 31 31 30 26 29 29 28 27 29 29 32 29 29 32 32 34 35 34 34 30 29 26 27 27 27 29 28 28 27 27
39 43 43 51 51 49 48 47 47 46 44 39 34 35 34 31 31 31 30 29 28 32 34 31 28 27 28 32 30 30 31 31 32 35 34 33 30 28 26 25 24 22 24 26 28 28 27
40 42 43 45 51 49 47 47 46 44 44 34 32 34 31 28 30 30 29 31 31 32 31 34 33 30 37 37 32 30 30 30 32 32 32 33 32 31 27 24 19 23 21 23 24 26 27
40 42 43 44 46 49 47 47 45 45 46 34 35 34 27 25 27 29 29 30 32 34 35 35 37 36 38 34 29 28 28 28 29 30 31 32 35 31 26 24 23 19 24 23 22 23 27
40 41 42 45 46 48 48 46 43 46 43 35 34 33 26 24 24 26 27 31 30 32 34 35 35 39 38 32 29 23 23 23 26 28 30 29 30 29 25 20 16 25 27 28 28 26 30
40 40 42 48 49 47 47 46 42 45 44 36 35 37 32 26 27 27 26 28 27 29 31 34 35 37 38 32 29 26 24 24 24 23 26 27 27 26 26 22 23 25 26 29 21 28 32
40 41 46 49 47 46 46 44 42 44 39 37 35 38 33 28 29 30 29 25 25 25 30 28 34 35 34 31 28 26 25 23 21 26 26 25 25 25 26 25 22 27 26 25 30 32 32
40 41 44 48 47 46 45 43 42 40 39 37 33 33 34 31 29 29 30 29 30 30 28 33 33 33 35 34 33 31 24 24 22 21 26 24 26 28 25 26 28 28 32 31 29 29 28

GFSGBSN_sfc_30mbdewp_075.txt.gz
Dewpoint
61 61 61 60 57 55 53 52 51 50 50 49 49 49 49 50 49 48 46 48 49 46 44 46 46 46 46 38 33 39 39 47 47 46 44 43 43 44 40 42 43 45 45 47 48 49 44
62 61 61 61 59 56 54 52 51 50 50 49 49 49 49 49 48 48 47 45 48 48 46 46 47 46 44 35 34 38 38 44 45 45 43 45 45 46 43 41 41 44 45 46 49 49 48
61 61 61 62 61 58 55 53 51 50 50 49 49 49 48 48 48 47 46 45 47 48 48 46 47 44 40 37 34 38 38 44 45 46 42 46 46 46 46 39 43 43 41 43 47 47 47
61 61 61 61 62 59 55 54 52 51 50 49 47 47 47 48 47 46 44 44 46 47 48 48 47 44 35 38 39 41 41 44 46 46 46 45 44 46 45 44 42 41 40 35 42 46 45
59 60 61 61 61 60 57 54 53 51 50 49 48 47 48 47 45 44 44 44 47 47 48 47 45 42 35 39 40 43 42 39 45 46 45 44 44 43 42 40 37 38 32 33 37 46 45
54 59 59 60 61 60 58 56 54 51 50 49 49 48 48 47 45 44 45 46 48 48 45 44 43 38 39 39 43 43 42 41 42 43 43 43 42 39 39 38 31 33 33 35 34 41 43
51 54 57 57 60 61 59 57 55 52 50 49 48 47 47 46 44 44 46 44 38 37 37 34 34 35 41 42 44 40 41 40 41 40 35 38 34 34 36 37 34 35 35 33 36 42 40
50 51 53 55 56 59 60 57 56 53 51 49 48 47 46 46 44 45 47 41 38 38 31 36 36 40 42 41 35 38 41 38 38 34 37 35 33 37 37 37 35 35 35 35 38 39 39
47 49 51 53 55 56 60 58 56 53 51 49 48 47 46 44 46 46 43 41 41 40 35 35 37 37 38 42 35 35 40 39 38 35 36 32 34 37 37 36 33 34 31 33 36 40 39
45 47 50 52 53 55 58 58 56 53 51 49 48 46 46 44 44 44 39 40 41 40 31 32 35 37 40 39 36 42 43 41 38 35 38 36 38 36 35 35 31 25 32 34 36 33 27
45 45 49 51 53 54 54 58 55 53 51 49 47 46 45 45 44 40 40 40 40 40 20 31 33 39 39 35 37 36 43 41 36 38 37 35 37 35 34 34 30 30 32 36 34 32 29
44 45 48 50 51 53 54 57 55 53 51 48 47 46 46 45 44 44 40 40 41 29 17 28 34 34 33 36 38 37 40 40 39 36 38 39 41 38 36 34 32 32 29 29 30 28 22
45 45 45 48 51 52 53 56 54 52 50 48 46 46 47 44 42 42 41 40 29 22 29 29 30 31 30 31 33 34 34 34 31 30 31 35 36 38 38 31 31 29 25 22 21 21 20
44 44 44 46 49 52 52 54 54 52 49 47 46 46 46 44 44 43 42 34 23 28 28 29 28 31 28 30 30 31 32 30 34 32 32 28 27 37 38 34 30 28 25 20 16 18 20
41 44 44 46 47 51 51 54 53 51 49 46 47 45 45 45 45 44 39 26 25 27 27 28 30 27 29 32 31 31 31 30 32 36 28 28 29 36 38 38 34 28 25 27 23 20 20
40 41 42 45 45 49 50 54 52 50 48 46 45 44 43 45 45 43 34 28 31 32 29 29 29 28 27 30 29 29 28 31 31 36 34 32 28 34 36 37 35 32 29 23 23 14 11
39 40 42 43 44 47 50 52 51 48 48 47 44 39 45 46 45 39 28 28 31 32 35 30 32 31 28 28 28 26 28 33 34 35 32 30 29 32 33 32 30 30 27 28 25 24 20
40 40 41 43 44 46 49 49 50 47 46 48 42 36 45 45 35 35 29 31 34 32 34 33 31 30 28 29 28 28 29 33 34 33 29 34 29 29 29 33 35 34 30 27 23 22 23
37 39 41 42 42 47 48 50 50 47 47 44 39 39 44 44 30 29 30 33 34 33 33 32 30 30 31 30 29 32 33 36 34 32 30 31 29 26 28 28 31 31 32 31 28 28 24
37 38 41 41 41 46 48 51 49 46 46 46 37 34 39 41 38 32 29 31 33 35 33 30 30 30 29 29 30 30 31 35 36 35 34 32 30 25 20 24 28 29 29 31 30 25 25
38 39 40 41 40 45 46 50 49 47 46 46 38 33 35 31 31 32 31 29 32 32 33 29 28 30 29 28 29 30 32 36 37 36 34 34 29 27 26 28 30 29 27 29 29 29 25
39 40 40 41 41 44 46 50 49 48 45 43 37 35 34 32 32 31 32 30 26 31 31 29 28 29 30 30 29 30 31 32 34 35 34 34 29 29 25 27 27 27 28 29 28 27 29
40 40 39 41 42 43 51 49 49 47 47 41 37 35 33 33 32 31 30 30 27 32 33 31 28 28 31 30 30 30 32 33 35 34 34 33 29 27 24 25 24 22 24 26 28 28 28
39 39 39 41 42 44 50 49 49 47 45 37 34 35 31 30 31 31 30 32 31 32 32 36 34 32 36 37 33 31 31 33 33 34 35 33 30 29 27 23 20 22 21 24 26 28 29
38 38 40 41 42 44 45 49 49 47 46 37 35 33 28 28 31 31 31 32 34 35 35 36 35 36 38 34 29 28 28 28 29 30 31 35 35 30 24 22 23 20 22 20 19 24 28
38 38 39 40 41 43 45 48 48 47 46 37 34 34 28 27 26 26 30 32 32 34 34 35 37 40 38 32 30 24 23 24 26 28 30 31 33 30 27 21 18 22 27 28 27 27 32
38 39 39 40 42 47 48 48 48 46 45 36 34 36 29 25 28 28 28 30 30 32 32 34 36 36 37 32 28 25 24 26 25 23 26 27 27 27 27 23 23 26 27 29 16 22 32
38 38 41 41 47 49 48 48 46 45 46 35 34 37 30 29 29 30 30 27 26 30 31 32 32 34 33 29 28 26 25 23 23 25 26 26 24 25 26 24 20 25 26 22 29 30 29
38 38 41 41 42 48 48 47 45 45 44 36 32 33 33 30 28 31 31 30 30 31 32 34 31 33 35 32 31 31 25 24 21 24 26 23 25 24 25 25 29 32 29 28 29 28 29

GFSGBSN_sfc_30mbdewp_078.txt.gz
Dewpoint
60 61 61 61 61 61 60 57 55 53 52 51 49 50 49 50 49 48 48 47 46 48 48 46 46 47 46 39 37 38 38 45 46 45 42 41 39 42 38 41 43 40 44 44 47 49 48
56 58 60 60 60 60 61 59 57 54 52 51 49 49 50 49 49 49 48 47 45 47 48 48 46 47 43 34 36 38 38 42 45 45 43 44 45 45 42 41 41 42 45 46 47 48 48
52 54 56 59 60 60 60 60 58 55 53 51 50 49 48 48 48 47 46 45 45 46 48 48 48 46 40 36 36 42 41 43 44 45 41 46 44 43 45 40 45 42 42 44 46 47 46
49 51 52 55 57 58 59 60 58 56 54 51 50 49 47 49 48 46 44 44 44 45 47 48 48 45 37 39 39 42 42 44 46 46 45 45 44 45 45 45 43 39 39 37 42 44 45
46 47 49 51 52 55 57 60 58 56 55 52 50 49 49 48 48 46 45 45 45 47 48 48 45 43 37 40 41 44 43 41 45 44 45 44 43 42 42 38 37 38 32 34 37 43 43
44 44 46 49 52 52 54 57 59 57 56 53 50 49 48 48 47 44 45 46 47 48 46 45 44 40 39 39 42 43 43 41 41 42 42 42 41 37 38 34 28 33 32 35 35 40 43
45 44 45 47 49 52 52 55 56 59 56 54 50 49 48 47 47 44 46 44 37 37 37 35 34 36 39 41 43 41 41 40 41 41 34 38 35 30 34 36 37 33 33 32 36 39 39
41 42 44 46 47 49 51 54 54 57 57 54 51 49 47 46 45 46 46 41 37 37 29 35 36 39 42 41 34 37 41 38 38 34 37 35 32 35 37 36 37 33 33 34 37 39 40
41 42 45 46 46 48 50 53 54 55 56 54 52 49 47 46 45 46 43 41 41 39 34 35 37 37 38 42 34 34 42 40 37 33 35 31 35 39 38 35 34 34 32 34 34 39 40
42 42 43 45 46 46 50 52 53 54 56 53 52 48 46 45 44 44 41 41 40 40 29 31 35 37 41 40 35 41 43 42 38 35 35 36 37 37 37 36 35 31 35 33 36 35 31
41 42 43 44 44 45 47 50 52 53 56 53 51 48 46 44 43 40 40 40 41 38 15 29 33 40 40 36 35 35 46 44 38 37 37 35 35 37 35 36 35 31 33 34 34 33 32
41 41 43 43 44 45 46 47 49 53 55 53 51 47 46 46 44 44 40 41 41 27 14 29 34 33 35 36 37 36 39 42 41 38 39 39 40 38 37 37 34 35 37 35 33 30 26
41 41 39 42 42 44 45 46 50 52 55 52 49 47 47 44 41 44 42 39 27 22 27 28 31 33 31 31 33 35 33 34 32 31 31 36 36 38 38 31 32 35 32 26 25 23 20
37 40 40 40 42 44 44 45 47 52 54 51 48 47 47 44 45 42 42 32 23 24 27 29 30 30 28 31 29 32 32 29 34 32 30 28 28 36 38 35 32 31 26 19 14 19 19
37 38 39 39 41 43 45 43 48 50 53 50 48 46 44 45 44 44 37 24 22 26 29 28 30 28 28 31 31 30 30 29 31 35 27 26 28 36 37 37 34 28 25 26 21 21 19
36 37 38 38 40 41 42 41 46 54 50 48 45 44 44 45 45 43 34 26 30 32 29 29 28 28 24 29 28 29 28 32 30 35 35 31 27 34 35 35 34 30 29 22 22 15 14
34 36 36 36 39 39 42 41 45 51 48 48 45 39 45 45 44 39 27 26 31 32 33 30 31 29 29 29 27 26 27 32 34 35 31 30 28 31 33 31 30 28 27 27 24 23 17
34 35 36 38 40 41 42 41 45 48 48 48 43 34 45 45 35 34 28 29 33 33 34 32 32 31 29 29 26 26 27 31 35 33 29 33 30 28 29 33 35 33 29 27 20 20 22
34 34 36 39 40 41 42 41 45 46 47 45 39 39 45 43 30 31 30 30 34 33 33 32 30 31 30 29 26 30 31 35 35 33 30 31 27 24 25 28 30 31 31 30 27 26 21
37 36 37 40 40 41 42 41 45 49 47 47 40 32 39 40 38 31 28 29 32 34 33 32 30 30 30 29 31 31 32 35 36 34 35 32 28 23 20 23 28 29 30 31 28 24 24
38 39 38 38 40 40 41 41 45 49 48 47 40 34 36 31 33 33 30 30 31 32 33 29 28 30 29 29 29 30 31 36 36 36 34 32 28 26 27 28 30 29 27 29 29 28 24
38 39 39 38 39 40 40 42 44 49 49 44 37 34 35 32 32 33 31 31 32 32 31 29 27 29 31 29 29 31 31 33 33 35 33 34 29 28 26 27 27 25 27 29 29 29 29
38 39 39 39 39 41 41 42 45 49 48 42 42 37 33 32 30 30 30 30 30 31 33 30 29 31 30 30 31 33 33 32 34 34 33 32 28 26 23 25 23 22 24 25 29 29 28
39 39 39 39 39 42 43 42 48 49 48 42 39 36 32 31 30 30 31 31 29 31 32 35 31 31 35 35 32 32 34 35 35 35 35 32 29 28 25 23 19 22 22 25 26 28 29
37 39 39 39 39 42 42 43 45 48 48 41 36 33 30 31 31 31 31 32 35 36 35 34 35 37 37 32 33 32 31 29 29 30 33 34 33 29 23 22 22 24 21 19 21 27 31
38 39 40 39 40 41 41 45 45 48 48 46 35 36 30 30 28 27 32 34 33 33 33 35 39 39 37 31 28 25 24 24 26 28 31 35 34 28 28 22 18 20 26 28 28 24 32
38 39 39 39 41 41 45 48 48 47 48 42 33 37 29 26 29 29 30 31 34 33 32 34 37 36 36 31 27 24 23 26 24 24 27 27 31 28 26 22 23 24 27 27 17 18 32
39 40 39 39 41 43 46 49 48 47 46 36 33 37 30 28 28 29 29 27 29 33 30 33 32 33 33 28 27 26 24 25 25 25 26 26 25 25 26 25 21 26 27 20 24 30 29
38 39 39 39 41 43 44 49 48 46 42 36 31 32 33 29 29 32 32 31 31 30 33 33 30 33 33 29 29 29 25 23 24 23 27 23 24 23 25 25 28 30 28 29 30 28 29

GFSGBSN_sfc_30mbdewp_081.txt.gz
Dewpoint
52 52 54 55 56 56 58 59 59 60 57 55 53 51 50 50 51 50 49 49 47 46 47 50 47 46 45 40 38 39 39 42 46 47 43 41 38 37 37 39 41 40 40 42 44 48 49
49 49 51 52 53 54 54 56 58 60 58 57 54 51 50 50 49 49 48 47 47 46 47 49 49 47 43 33 37 38 38 42 44 44 42 42 40 42 39 40 39 40 41 39 42 46 48
46 46 47 49 50 51 52 53 55 57 59 57 55 52 50 49 49 49 47 45 46 46 47 48 48 47 41 35 38 42 43 44 44 44 41 44 44 43 42 38 43 40 38 38 42 45 45
44 46 45 45 47 48 50 53 54 56 59 58 56 54 51 48 49 49 47 46 44 45 46 46 48 43 38 40 40 42 43 42 46 46 44 44 46 44 44 43 42 38 38 33 41 44 45
44 42 43 45 45 46 48 50 52 52 54 56 57 54 52 50 49 47 45 45 45 45 46 47 45 43 36 41 40 43 44 40 41 45 44 44 44 41 43 38 35 36 31 32 38 43 41
41 41 44 46 45 45 45 48 50 53 54 55 57 54 52 50 48 47 45 46 47 48 47 46 44 40 40 38 41 42 43 41 39 42 41 41 40 36 36 34 28 32 30 33 36 41 40
40 42 43 45 45 46 45 46 48 50 54 54 57 54 53 49 47 47 46 43 37 38 38 34 34 36 37 41 43 40 41 39 40 39 34 37 34 30 34 34 36 35 31 33 38 40 38
40 40 44 45 44 46 46 45 47 49 52 54 56 54 52 49 47 46 46 39 36 36 27 34 35 37 41 40 32 38 42 37 38 34 36 34 30 34 37 35 35 35 34 34 38 39 39
40 40 42 43 44 46 44 45 45 47 50 53 56 53 51 49 46 46 43 41 41 39 32 35 36 37 38 40 34 36 40 39 37 33 35 31 36 37 37 35 35 34 31 34 33 38 39
41 40 40 40 40 42 42 43 45 45 48 50 54 53 51 49 44 44 41 43 40 39 27 28 34 37 40 40 35 41 42 40 37 32 34 36 38 37 36 34 35 32 35 34 36 33 30
39 41 40 41 41 40 42 43 44 44 46 47 49 53 49 47 44 41 39 41 41 34 15 26 33 40 40 36 35 39 46 43 37 36 35 34 35 36 33 36 36 33 36 35 34 33 34
36 37 38 38 39 40 42 42 45 45 46 47 52 52 50 47 45 44 41 41 38 25 15 29 34 34 35 36 37 38 42 44 41 38 38 37 41 39 38 38 37 36 36 36 35 33 28
36 34 37 36 38 40 42 42 44 45 45 47 50 51 48 45 40 43 41 38 24 21 27 27 31 33 32 31 32 35 33 34 33 31 31 35 35 38 38 35 36 37 33 27 26 24 24
35 34 35 37 38 38 40 41 41 44 45 45 45 50 48 45 45 42 41 29 17 21 27 29 31 30 27 31 29 31 32 29 34 32 29 29 28 35 38 35 35 34 30 23 20 20 20
35 34 35 35 36 37 38 39 41 44 45 43 51 48 45 47 44 43 33 21 16 24 28 29 29 27 28 30 31 29 30 29 31 34 26 27 30 35 37 37 34 34 28 26 21 21 19
33 34 34 34 34 35 37 39 39 44 45 50 44 44 44 46 45 41 31 24 26 30 30 30 25 27 24 28 28 28 28 32 31 35 34 29 27 34 35 35 35 28 28 23 21 15 13
34 35 36 36 36 37 36 38 39 43 44 49 45 39 45 46 44 38 27 25 29 33 31 28 29 28 27 27 27 26 28 32 33 34 32 30 27 29 31 31 31 28 26 25 24 23 14
33 35 38 40 39 38 38 38 40 42 41 46 42 32 46 46 35 35 29 28 32 32 35 31 32 31 29 29 26 26 28 30 35 33 30 31 29 27 30 33 34 33 29 25 18 19 21
34 35 39 39 39 39 40 39 40 41 41 43 37 36 46 44 30 31 30 29 32 33 33 31 30 31 29 28 24 28 30 35 35 32 30 30 27 23 23 26 29 30 31 28 26 24 20
34 36 38 40 39 40 40 40 41 41 42 44 38 31 38 40 38 30 28 29 31 35 33 32 30 31 30 28 31 26 33 36 35 34 35 31 27 22 19 21 27 28 30 30 27 23 22
35 38 39 39 38 39 41 41 42 41 44 45 38 33 37 31 33 33 29 29 28 32 33 30 29 30 32 30 29 29 33 35 36 35 34 31 26 26 27 28 29 28 28 30 28 27 23
37 38 39 38 40 39 41 42 40 43 45 44 36 35 37 33 34 33 32 30 30 32 30 28 29 30 30 30 29 28 29 32 32 34 33 32 28 26 25 27 26 25 27 28 29 30 28
38 38 38 39 40 40 41 41 44 42 46 41 42 42 36 33 32 31 30 30 30 31 32 30 29 31 30 30 31 32 33 33 34 33 32 30 28 25 23 24 23 21 23 25 28 29 29
38 38 39 39 39 41 41 43 42 44 46 42 41 39 35 30 30 30 30 31 32 31 31 33 32 31 32 32 33 33 35 35 34 34 34 30 28 26 24 23 17 21 23 25 26 28 29
38 39 39 40 40 41 43 41 43 47 47 41 39 35 32 30 30 30 31 31 35 35 34 33 35 36 35 35 32 31 32 32 30 30 33 32 30 26 23 22 22 24 23 20 22 25 31
39 39 39 40 41 41 42 43 46 46 46 43 37 36 31 30 28 28 32 34 33 33 33 36 39 39 34 30 31 26 25 26 27 28 33 34 32 27 27 22 18 20 25 27 27 18 32
40 39 40 40 41 41 40 43 47 48 46 42 35 37 31 27 28 29 32 32 34 32 32 35 36 35 34 29 26 23 22 26 24 25 28 30 30 28 26 23 22 24 27 25 18 16 32
40 39 40 40 41 41 41 44 48 48 46 41 35 35 31 28 29 30 29 28 33 33 31 34 32 33 31 27 26 26 24 26 25 25 26 26 23 23 26 24 19 27 28 22 22 32 31
39 39 40 41 41 40 43 45 49 49 44 37 31 33 33 30 29 31 32 31 30 30 34 32 29 32 32 28 28 27 25 23 24 22 27 25 26 25 26 23 27 29 28 30 30 29 29

GFSGBSN_sfc_30mbdewp_084.txt.gz
Dewpoint
47 48 49 48 49 51 52 52 54 54 56 59 58 57 56 53 52 51 49 49 48 48 47 47 50 48 44 39 36 40 41 42 46 46 43 41 40 38 35 35 36 35 38 39 40 40 43
45 44 45 46 47 47 49 50 50 52 54 59 59 57 56 54 53 51 49 49 47 46 47 47 49 49 42 35 37 40 42 39 43 42 42 42 39 39 37 36 34 39 38 40 40 41 44
43 44 44 44 44 47 47 46 49 51 51 54 55 58 56 54 53 52 50 49 47 46 47 47 48 47 42 38 38 40 42 43 44 43 41 41 43 40 40 36 37 37 36 38 40 40 41
42 43 44 45 46 46 44 45 45 50 50 53 53 55 56 54 53 52 50 48 46 46 45 46 46 45 38 41 40 41 43 41 45 46 44 43 44 42 41 42 41 36 37 32 38 41 41
42 43 44 45 46 47 45 46 45 45 47 51 53 55 56 53 53 52 49 47 45 46 46 47 45 42 36 41 39 42 44 40 40 42 44 44 43 40 39 37 33 35 31 32 33 42 39
40 42 44 45 46 46 46 45 46 45 46 48 52 53 55 53 52 50 48 46 47 48 47 47 43 39 39 37 40 42 42 42 39 39 40 41 40 34 34 35 27 31 31 33 33 40 38
41 43 42 44 44 43 44 44 44 45 45 46 50 51 55 53 51 49 46 44 40 40 41 35 34 35 37 40 42 40 40 39 39 40 34 36 34 30 32 36 36 33 32 33 36 40 39
41 42 42 43 43 44 43 44 44 45 44 46 48 49 54 52 50 48 47 41 36 35 27 35 36 37 39 40 32 38 42 38 37 34 35 33 31 35 37 37 35 35 32 32 36 39 37
39 38 40 40 40 40 41 41 44 43 45 45 46 49 53 51 49 47 43 41 41 39 30 34 36 36 38 40 34 38 40 38 36 33 33 31 33 38 36 35 34 36 31 33 33 36 39
35 37 39 36 39 39 38 39 41 42 43 45 45 47 51 50 42 44 41 43 42 38 27 28 34 36 40 39 35 40 41 39 38 32 34 35 38 35 35 34 35 33 35 35 35 30 29
36 35 36 36 35 38 39 39 39 40 42 44 46 47 49 46 44 42 40 42 41 33 14 25 34 40 41 36 34 39 45 43 37 35 35 33 36 35 33 34 36 35 36 35 34 32 32
38 38 36 36 36 36 37 37 39 40 43 44 45 44 49 47 45 44 41 41 37 25 14 28 34 34 35 36 36 40 42 44 42 37 36 36 40 39 37 39 38 37 35 35 35 33 27
38 38 37 37 35 35 35 36 37 39 41 42 43 45 46 47 39 44 42 38 26 21 25 27 30 33 32 31 31 34 33 34 34 31 31 33 36 38 39 36 37 36 33 27 25 25 24
37 36 35 35 36 36 35 35 36 37 40 44 45 47 46 46 46 43 39 31 20 18 25 29 32 31 28 31 29 31 31 30 34 31 30 28 28 36 38 36 35 33 31 25 19 21 24
36 34 36 36 38 38 39 37 37 40 42 42 44 48 47 46 46 43 36 26 15 22 28 29 29 26 27 30 30 29 30 29 31 34 26 28 30 36 37 37 36 33 28 27 21 21 20
38 37 36 35 38 40 40 39 39 40 41 43 41 43 42 48 46 41 33 26 23 26 31 29 23 25 24 27 28 28 28 32 32 35 33 29 28 33 35 37 37 33 29 22 21 15 13
37 37 36 35 37 39 41 40 40 40 41 43 41 38 45 48 45 37 29 28 28 32 31 26 28 27 24 27 27 26 28 32 33 33 32 29 28 29 31 32 31 28 26 24 24 22 14
34 35 35 35 38 40 41 40 41 40 42 41 38 30 45 46 34 34 31 28 30 32 35 31 32 30 27 29 26 25 28 30 35 32 30 31 28 27 30 33 33 33 28 23 16 20 20
34 35 35 37 39 40 40 39 40 41 42 41 34 35 46 44 29 31 33 30 31 33 33 31 31 31 30 27 24 28 31 35 34 32 30 29 27 23 23 25 29 29 31 26 24 23 19
34 35 37 38 40 40 40 41 40 41 41 42 35 30 38 39 38 33 31 30 29 34 33 32 31 31 29 27 30 29 32 36 35 35 34 30 26 21 18 22 27 28 30 28 25 20 21
34 35 38 38 40 40 40 41 41 42 42 41 36 32 36 30 32 32 32 29 31 31 33 30 30 30 30 27 29 30 34 35 35 35 34 29 26 26 27 28 29 28 29 30 27 25 21
33 36 38 40 38 40 40 40 42 43 42 39 34 34 36 32 35 32 32 29 29 31 32 28 30 32 31 29 29 29 31 31 31 34 32 31 27 26 25 26 26 25 27 29 30 29 27
34 37 39 38 40 40 41 42 41 42 42 39 42 41 37 33 32 32 29 29 29 31 31 30 30 31 30 30 31 32 33 34 34 32 31 29 28 26 23 24 23 21 24 25 27 29 29
35 39 39 39 40 40 41 41 44 41 44 43 41 39 35 30 32 31 29 30 30 31 30 32 32 30 31 34 34 34 34 33 34 33 33 28 27 25 23 22 17 20 23 25 26 28 29
38 39 39 39 40 40 41 42 41 43 47 42 41 38 35 31 31 30 30 30 34 35 33 33 35 36 34 35 31 30 31 31 30 31 33 31 29 26 22 21 21 23 24 22 22 20 29
38 38 39 39 40 41 42 41 41 45 45 39 38 37 32 30 29 29 31 33 33 32 33 37 38 38 33 32 29 26 24 26 27 28 34 31 30 26 25 21 16 19 25 26 25 18 32
37 38 40 40 41 42 41 41 44 47 45 39 36 37 30 28 28 29 32 32 34 32 33 35 35 34 33 29 28 24 23 26 25 25 29 30 29 26 26 23 23 24 26 24 18 16 32
37 39 40 41 42 41 41 44 46 47 43 37 33 35 30 28 29 30 30 30 33 33 31 34 32 32 30 28 27 25 24 25 25 26 28 26 23 22 26 23 16 27 28 23 22 32 32
38 38 41 42 42 42 43 47 48 46 41 36 30 33 33 29 29 31 31 31 30 30 34 32 30 31 31 28 27 27 25 25 24 21 27 24 24 23 24 22 26 29 27 30 31 30 29

GFSGBSN_sfc_30mbdewp_087.txt.gz
Dewpoint
45 45 46 46 45 47 47 47 48 49 52 52 54 58 59 58 55 54 53 51 50 49 47 48 47 50 43 38 36 39 42 41 46 46 43 41 39 37 35 34 34 32 30 36 40 37 37
44 45 45 45 45 46 47 46 47 47 49 52 52 55 54 57 55 53 51 51 50 48 47 48 47 49 43 36 38 38 42 41 42 42 41 42 39 38 38 37 36 35 32 31 31 38 38
44 44 43 45 46 46 46 47 47 46 47 47 50 52 54 55 56 53 51 51 50 47 47 47 46 47 43 38 38 39 40 41 44 42 39 41 41 39 38 35 36 34 31 32 31 39 40
41 43 42 44 45 45 44 46 45 45 45 47 46 49 52 53 55 53 51 51 48 46 47 46 47 46 39 41 41 40 43 41 45 45 43 43 43 40 38 37 37 33 33 28 36 38 40
42 43 44 44 44 45 44 44 44 44 45 45 47 47 50 51 54 53 51 49 47 46 48 47 46 43 36 41 40 42 43 40 40 40 44 43 43 38 38 34 31 31 25 30 34 39 40
40 43 42 43 42 42 44 44 42 44 45 46 45 46 49 53 54 52 50 47 47 48 47 47 44 38 39 36 40 41 42 42 40 38 39 41 40 36 35 32 26 28 29 32 32 39 39
38 40 42 42 41 42 40 42 43 44 44 44 45 46 47 55 52 50 47 44 41 41 42 36 37 36 36 40 42 40 40 39 39 38 34 38 33 30 33 34 35 32 33 32 35 40 37
38 38 36 38 39 37 40 40 40 42 43 42 42 46 46 51 51 49 46 40 37 34 29 38 38 38 38 39 32 37 42 37 36 32 35 34 30 34 36 36 36 34 32 33 38 39 36
40 40 39 38 37 37 35 37 37 39 41 39 42 45 46 48 50 48 45 41 41 38 29 33 35 34 37 39 34 38 39 37 34 34 33 32 31 38 35 34 34 33 32 33 33 36 38
38 39 39 40 38 38 38 36 36 37 38 38 41 41 44 45 44 44 42 44 43 37 26 29 35 36 40 39 36 39 41 39 37 33 32 35 35 34 35 35 35 30 35 34 34 31 26
38 38 38 39 38 35 35 35 36 36 39 41 40 41 43 45 43 42 42 42 40 34 12 28 35 41 41 35 34 40 43 41 34 34 35 33 36 33 31 33 35 35 36 35 34 32 32
40 39 38 35 37 37 39 40 40 38 38 40 41 40 43 42 45 45 43 41 36 25 16 28 35 35 36 37 36 41 42 43 42 37 36 37 40 38 36 37 38 36 34 33 33 32 24
41 40 40 38 38 34 39 40 40 39 38 39 40 41 42 43 41 47 43 37 27 18 26 28 31 33 32 31 31 35 34 36 33 30 31 33 35 40 39 36 38 34 32 26 23 23 24
40 37 39 39 38 37 38 40 40 41 39 40 42 42 41 41 46 46 41 33 22 21 25 29 32 32 28 30 28 30 30 32 36 32 30 28 27 35 38 36 35 33 31 25 19 21 25
40 37 36 38 37 37 39 40 40 41 40 41 42 41 40 46 47 45 37 26 22 23 29 30 29 26 27 30 29 28 30 30 31 34 27 29 29 37 37 37 36 32 27 27 21 21 21
40 36 35 37 36 37 40 40 41 41 41 42 41 38 40 46 46 42 32 28 25 28 31 29 23 25 23 27 27 27 28 31 32 34 32 30 28 34 37 36 36 33 32 22 22 15 14
40 35 35 36 37 39 40 40 41 40 41 44 38 33 44 47 44 36 28 27 27 31 32 26 26 25 24 26 26 26 28 31 33 32 31 28 28 30 33 33 31 29 26 24 24 21 14
38 34 35 36 38 40 41 41 41 41 42 42 38 29 42 46 32 33 30 28 31 32 33 30 30 29 25 28 25 25 28 30 35 32 29 31 28 27 30 33 32 33 29 23 17 18 18
36 34 34 36 38 40 41 41 41 42 43 41 34 34 44 42 29 30 33 33 32 34 33 31 31 30 30 27 23 28 31 35 34 32 30 28 25 23 22 25 28 29 30 25 24 22 19
34 34 35 36 39 41 41 41 41 41 43 40 35 29 36 38 37 33 31 31 31 34 33 32 31 30 28 28 28 30 32 35 35 35 34 29 24 21 17 22 27 27 29 27 23 16 19
34 34 35 38 40 40 41 41 42 43 45 39 35 31 36 30 31 33 33 32 31 31 33 31 30 29 27 28 28 30 34 34 34 35 33 28 26 26 26 27 29 28 29 29 26 23 18
34 34 36 40 41 40 41 41 42 42 43 39 32 33 36 33 35 33 32 31 30 32 31 29 30 31 29 27 29 29 32 31 30 33 31 30 26 25 25 25 25 25 27 29 30 27 26
34 36 38 40 40 40 41 41 42 43 42 38 41 41 37 32 32 31 31 29 29 30 31 30 31 31 30 30 31 32 33 34 33 31 30 28 27 25 23 23 22 20 23 27 28 29 28
34 37 39 39 39 40 41 42 42 42 42 42 40 40 35 30 32 32 32 31 30 32 30 32 32 30 32 35 35 34 33 33 33 33 31 27 26 24 22 21 15 20 23 25 25 27 30
36 38 39 39 40 41 42 42 42 40 42 43 42 40 37 30 33 31 30 30 34 34 33 34 36 35 34 34 31 29 29 28 30 34 32 30 28 25 22 20 19 22 24 22 22 20 28
37 39 38 39 41 43 43 41 41 44 46 39 39 38 34 30 28 28 30 31 33 34 33 36 38 36 34 31 28 25 23 26 25 28 34 30 28 25 24 20 15 19 24 24 24 17 30
39 38 38 40 42 43 41 44 45 46 42 38 35 37 31 28 28 29 31 32 34 34 32 35 34 33 33 31 26 23 23 26 24 24 28 30 29 25 23 21 22 24 26 25 17 14 32
40 39 39 40 42 42 43 45 47 47 42 36 32 35 30 28 29 30 30 30 33 33 31 34 33 34 31 31 28 24 23 25 25 26 28 26 23 23 24 22 16 26 27 22 22 31 32
40 39 39 42 43 42 43 48 47 46 42 37 30 33 33 29 28 31 31 31 30 30 34 32 31 31 32 28 27 26 24 25 23 20 27 25 23 21 23 21 24 28 27 29 30 31 31

GFSGBSN_sfc_30mbdewp_090.txt.gz
Dewpoint
45 45 45 45 46 47 47 48 48 47 47 47 47 49 52 55 54 57 54 53 50 50 49 47 48 50 44 39 36 37 41 42 44 42 36 34 34 33 31 31 32 32 31 30 26 24 27
45 44 45 44 45 45 44 45 46 46 45 47 46 45 49 52 52 56 54 52 51 51 48 47 47 50 43 37 38 39 40 40 38 40 37 36 33 35 35 34 36 33 32 31 28 29 30
44 44 45 43 44 46 45 45 44 45 46 46 46 46 46 49 50 53 54 52 51 49 47 47 46 47 43 39 39 37 39 37 38 39 36 36 36 37 35 33 36 37 35 31 28 28 33
42 42 43 43 43 43 43 44 44 43 45 46 47 45 46 47 48 52 54 52 50 47 47 47 47 45 36 42 41 40 39 40 43 42 41 40 40 39 37 37 36 35 32 27 30 30 32
42 39 41 42 43 43 42 43 43 42 44 44 43 43 45 46 48 55 53 51 49 48 47 47 45 40 36 42 40 41 42 39 40 40 41 40 43 37 37 32 31 32 24 26 28 35 33
44 42 41 39 39 41 40 41 42 42 43 43 41 43 45 47 51 54 51 49 48 47 48 47 43 38 39 34 40 40 41 41 39 38 37 38 39 35 35 32 22 27 24 27 26 33 36
43 42 43 43 43 40 39 39 38 39 40 43 40 42 42 45 51 52 48 46 42 41 42 36 36 36 34 40 41 39 40 39 38 37 32 37 34 29 33 35 32 32 25 32 31 36 35
43 43 40 42 41 42 41 39 38 37 37 38 40 39 41 43 47 50 46 40 39 36 32 38 37 38 38 40 34 36 40 37 37 31 33 33 30 31 35 36 34 33 27 31 35 37 34
42 43 41 40 40 39 39 37 38 40 38 36 37 38 40 42 45 49 45 42 42 39 29 32 37 36 35 38 34 36 39 37 33 31 32 31 30 37 37 34 33 32 27 32 34 37 36
42 42 42 42 41 38 38 37 40 41 42 40 37 37 41 41 42 44 42 44 44 40 28 29 34 36 40 39 35 39 40 37 35 32 31 34 33 33 36 34 35 29 33 33 33 33 28
42 42 41 40 40 41 40 37 41 41 41 41 39 38 41 41 41 42 44 45 44 37 21 32 35 41 40 36 36 39 42 39 34 32 34 30 32 31 31 31 36 32 35 35 33 32 30
43 42 41 38 38 40 40 39 40 40 41 41 40 40 42 40 40 44 46 44 38 28 19 29 36 36 36 37 36 42 42 43 41 38 36 36 40 39 37 37 37 37 34 33 33 31 26
44 43 41 39 35 39 38 40 40 40 41 41 41 41 42 40 37 47 46 39 28 23 26 30 31 34 32 32 33 37 36 37 33 30 31 33 35 40 41 37 36 34 30 26 24 25 25
47 45 41 38 36 38 39 40 40 41 41 42 42 42 42 41 40 45 43 32 24 23 23 30 32 32 28 29 29 31 32 32 34 32 31 30 28 35 38 36 34 32 31 25 19 21 25
48 45 42 36 36 38 39 40 41 41 42 42 43 43 41 40 41 45 36 27 27 24 28 31 30 26 27 30 29 29 31 30 32 34 29 30 29 37 38 37 36 32 27 28 23 24 21
47 45 41 35 36 39 40 40 41 42 42 42 42 39 37 41 43 41 32 30 27 30 32 30 23 25 23 26 26 28 29 32 32 33 33 30 29 35 36 36 36 32 31 25 25 17 17
45 45 38 35 37 38 40 41 42 42 42 43 40 33 41 46 43 36 29 31 31 32 34 28 25 24 24 26 26 25 28 32 34 32 30 29 29 32 34 33 31 30 26 24 24 21 16
46 43 34 36 37 40 41 42 42 42 42 43 38 29 40 45 32 32 30 32 34 34 33 32 30 26 25 27 25 26 28 31 35 32 29 31 29 29 30 32 32 32 29 24 19 19 19
44 36 34 36 38 40 41 42 42 42 43 41 34 32 42 42 29 31 34 34 35 34 34 31 32 30 29 25 24 29 32 35 34 34 30 29 27 25 25 26 29 29 28 26 24 23 20
41 34 35 37 39 41 42 42 42 43 44 41 35 29 35 36 37 32 32 31 32 35 35 33 31 29 27 28 29 30 32 35 36 35 34 28 26 24 19 24 28 27 29 28 25 23 17
36 34 36 38 40 41 41 42 42 43 44 40 34 32 35 30 32 34 34 32 31 32 35 31 31 29 26 27 28 30 33 33 34 34 33 29 28 28 26 27 29 29 28 28 26 23 21
35 35 37 39 40 40 41 42 43 43 43 39 33 34 35 34 35 33 33 31 32 31 32 31 30 30 28 26 28 28 31 30 30 32 31 30 28 27 26 25 25 25 27 29 29 26 26
35 37 38 40 39 41 42 43 43 43 43 39 40 40 37 32 32 32 31 32 30 33 32 31 32 30 29 31 31 32 33 33 33 31 30 29 29 28 24 24 23 20 23 27 29 30 28
36 37 39 37 39 41 42 44 43 43 42 42 40 39 35 29 32 32 32 32 30 34 31 33 33 31 32 35 34 33 33 33 32 32 30 28 27 27 24 23 16 22 24 26 26 27 30
36 39 38 39 40 42 43 42 42 44 45 44 43 40 37 31 33 33 31 31 32 35 34 35 36 35 35 34 30 28 27 26 30 33 31 29 28 26 24 21 20 22 24 23 23 20 27
38 40 39 39 40 43 43 43 44 45 46 43 42 40 36 31 28 28 30 31 32 33 34 35 36 36 35 31 28 25 21 25 24 28 33 29 28 25 25 20 14 19 24 24 24 17 29
38 40 39 40 41 43 43 44 47 46 44 41 37 37 32 29 29 29 31 31 34 36 34 34 34 33 36 32 27 23 24 26 23 23 26 28 27 24 22 21 21 24 27 26 17 16 32
39 40 40 40 42 43 44 48 48 46 40 37 34 35 32 29 29 30 30 32 33 34 32 35 35 35 36 33 28 25 23 26 25 26 28 26 23 23 22 21 18 26 27 22 23 29 33
39 41 40 41 43 44 48 48 47 45 40 36 32 34 33 31 30 31 31 31 31 31 34 33 33 34 34 33 28 27 24 26 24 20 27 26 24 22 23 21 25 28 28 28 29 31 33

GFSGBSN_sfc_30mbdewp_093.txt.gz
Dewpoint
46 45 46 45 46 46 46 47 46 45 45 46 46 47 46 47 48 51 52 56 54 51 50 49 48 51 45 39 36 37 42 42 43 41 34 32 31 28 26 24 24 27 28 28 28 29 28
44 44 45 45 44 44 42 43 45 44 44 47 46 46 45 47 47 48 49 56 54 52 51 48 48 50 42 36 38 37 36 37 36 38 34 34 33 29 28 29 30 29 32 33 32 30 28
45 44 42 43 42 43 44 43 42 43 42 45 45 43 45 44 47 47 49 52 52 52 50 48 48 46 41 36 38 38 37 35 36 36 35 34 35 31 28 28 28 32 33 35 34 31 29
44 45 43 43 42 41 41 41 41 43 43 44 44 42 42 43 44 47 49 53 53 50 47 47 47 44 38 39 40 39 38 38 39 38 37 36 37 34 32 30 32 30 30 29 28 29 28
43 43 43 43 44 42 43 42 42 40 40 41 42 42 41 42 44 49 53 54 52 49 48 48 44 42 34 42 39 38 38 36 37 40 39 38 38 35 36 32 30 32 26 27 24 31 28
44 44 44 43 43 43 43 43 42 42 40 39 41 41 40 41 43 52 53 50 49 48 47 45 44 39 37 34 38 40 38 39 36 36 35 35 36 34 35 31 23 28 28 26 24 29 33
45 44 43 44 42 42 41 40 41 38 40 42 40 38 37 39 42 47 49 48 42 41 44 38 37 35 34 40 40 37 38 39 37 35 29 34 33 29 30 31 32 31 29 28 27 30 32
44 43 43 44 44 43 42 40 39 39 41 42 42 41 38 38 41 43 48 41 42 39 35 39 36 37 37 38 34 36 38 36 35 32 33 33 30 28 35 36 35 32 28 26 35 35 35
45 45 43 43 43 41 40 42 41 40 41 41 42 42 39 39 41 44 45 43 47 42 33 31 37 35 36 37 33 34 38 36 33 29 29 30 30 34 34 35 33 30 27 32 33 34 35
46 46 45 43 42 40 38 40 42 41 41 41 42 42 39 41 36 38 38 44 48 43 31 30 33 34 38 37 34 39 39 36 33 30 29 29 30 31 34 34 35 30 30 35 33 33 28
50 49 48 47 44 40 37 38 41 41 41 41 42 42 41 42 37 36 43 46 44 37 21 32 34 40 38 35 37 38 40 37 33 31 32 32 32 30 30 34 34 32 31 37 35 31 33
53 52 49 46 44 38 38 40 40 41 41 42 42 42 42 37 37 37 44 46 38 28 21 30 35 36 35 35 35 41 41 41 41 37 37 34 39 37 34 35 36 35 35 34 35 31 28
52 53 47 44 42 38 40 40 40 41 41 42 42 42 42 38 35 42 47 40 27 23 28 29 30 33 31 33 33 36 37 35 34 30 30 34 34 37 39 35 37 37 32 27 27 26 24
53 48 45 43 39 40 40 40 41 41 42 42 43 43 43 40 40 40 42 31 23 26 25 29 29 30 28 30 29 32 31 33 35 33 31 30 29 35 38 37 36 36 30 27 23 23 22
47 46 42 41 40 38 38 39 41 42 42 43 44 42 41 42 41 41 35 25 28 26 28 28 29 26 27 28 29 31 34 35 35 36 31 31 30 38 37 36 36 29 27 27 25 23 20
46 45 43 38 38 38 40 41 42 42 43 44 42 39 37 41 41 40 31 30 29 32 30 28 23 24 22 25 27 30 32 32 32 31 32 30 30 35 35 36 35 32 29 27 26 23 18
46 45 36 36 38 40 42 42 42 42 43 43 40 34 41 41 41 36 28 31 34 35 33 28 23 22 22 23 26 26 28 32 32 31 30 29 29 31 34 31 29 29 25 23 23 21 18
44 38 36 37 38 41 42 42 42 43 44 41 38 30 42 43 32 34 33 34 37 35 34 32 29 24 23 24 25 26 28 31 33 32 28 30 29 29 29 31 31 30 25 23 21 17 21
41 36 36 38 40 41 42 42 42 43 44 41 34 33 42 43 29 31 33 34 36 34 34 33 29 28 27 24 24 29 31 35 34 33 29 27 27 26 24 27 29 27 27 25 23 25 20
38 36 37 39 41 41 42 43 43 43 44 39 34 31 36 39 38 31 31 32 32 36 35 34 31 26 25 24 27 29 31 34 35 34 34 30 27 27 23 26 29 27 26 23 26 24 18
37 37 38 40 40 41 42 43 44 44 43 39 35 32 36 31 33 32 32 33 31 32 36 32 30 26 24 23 25 29 31 32 32 33 31 29 27 28 26 26 27 27 26 24 24 20 20
36 38 39 40 39 41 43 44 45 43 43 39 35 35 36 34 32 33 34 32 32 33 31 30 29 27 26 25 26 25 28 26 28 30 30 30 28 28 26 25 25 25 26 26 26 23 23
36 38 40 39 40 41 43 45 43 43 43 38 41 40 38 34 33 33 31 32 33 32 31 32 32 27 29 31 31 31 31 31 31 29 28 29 29 29 24 25 23 20 22 26 27 28 25
37 39 41 40 40 41 43 44 43 44 43 41 41 40 36 30 32 32 32 32 30 33 31 33 34 31 33 34 32 31 30 30 30 29 29 27 28 29 25 26 21 23 24 25 25 26 29
38 39 41 40 41 42 43 44 44 45 46 42 44 40 38 31 32 32 30 30 30 33 35 35 35 35 35 34 28 26 25 25 27 30 28 28 27 26 25 19 19 21 23 23 23 21 25
38 40 41 41 41 43 44 45 45 46 46 44 43 42 37 33 28 29 30 30 30 33 33 35 36 36 36 30 26 23 20 24 22 26 29 27 26 25 23 20 11 20 24 23 24 18 27
38 40 41 41 42 44 45 47 48 47 45 43 40 39 34 30 30 30 29 31 36 35 33 34 36 35 37 31 25 21 22 26 21 22 24 26 25 24 22 21 20 24 26 26 16 22 30
38 40 41 42 43 45 49 48 47 46 42 40 36 36 35 30 31 31 31 33 35 35 31 34 34 35 35 31 27 23 21 24 24 25 26 24 22 22 21 21 18 26 26 22 24 29 31
38 41 42 42 43 46 48 47 44 41 40 36 33 33 34 33 31 32 32 32 32 32 34 36 34 35 35 33 29 26 23 25 22 18 28 24 25 22 23 21 25 27 28 28 29 29 32

GFSGBSN_sfc_30mbdewp_096.txt.gz
Dewpoint
47 46 44 44 45 44 45 44 44 43 43 43 45 45 45 44 45 46 47 49 50 57 53 50 48 50 47 40 37 44 47 47 47 41 37 31 31 30 28 26 25 23 25 27 27 27 28
46 47 46 46 44 44 42 43 42 41 42 43 44 44 44 43 43 43 45 48 49 52 52 50 48 51 43 35 37 40 38 37 37 40 36 33 31 31 28 27 27 28 28 28 29 30 32
46 46 46 46 45 45 44 44 44 43 42 41 41 42 43 42 41 42 44 46 47 53 54 50 48 47 41 37 37 37 36 35 36 36 34 33 32 33 30 27 27 29 30 31 31 32 32
46 46 46 45 45 43 45 44 45 44 43 42 40 40 41 40 40 42 46 52 51 55 51 50 49 45 38 40 41 37 37 36 37 37 35 35 36 34 31 32 30 28 32 27 27 30 31
46 46 45 44 46 44 43 44 43 41 41 40 41 42 42 40 39 41 44 52 53 51 49 48 45 42 37 42 38 38 38 36 35 38 38 36 36 34 32 32 30 32 25 26 27 30 29
47 46 45 44 44 45 46 44 43 41 40 41 42 42 43 42 39 41 43 51 50 49 48 47 44 40 38 36 37 38 38 36 35 36 37 36 34 31 31 31 22 23 28 29 29 27 30
48 48 47 46 45 44 44 41 42 43 41 42 41 42 43 43 40 40 44 44 42 41 45 40 39 35 35 39 40 38 37 37 36 33 30 32 30 28 29 31 30 29 29 28 29 29 34
51 50 50 49 49 48 45 40 40 41 43 42 41 43 43 43 40 40 44 38 40 43 37 41 41 36 36 38 36 36 38 35 34 29 30 32 30 31 32 35 35 33 31 28 30 36 35
51 51 54 53 51 46 44 42 40 42 42 42 42 42 43 42 41 40 38 41 47 45 35 34 39 36 36 37 32 35 37 36 34 31 29 29 29 34 35 34 33 33 30 28 31 35 34
52 52 53 48 43 44 44 43 42 42 41 42 42 43 43 42 35 34 36 45 48 47 31 31 34 35 35 37 33 37 38 36 31 28 28 29 30 29 36 33 34 30 31 30 33 32 29
53 49 46 44 43 45 42 42 42 41 42 42 43 43 42 42 39 35 35 44 47 43 20 33 33 36 36 35 36 38 39 36 31 33 35 31 34 36 32 30 36 31 38 35 34 34 31
48 46 44 41 41 40 43 42 41 41 42 43 43 43 43 37 37 37 44 45 42 28 21 32 36 36 33 34 36 38 39 40 41 37 36 35 38 37 34 35 35 35 34 35 34 33 27
46 45 39 40 41 42 39 38 41 41 42 42 43 43 43 40 36 40 42 40 27 22 33 30 31 33 30 31 33 36 36 35 33 30 30 34 34 35 37 35 36 36 34 27 25 26 26
46 43 41 42 40 39 40 41 42 42 43 43 43 43 42 40 42 40 40 32 22 30 30 30 30 30 33 32 33 32 35 33 36 34 31 29 27 34 38 37 36 34 33 28 21 24 26
46 43 37 38 39 40 41 42 42 42 44 45 45 42 41 41 41 42 35 25 26 30 32 29 28 29 31 29 30 32 34 33 36 35 31 31 30 38 39 36 36 33 29 27 27 28 26
44 39 37 38 39 41 42 42 42 43 44 44 42 38 39 43 42 40 31 29 32 37 32 28 24 27 25 26 32 33 34 32 36 34 35 32 30 34 34 37 35 33 31 27 27 24 22
42 38 38 39 41 42 42 42 43 43 44 43 39 35 40 42 40 36 29 31 35 35 33 29 25 23 24 26 32 31 29 32 32 31 31 30 33 32 34 31 29 29 25 24 23 21 22
41 37 38 40 42 42 42 43 43 44 44 41 37 29 40 45 34 34 32 35 38 35 34 32 30 25 24 25 26 28 30 32 33 32 28 30 30 29 28 31 30 30 26 25 21 20 23
40 38 39 40 41 43 43 44 44 44 43 42 35 36 42 43 31 31 31 32 35 35 34 33 28 26 25 24 26 28 31 34 34 33 30 29 26 27 25 28 29 27 25 26 24 29 20
39 38 40 41 40 43 44 45 45 44 44 42 35 31 36 40 37 31 29 30 32 35 36 34 28 25 24 25 28 30 31 33 34 33 34 33 28 27 25 26 29 26 25 24 26 22 22
38 39 40 41 40 42 44 45 44 44 44 42 36 33 35 31 32 31 32 32 31 32 35 33 28 24 24 22 27 29 30 31 31 31 31 30 27 27 26 26 27 26 26 24 21 21 23
37 40 41 41 41 42 43 45 44 44 45 39 34 36 36 34 34 31 33 32 32 31 31 31 27 27 29 28 26 26 27 28 29 29 29 30 26 29 24 25 25 24 26 27 27 22 24
37 40 41 41 41 42 44 45 45 45 44 37 41 40 38 33 33 32 32 33 31 32 31 33 32 30 31 32 30 30 30 30 30 29 28 29 29 30 23 24 23 21 23 26 27 28 27
36 40 41 41 41 42 43 45 46 45 45 40 41 41 37 30 31 30 30 32 30 33 32 35 34 32 34 35 34 30 29 29 29 29 28 27 28 29 26 26 21 24 24 24 25 27 28
36 40 41 42 42 42 44 45 46 46 46 42 42 41 38 29 28 31 30 30 31 34 34 35 35 35 35 35 29 26 25 25 27 29 28 29 27 26 25 21 19 22 24 23 23 23 26
36 40 41 42 43 44 46 48 48 47 46 44 42 43 38 34 28 29 29 31 29 31 33 35 36 37 37 34 27 23 22 23 22 25 28 27 26 25 24 20 14 22 24 23 24 22 29
37 39 42 43 43 46 49 49 48 48 46 44 41 39 35 32 30 31 30 33 35 35 33 34 36 35 37 32 25 23 23 25 22 21 24 25 25 24 22 22 21 25 26 26 18 24 30
38 40 42 43 44 47 48 48 47 45 42 40 37 37 37 33 32 31 32 32 34 36 32 34 34 35 35 31 28 24 22 25 24 25 25 24 22 22 22 21 18 26 26 23 25 31 32
38 40 42 43 44 47 47 44 42 41 40 39 35 34 34 34 33 33 32 32 32 32 32 36 34 36 36 34 30 27 24 24 23 19 29 23 26 24 23 24 25 27 28 28 29 30 32

GFSGBSN_sfc_30mbdewp_099.txt.gz
Dewpoint
48 48 47 47 47 46 46 46 44 45 44 44 42 42 43 44 44 43 41 43 45 48 49 55 52 50 48 42 40 45 48 49 49 47 43 36 31 32 30 28 28 28 28 28 29 29 29
48 47 47 47 47 47 45 45 45 46 45 44 43 42 41 42 42 41 41 43 47 48 49 55 51 51 45 36 42 47 46 47 45 42 38 35 32 32 30 28 27 28 27 28 29 29 29
49 48 47 47 45 45 47 44 44 45 44 42 42 42 42 42 42 40 41 43 45 50 50 55 53 49 42 37 42 45 38 38 37 40 37 35 34 32 33 29 30 29 27 28 28 28 30
50 50 49 48 47 45 45 46 47 45 43 42 41 41 42 43 43 41 40 43 45 52 53 53 53 48 40 42 42 36 36 35 37 37 36 36 36 34 33 32 32 30 30 26 28 29 31
52 53 53 52 50 49 48 48 46 44 43 43 42 41 42 44 43 42 41 44 50 52 52 51 48 45 38 43 40 39 37 36 37 37 37 36 37 35 33 31 27 30 24 26 26 29 30
50 51 52 51 51 53 52 50 47 41 42 43 43 42 42 43 43 41 41 44 50 51 50 48 46 41 39 37 38 38 38 37 36 38 37 37 36 32 29 28 21 22 26 28 27 31 33
51 53 54 52 53 48 45 45 46 43 43 43 43 42 42 43 42 41 42 40 37 42 45 38 39 37 38 40 40 38 37 37 35 35 29 33 29 26 26 28 28 28 27 27 30 31 30
49 47 47 45 43 43 44 45 44 44 42 42 42 42 43 43 42 42 44 38 38 39 36 42 42 39 39 38 36 37 38 35 32 30 31 32 28 29 30 30 31 32 31 29 30 31 33
48 49 46 45 42 44 45 43 44 43 42 43 43 43 43 43 42 38 38 40 44 46 35 39 42 38 38 37 35 36 38 36 34 31 31 29 27 32 31 32 33 32 30 31 30 29 35
46 46 42 41 41 41 41 43 43 42 42 43 43 43 43 42 36 36 39 43 47 47 31 35 39 39 37 37 33 38 38 36 34 29 29 29 29 30 28 30 34 30 31 35 34 32 28
47 40 41 42 42 42 42 40 41 42 42 43 43 43 43 43 38 37 40 45 46 41 20 34 35 38 37 35 37 37 39 37 33 30 34 31 33 34 34 33 35 32 35 34 36 33 31
46 42 40 40 40 40 42 42 43 43 43 43 43 44 44 39 37 41 41 45 42 27 20 32 35 34 34 34 38 38 38 39 40 36 34 34 37 36 34 35 35 35 33 34 35 33 26
44 39 38 39 39 42 42 42 42 43 44 44 44 43 43 41 35 40 40 39 27 22 35 29 33 32 30 32 36 35 35 35 33 29 30 34 34 36 36 34 36 36 33 26 24 25 25
43 39 39 39 41 42 42 42 43 45 44 43 45 44 42 41 42 41 39 31 24 31 31 32 31 32 32 31 34 34 36 33 36 34 30 29 27 35 39 37 34 35 32 27 20 24 26
42 38 40 40 41 42 42 43 43 44 42 41 41 40 40 43 41 42 34 26 27 31 34 29 32 32 32 32 31 34 34 33 37 34 29 30 30 37 38 38 36 33 32 34 29 31 28
42 39 40 41 42 42 43 43 44 45 44 41 39 37 40 42 42 39 30 29 32 36 34 30 27 30 26 29 33 32 33 37 37 36 36 35 30 35 35 37 35 34 34 28 29 22 23
42 39 40 41 42 43 44 44 44 44 45 44 38 33 37 43 41 35 30 31 34 35 35 29 28 27 27 31 34 34 32 32 33 33 35 35 35 29 34 29 28 30 27 26 25 25 23
41 39 41 41 41 43 44 45 44 44 45 43 36 27 37 44 32 35 31 33 36 34 35 34 30 26 25 26 28 30 30 33 35 33 30 31 31 29 27 30 31 30 28 25 21 20 24
41 39 41 41 42 45 44 45 44 44 45 43 35 35 40 42 30 30 32 32 34 34 34 33 27 26 25 24 27 30 32 34 35 32 27 29 27 26 25 26 27 28 26 25 25 26 22
41 39 41 41 42 44 44 45 45 45 45 41 35 30 34 39 37 32 29 30 31 35 35 35 31 25 24 29 30 30 31 33 34 32 33 33 28 26 23 24 28 25 26 26 25 23 25
40 38 41 42 42 43 44 45 46 45 46 40 35 32 35 29 31 33 33 32 31 31 34 34 28 29 26 27 28 28 30 31 31 31 30 29 26 26 25 26 26 26 26 27 23 24 22
40 38 42 42 42 43 44 45 46 46 46 38 33 34 35 33 33 33 32 32 30 31 32 32 32 32 31 30 29 28 28 29 29 30 29 30 25 29 24 25 24 24 25 27 27 25 26
40 38 41 42 43 43 44 46 46 46 42 37 40 40 38 33 31 31 31 32 32 34 33 35 33 32 31 33 34 33 30 30 29 28 28 28 29 29 20 24 24 17 23 25 27 28 26
40 37 41 42 43 43 45 46 46 47 45 40 40 41 36 28 28 29 30 31 31 33 34 35 34 32 34 35 35 31 30 29 29 29 29 27 28 28 21 25 11 23 24 24 25 26 29
40 37 41 42 43 44 47 48 47 47 46 41 42 41 37 26 27 31 30 30 31 34 34 34 34 35 36 36 30 27 26 25 27 28 28 28 27 24 22 19 20 22 23 23 23 23 27
39 38 41 43 44 47 49 49 49 47 46 42 43 42 38 33 27 29 29 33 29 32 33 35 36 37 37 35 27 22 21 23 23 23 28 27 27 25 23 17 13 21 24 24 24 19 29
38 39 42 43 45 48 48 49 48 47 46 43 40 38 36 32 30 31 30 32 35 35 33 33 35 33 37 32 26 22 22 24 23 21 23 25 25 24 23 21 22 25 26 26 17 20 30
36 40 42 43 45 48 47 47 46 44 40 40 36 37 35 33 31 31 32 32 33 34 32 34 33 33 34 29 28 25 22 24 22 24 25 24 22 22 22 20 16 26 26 22 25 31 32
36 39 42 43 44 47 44 43 44 43 41 40 34 35 35 34 32 33 32 33 33 33 32 33 34 35 34 33 30 28 24 24 23 18 28 20 25 23 23 22 25 27 27 28 30 31 32

GFSGBSN_sfc_30mbdewp_102.txt.gz
Dewpoint
51 51 51 50 49 49 48 48 47 46 46 46 45 43 44 43 42 43 41 41 43 46 48 50 57 55 48 41 40 45 49 48 46 43 41 40 33 31 29 29 29 28 29 30 30 30 31
51 51 52 53 54 53 50 47 49 46 47 46 44 42 42 42 43 43 41 40 42 45 47 49 54 52 46 37 41 47 49 49 48 45 42 35 32 32 31 29 27 28 28 29 29 29 29
50 51 52 52 53 52 52 54 50 49 49 48 43 41 42 42 43 43 43 41 42 45 48 51 54 48 43 40 45 47 46 45 45 41 38 37 35 31 33 30 32 31 29 29 27 27 28
51 52 49 47 48 49 51 53 52 50 49 47 44 43 41 43 43 43 43 41 43 48 52 53 52 47 40 48 45 41 38 37 39 40 37 36 37 34 33 32 30 29 30 25 27 29 29
48 47 47 47 44 44 44 48 47 47 47 45 44 43 42 43 43 43 42 42 42 50 52 53 48 42 39 48 39 37 37 35 36 37 36 37 36 33 34 28 26 26 24 25 26 29 29
47 47 45 45 43 44 44 45 45 45 45 44 43 43 42 43 44 43 43 45 47 51 49 47 47 39 42 40 40 38 37 37 37 37 35 37 34 31 29 26 18 21 24 26 27 29 31
45 42 41 41 42 43 44 44 45 45 44 43 43 43 43 44 43 42 43 40 36 39 45 38 39 39 40 41 40 38 38 36 35 34 28 33 29 25 26 27 25 26 26 26 28 30 31
42 40 41 42 42 42 42 43 43 43 43 43 43 43 43 43 42 41 40 36 37 37 35 44 42 40 39 38 36 37 38 34 32 29 30 31 26 28 28 28 27 27 28 28 30 31 31
42 41 40 41 41 42 42 42 42 42 42 43 43 43 43 43 41 38 39 38 44 44 34 39 42 38 37 37 36 36 37 36 32 30 30 27 27 31 30 29 29 30 29 29 29 33 35
40 39 39 40 40 42 43 43 43 43 43 43 43 43 43 42 34 38 38 43 45 46 31 31 36 40 37 37 35 38 38 37 35 31 31 32 33 31 29 28 32 28 32 31 33 32 27
41 40 40 38 41 42 43 43 44 44 45 44 44 44 44 43 37 37 40 45 46 41 18 35 36 41 38 35 36 36 39 37 33 28 32 28 32 34 33 33 31 33 33 34 32 31 32
41 40 40 41 41 43 44 45 45 44 45 46 43 44 44 38 38 40 42 45 41 27 19 31 35 36 34 36 37 39 38 39 40 35 34 33 36 35 34 34 34 34 33 33 33 32 26
41 41 40 42 40 42 44 46 45 43 44 45 45 43 43 41 35 41 41 40 26 22 33 29 33 34 32 34 34 35 35 32 31 29 29 33 34 37 36 34 35 35 33 24 24 25 23
41 41 41 41 42 44 45 45 45 42 42 43 44 43 43 42 42 42 39 30 23 29 30 35 32 32 30 33 34 34 34 33 36 34 30 27 26 35 37 36 34 34 33 26 20 22 26
41 41 41 41 43 44 44 45 45 43 42 41 41 40 40 41 42 40 32 26 27 30 34 32 34 31 31 33 35 35 33 33 35 34 29 30 29 37 38 38 37 35 31 36 29 30 27
42 41 41 41 43 45 45 45 45 46 46 44 38 37 37 41 43 38 32 30 33 35 35 32 28 30 28 32 33 33 33 36 36 35 35 35 29 34 34 38 37 35 37 29 29 21 22
43 41 42 42 43 44 45 46 45 46 46 43 36 30 36 41 41 34 30 30 32 35 35 30 28 27 31 32 33 34 32 32 34 35 37 36 33 26 33 30 28 31 32 32 30 28 23
43 40 42 42 43 44 45 46 46 46 47 41 35 28 36 42 30 33 30 33 34 34 36 34 30 26 26 31 31 30 30 32 35 33 33 33 31 29 27 29 32 30 29 28 24 24 24
43 39 42 42 43 44 45 46 46 46 47 40 34 34 40 41 30 30 30 31 33 33 34 33 28 26 25 25 28 31 31 33 35 32 28 30 27 26 24 20 27 28 27 27 25 25 23
44 39 42 43 43 44 45 46 47 46 47 39 33 28 32 36 36 32 29 31 30 34 34 34 33 27 28 29 31 30 30 32 34 32 34 32 27 25 21 25 28 25 27 26 25 24 27
44 39 42 43 43 44 44 45 47 46 46 37 33 31 35 29 31 33 32 32 30 30 33 34 31 31 28 27 27 28 28 29 30 31 31 28 25 26 25 25 25 25 26 27 25 25 27
44 40 40 43 43 44 45 46 47 47 44 38 32 32 34 31 32 32 31 30 31 32 33 32 32 32 32 31 31 29 29 29 29 29 29 30 26 29 22 24 23 22 25 27 27 27 29
44 41 39 42 43 44 45 46 47 47 42 37 39 40 36 31 30 29 30 31 32 34 33 34 33 31 31 32 34 34 33 29 29 28 27 28 27 27 16 26 23 16 22 24 27 28 27
43 40 39 42 44 46 47 49 48 47 44 39 40 39 31 26 28 29 30 31 31 31 34 34 34 31 34 36 35 33 30 29 28 28 29 27 28 27 20 22 7 20 24 24 25 27 30
43 39 40 43 45 47 49 49 48 47 45 41 41 39 36 26 28 30 30 30 31 33 34 34 34 35 36 35 29 25 25 24 24 28 28 28 28 23 20 16 17 21 23 23 22 24 28
42 38 41 43 45 48 49 49 48 47 44 42 41 41 36 30 26 29 29 31 31 32 32 33 36 37 37 33 26 21 18 21 21 22 26 27 27 24 22 15 8 20 24 24 24 17 28
42 37 41 43 45 47 47 48 47 46 45 42 39 38 35 31 30 31 30 31 34 34 32 33 34 33 35 30 25 22 21 24 20 20 22 23 24 22 22 20 21 24 25 25 15 14 29
42 37 41 43 45 46 45 44 44 43 42 39 35 37 35 32 31 32 32 32 33 34 32 33 32 33 33 27 28 25 22 24 23 22 24 20 21 22 23 20 11 26 25 19 22 31 32
42 37 41 43 44 47 44 44 46 43 42 40 34 36 36 34 32 33 33 33 33 33 33 33 34 34 34 32 30 28 24 24 22 17 26 22 24 22 22 21 24 27 26 27 31 31 32

GFSGBSN_sfc_30mbdewp_105.txt.gz
Dewpoint
51 51 49 48 45 43 44 46 48 51 51 49 50 47 43 45 43 43 43 43 42 42 44 47 49 56 47 41 41 43 49 52 47 42 41 38 33 31 30 29 29 28 29 29 30 30 30
49 48 45 46 43 43 44 44 48 50 53 51 50 46 42 42 43 44 44 43 42 42 45 47 53 49 44 38 48 47 49 46 44 42 42 36 33 32 31 29 28 29 30 30 30 29 30
47 46 44 44 43 43 43 45 45 47 48 50 49 47 42 42 43 43 44 43 42 43 44 48 52 49 42 41 50 51 47 47 46 41 38 36 34 31 32 29 32 31 28 29 26 27 27
46 42 41 42 43 42 43 44 44 45 46 46 47 46 43 43 43 44 44 43 44 44 48 51 51 46 41 49 51 50 43 39 41 38 36 37 36 34 32 32 28 26 28 23 24 29 28
42 41 42 44 42 40 41 42 43 44 44 44 44 44 43 43 44 44 43 44 45 51 51 52 47 43 40 48 46 45 38 37 37 37 36 38 35 32 33 26 25 25 20 24 26 30 29
42 40 42 41 42 42 42 42 42 42 43 43 43 43 43 44 43 43 43 44 45 49 49 47 46 41 43 41 44 41 38 38 37 36 35 36 33 30 29 25 14 19 23 24 25 27 30
41 40 41 41 42 43 43 43 43 42 42 42 43 43 44 43 42 42 41 38 36 38 41 39 39 40 41 43 43 38 38 38 36 33 27 33 29 25 25 26 25 25 24 24 26 28 29
41 40 40 40 42 43 44 44 43 43 43 43 43 43 43 43 42 41 38 37 38 38 37 42 42 42 42 41 37 37 37 34 32 29 31 29 25 27 28 27 27 26 25 26 27 30 31
41 41 39 41 42 43 45 45 45 45 45 44 43 43 43 43 41 40 39 39 45 42 36 39 42 40 40 39 36 36 36 34 31 30 29 26 26 31 28 28 26 27 26 27 28 30 32
41 41 42 42 41 44 45 46 44 44 45 45 44 44 44 41 34 38 37 44 46 45 31 31 37 39 40 38 34 38 37 35 34 29 31 30 31 29 30 29 29 26 29 29 30 31 27
41 41 41 41 43 44 45 45 43 43 44 46 44 44 43 40 36 36 40 45 46 40 17 32 35 44 39 37 36 36 37 37 33 29 30 25 29 32 32 33 31 29 32 33 33 32 30
41 41 41 42 44 44 45 44 42 42 44 46 44 44 43 39 38 41 42 46 42 24 19 31 36 36 36 36 37 38 37 39 39 34 33 32 34 33 34 34 34 34 33 32 31 30 24
41 42 42 42 45 45 45 45 43 42 42 44 45 44 43 42 38 42 42 40 25 21 33 29 32 34 33 34 33 35 34 33 31 28 28 33 33 36 37 34 35 34 31 24 22 25 23
41 42 41 42 45 45 46 46 46 46 45 43 43 42 42 42 43 42 38 30 21 29 30 35 32 32 31 34 33 33 34 32 34 34 30 26 24 34 36 35 34 35 34 26 19 21 25
43 42 43 42 44 45 46 46 47 47 47 44 41 39 39 39 43 41 33 27 27 31 33 31 32 29 30 35 36 35 33 33 35 35 28 30 28 37 37 37 38 35 31 36 29 30 26
44 41 43 42 42 44 45 46 47 47 47 43 36 34 35 39 42 37 32 30 33 35 34 34 28 30 27 31 31 32 33 35 35 34 36 35 28 32 34 38 37 36 38 29 29 21 21
45 40 43 43 44 44 45 45 46 47 47 42 34 30 36 42 39 32 29 31 32 35 35 31 27 28 30 32 31 33 32 33 36 36 37 36 33 28 33 31 28 33 32 33 32 29 23
45 41 43 43 44 44 44 45 46 47 47 38 34 26 37 42 29 31 30 33 34 34 35 34 30 26 28 32 32 31 29 32 35 36 34 35 32 29 26 29 31 31 29 29 27 25 25
46 42 41 43 43 44 45 45 47 47 46 37 33 33 37 38 26 28 29 31 32 33 34 33 30 30 27 27 27 31 31 32 34 32 29 30 28 25 22 20 28 28 27 28 26 26 24
46 44 40 43 43 44 45 46 47 47 46 37 31 24 31 33 35 31 30 30 30 33 33 34 32 29 28 28 29 28 29 31 33 32 34 32 27 25 21 24 27 25 26 27 26 25 28
47 44 40 42 43 43 45 45 47 47 45 36 32 31 35 28 30 32 31 31 31 31 33 34 30 32 28 26 27 27 29 29 30 30 31 28 24 26 25 25 25 24 25 28 28 27 29
47 44 40 41 43 44 46 46 48 47 44 37 32 30 33 30 31 30 30 30 31 33 33 31 31 32 32 30 30 28 30 28 28 29 29 30 25 28 21 24 25 22 24 26 27 28 30
47 44 41 42 43 45 47 49 49 47 41 36 39 40 31 29 29 28 30 30 31 33 34 34 34 32 30 32 34 34 34 31 29 28 28 28 26 25 14 24 22 15 22 25 27 28 28
47 44 40 42 44 46 49 50 49 46 43 38 39 37 28 26 28 28 30 30 30 31 33 34 34 32 33 36 36 34 31 29 29 28 29 27 27 25 20 18 4 18 25 25 26 27 29
47 44 40 43 45 48 49 49 47 46 44 40 40 38 32 25 27 29 29 30 31 32 33 34 34 35 36 34 28 24 24 22 23 26 27 28 27 21 18 15 14 19 22 24 23 24 28
49 43 39 43 45 47 48 48 47 46 46 41 40 39 35 27 26 28 29 30 31 32 31 32 34 36 35 31 25 20 15 21 17 21 26 27 27 23 21 12 1 17 24 23 23 18 27
50 42 39 43 45 46 47 47 44 43 42 40 38 38 34 29 30 30 29 30 33 34 32 32 34 34 34 29 25 22 20 24 19 19 21 21 23 19 21 18 18 22 24 24 14 8 29
50 42 39 43 44 46 44 46 46 44 44 37 34 37 34 31 31 32 32 32 33 34 31 32 31 32 33 26 28 26 23 23 24 22 23 21 19 19 22 20 7 26 25 19 19 30 31
51 43 39 43 43 45 45 44 45 43 43 39 33 36 37 33 32 33 33 33 33 34 33 32 33 33 34 31 30 29 25 24 22 20 23 21 23 22 23 20 23 26 24 26 29 30 32

GFSGBSN_sfc_30mbdewp_108.txt.gz
Dewpoint
46 42 42 43 44 43 43 43 46 46 46 50 50 52 49 44 44 44 45 44 44 42 43 45 48 50 48 43 43 48 51 52 44 42 41 35 33 31 29 29 29 29 29 30 30 30 30
43 41 44 44 43 42 43 42 42 46 46 49 48 49 45 44 44 44 44 44 44 43 43 45 48 52 45 40 49 54 50 47 43 42 38 35 33 32 31 29 27 30 30 30 30 29 30
42 41 44 45 43 42 42 42 43 43 46 45 46 47 45 44 43 44 44 44 44 44 44 46 53 48 44 43 51 53 49 46 42 40 36 36 34 31 31 29 31 30 26 27 26 28 27
41 41 44 44 42 43 42 43 43 42 42 44 44 44 43 43 44 44 44 44 45 49 47 48 52 48 41 51 53 50 47 40 38 37 36 37 35 34 31 32 28 26 26 17 20 28 29
41 42 42 42 43 43 44 44 43 43 42 42 43 43 43 44 43 43 43 44 50 51 52 52 47 44 40 50 48 48 46 38 37 38 38 37 34 32 32 26 23 24 16 22 24 29 28
41 44 40 43 44 44 45 45 45 44 43 43 43 43 43 43 42 43 40 43 46 48 47 46 45 39 43 42 44 41 39 38 36 35 35 34 33 29 29 24 9 16 21 24 24 25 29
41 43 44 43 44 46 46 45 44 44 44 43 43 43 43 42 42 42 39 38 38 40 43 41 41 40 41 44 44 40 38 37 35 32 27 33 28 23 24 25 24 24 24 23 24 26 27
41 43 44 43 46 47 46 45 44 45 46 44 44 44 43 42 42 41 40 38 38 39 37 42 42 41 42 41 37 38 38 34 31 28 30 27 24 26 27 27 26 26 24 24 26 28 29
42 42 44 45 47 47 44 43 43 44 45 45 44 44 43 41 41 40 41 40 44 43 36 38 42 41 40 40 37 36 36 34 31 29 29 25 24 30 27 27 26 26 25 25 25 27 30
42 42 44 45 47 47 44 43 43 45 46 45 44 44 42 39 35 38 39 44 46 45 28 31 36 38 40 39 35 38 38 35 33 28 30 29 30 28 27 27 28 26 27 27 27 28 24
42 43 42 44 47 48 45 43 43 45 46 45 44 44 41 39 36 38 40 45 46 42 16 33 36 42 39 38 36 35 38 37 34 30 30 25 27 31 31 31 31 29 30 30 32 31 30
42 43 42 44 45 47 48 46 44 43 45 45 45 43 42 39 39 41 43 46 40 19 18 30 36 36 35 36 37 37 34 37 37 35 32 30 33 32 32 34 34 33 33 32 32 30 24
44 43 43 43 43 46 48 47 47 46 43 43 44 43 43 41 36 42 42 40 22 20 32 30 31 35 34 34 34 35 34 33 30 27 28 31 32 34 35 33 34 34 31 24 20 24 22
45 42 43 44 43 44 46 47 47 48 48 43 43 42 41 41 43 41 37 28 20 29 30 33 32 34 31 33 33 34 33 31 34 33 29 26 22 33 35 33 34 34 33 26 19 20 23
46 41 44 44 44 44 45 45 45 46 48 47 43 37 38 39 42 40 31 26 28 31 32 30 31 30 31 35 35 33 33 32 36 35 29 29 27 36 36 37 36 35 30 36 29 30 26
47 44 43 43 44 45 44 45 45 46 48 45 36 33 34 39 42 37 31 29 32 35 34 33 28 30 27 32 32 32 33 36 36 36 36 34 28 32 34 38 37 36 37 29 29 21 20
47 46 41 44 43 44 45 46 46 46 48 43 34 30 36 43 38 32 29 31 32 34 35 32 28 30 31 32 32 32 31 33 36 35 36 36 32 28 33 33 29 34 32 33 31 29 23
48 46 42 43 44 44 45 45 46 47 47 38 34 23 36 39 29 30 29 32 34 33 35 34 32 26 29 32 33 32 29 31 35 36 34 35 33 27 27 30 31 30 29 31 26 26 27
49 47 44 41 44 44 45 45 45 47 46 38 31 31 35 36 26 27 29 31 32 33 33 33 30 30 29 28 27 30 30 32 35 35 29 32 27 24 17 24 28 27 27 28 29 28 24
49 47 45 41 44 44 45 47 47 47 46 36 30 22 30 33 33 31 30 30 30 33 33 33 32 30 28 27 29 27 27 31 32 32 34 31 27 25 21 24 26 25 27 30 27 26 27
50 47 45 41 44 44 46 47 48 49 46 36 32 30 33 26 30 30 30 31 31 31 34 33 30 32 30 26 26 26 29 28 29 30 31 28 23 26 25 25 24 25 25 29 30 29 29
51 48 45 41 44 45 47 49 49 48 43 35 30 29 31 30 31 29 29 30 31 31 33 31 31 32 32 30 31 29 31 28 28 28 28 29 24 28 22 24 26 21 24 26 27 29 32
51 48 45 41 44 46 49 50 49 46 40 36 38 39 30 29 28 27 29 30 31 32 34 34 33 32 31 33 34 35 34 33 30 28 27 27 25 23 13 22 19 14 22 25 27 28 29
51 48 45 41 45 47 48 49 47 46 41 38 38 36 27 26 27 28 30 30 30 30 33 34 34 32 33 36 36 34 33 31 29 28 29 26 26 24 17 16 -0 14 24 25 26 27 28
50 48 44 41 45 47 48 48 47 45 45 40 40 36 30 24 27 29 29 30 31 31 33 33 34 35 36 33 27 24 22 21 22 25 26 28 26 21 14 13 11 17 22 24 24 21 28
50 48 43 41 45 47 48 47 46 44 45 40 38 38 33 26 25 28 29 31 28 29 30 31 34 36 34 29 25 18 12 21 17 20 26 26 26 23 19 8 -6 12 24 23 23 18 25
49 49 43 40 44 46 46 46 45 45 43 39 37 37 33 29 29 30 29 30 33 33 30 32 33 33 34 28 25 21 19 23 18 18 20 21 22 19 19 17 15 21 24 24 16 8 26
49 49 44 40 43 46 45 45 45 44 43 36 33 36 34 30 30 31 32 31 32 33 29 31 30 31 32 25 27 25 23 23 23 23 21 19 18 17 22 20 8 25 25 20 19 28 30
50 50 45 41 43 44 46 45 45 44 43 38 34 36 36 33 31 33 32 33 33 34 33 32 32 33 33 31 30 28 26 24 21 19 22 20 22 18 21 17 21 25 24 25 27 29 31

GFSGBSN_sfc_30mbdewp_111.txt.gz
Dewpoint
41 44 45 44 45 45 43 42 42 43 45 47 47 48 49 48 45 44 44 44 44 43 43 44 47 51 48 43 45 51 52 51 46 42 40 35 32 31 29 30 29 29 29 30 30 30 30
42 44 44 45 46 46 44 43 42 42 44 44 46 45 45 44 44 44 44 44 44 44 43 45 48 49 45 38 50 52 51 47 43 41 36 35 33 32 30 28 26 29 30 29 29 29 30
42 45 43 45 46 46 47 45 43 43 42 43 43 43 43 44 44 44 44 44 44 44 44 46 52 50 45 43 52 50 49 47 41 37 35 35 34 31 31 28 31 30 25 26 25 27 26
42 44 45 45 46 47 47 46 44 43 43 42 43 43 43 43 43 44 43 45 49 51 48 48 51 46 41 52 54 50 45 39 38 38 37 36 35 33 31 31 28 25 24 12 19 28 28
43 44 46 46 47 47 46 46 44 45 43 43 43 43 43 43 43 43 42 48 52 51 50 52 47 43 38 52 47 48 45 38 38 38 37 35 34 32 30 25 19 23 12 20 21 28 28
43 44 45 46 47 47 47 46 45 46 44 44 44 44 43 42 42 42 43 45 47 47 48 49 46 40 43 42 44 45 41 39 36 34 33 34 32 28 28 22 7 13 18 23 22 24 27
43 44 45 46 48 47 43 44 44 46 44 44 44 43 42 43 44 43 40 39 38 39 43 41 41 41 42 44 43 39 40 36 34 31 28 33 25 19 22 25 23 24 23 23 24 25 26
44 43 45 46 48 47 42 43 46 45 45 44 44 43 41 41 42 43 40 38 39 41 37 41 42 41 42 42 36 37 38 33 31 27 30 26 23 26 27 27 26 25 24 23 25 27 27
43 43 43 45 47 48 46 44 44 46 46 45 44 42 42 41 40 39 40 41 44 43 36 37 41 41 42 40 36 35 36 33 31 28 28 24 25 29 27 27 26 26 25 24 24 26 29
43 43 44 44 45 47 47 47 45 45 46 45 44 42 41 40 36 38 39 43 45 44 26 31 36 39 40 40 36 38 38 35 33 27 30 28 30 27 27 27 27 26 27 27 26 27 24
44 44 44 44 44 46 47 47 47 45 45 46 44 42 43 38 36 38 40 43 45 39 12 33 36 41 40 37 36 35 38 37 34 34 29 23 27 30 30 30 30 29 31 30 29 29 29
46 43 44 44 44 45 46 47 48 49 46 44 44 44 42 37 39 40 42 45 38 18 18 31 36 35 35 36 36 36 34 37 36 35 33 28 31 32 29 32 33 32 32 32 32 30 23
47 43 44 44 45 45 45 45 47 47 48 48 43 44 42 40 35 42 41 35 20 19 31 29 31 35 34 33 33 35 31 31 29 26 25 29 31 33 33 32 34 33 30 23 20 23 22
48 46 43 44 44 45 45 45 45 47 47 48 46 43 41 41 42 41 35 25 20 28 29 33 33 33 28 33 32 34 33 30 33 32 28 25 22 31 35 32 33 34 32 26 19 20 22
48 47 44 44 44 44 45 46 47 46 47 48 43 37 37 39 42 39 31 25 26 30 32 30 32 30 31 34 34 32 33 31 33 33 28 28 26 35 35 36 36 35 31 35 29 30 26
48 48 46 42 44 44 45 46 46 47 48 46 35 33 34 40 41 36 30 29 31 34 34 33 28 30 27 30 31 31 33 34 35 37 36 34 27 31 35 37 37 36 38 29 29 21 20
50 48 47 43 43 44 44 45 46 45 46 42 34 29 36 42 39 33 29 31 32 34 35 31 28 30 31 31 32 31 31 33 36 37 37 36 33 28 32 34 33 34 32 33 31 29 23
51 49 48 45 42 44 44 45 45 47 46 38 33 25 37 40 29 29 29 31 34 33 35 34 33 26 29 32 32 32 29 31 36 36 34 34 33 28 27 30 31 30 33 31 26 26 27
51 49 48 46 42 45 45 47 48 48 45 37 29 29 35 36 26 28 30 31 32 32 33 32 30 30 30 28 28 31 30 32 35 36 32 33 29 23 19 25 28 29 33 32 32 30 25
51 50 48 46 43 45 46 48 49 48 45 35 29 21 30 33 32 29 29 30 30 33 33 33 32 31 28 27 28 27 27 30 31 32 35 31 27 24 20 23 26 24 26 32 30 26 27
51 51 48 46 43 46 48 50 49 47 44 35 31 30 32 27 29 30 30 31 30 30 33 33 30 32 30 26 25 27 30 28 29 30 31 28 24 26 25 26 25 25 25 30 29 29 28
50 51 48 45 43 47 48 48 47 46 41 35 29 29 30 30 30 29 29 30 30 31 33 31 30 32 32 31 32 30 31 28 27 28 28 29 25 28 25 24 25 24 23 27 29 32 32
50 51 48 44 43 47 48 48 46 45 39 36 37 38 30 28 28 27 28 30 30 31 33 34 33 32 30 32 34 34 34 33 32 28 27 27 25 22 14 20 19 15 19 25 26 28 31
49 50 48 43 44 47 48 47 47 46 40 38 38 34 27 25 27 28 30 30 30 31 31 34 34 32 32 36 35 34 34 33 32 29 29 26 25 24 17 15 -4 11 24 25 26 27 29
49 50 48 43 44 47 48 47 45 45 43 39 39 35 29 22 27 29 29 29 31 31 32 33 34 34 36 32 27 22 20 19 22 25 26 28 26 21 13 11 6 16 19 23 24 22 26
50 49 48 43 43 47 46 46 45 45 43 39 37 37 32 26 24 28 29 30 28 28 29 31 33 35 33 29 25 15 8 20 17 20 27 26 26 22 19 7 -6 8 23 24 23 16 19
51 50 49 43 42 46 46 46 45 44 43 38 35 36 33 29 29 29 29 29 32 31 29 30 32 33 33 26 23 19 17 23 16 17 17 20 20 18 18 15 13 17 24 23 15 9 24
51 50 49 45 42 44 46 44 45 45 42 36 34 36 33 30 30 30 31 31 32 32 27 29 29 30 32 25 25 24 23 22 23 22 20 16 14 16 21 19 7 24 24 19 19 24 28
52 51 50 47 43 42 45 46 45 44 43 39 34 36 36 32 30 33 32 33 33 33 33 32 30 32 33 30 29 28 26 25 21 18 22 17 21 17 19 15 20 25 25 24 25 26 28

GFSGBSN_sfc_30mbdewp_114.txt.gz
Dewpoint
43 45 45 46 47 47 48 47 44 43 42 45 44 46 44 45 45 44 45 45 44 43 43 45 48 54 51 44 46 52 53 55 43 41 36 34 28 29 27 28 31 27 29 30 30 30 29
43 45 46 46 48 48 47 47 46 43 43 43 44 44 44 44 45 45 44 44 44 44 43 45 48 52 46 39 51 51 48 48 44 39 37 36 33 32 29 28 25 28 28 27 27 27 28
43 45 45 47 48 47 47 47 47 44 43 43 43 43 43 43 44 44 44 44 44 44 44 46 50 49 42 44 49 48 47 46 43 37 35 34 34 29 30 28 31 30 23 24 24 26 25
44 45 45 47 48 44 45 45 47 45 43 44 43 43 43 43 43 43 45 49 50 49 47 50 50 44 42 53 49 46 42 38 37 37 36 35 33 31 29 30 27 24 24 17 20 26 28
45 45 45 47 47 44 45 45 46 46 44 44 44 43 44 44 43 44 48 51 51 51 53 50 46 41 40 52 47 47 45 38 37 36 35 34 34 31 29 25 21 22 21 18 17 27 28
46 45 45 46 48 45 43 45 46 46 44 44 43 43 43 45 44 45 46 50 50 50 49 49 47 38 42 42 45 44 40 38 36 35 33 32 31 28 27 23 15 16 21 20 18 23 25
45 45 45 46 47 47 45 43 47 46 44 44 43 42 42 44 45 44 42 42 41 40 43 41 41 39 40 43 44 41 38 33 32 30 28 32 26 24 24 23 21 21 20 20 21 24 26
44 45 46 44 46 47 46 46 44 45 44 45 43 42 41 41 45 44 43 40 40 42 37 41 42 42 43 41 37 35 38 31 30 28 30 27 23 28 27 26 25 24 23 23 25 27 27
44 44 45 46 45 47 47 47 47 45 45 45 44 43 41 41 41 42 42 42 45 44 36 36 40 41 42 40 34 34 35 33 29 28 27 23 27 29 27 27 26 25 25 25 26 27 28
46 44 45 46 47 45 46 47 48 48 46 45 45 43 43 39 35 39 40 43 45 44 30 32 35 39 39 39 35 38 38 35 32 28 29 27 29 26 26 25 26 25 27 27 27 27 25
48 44 44 46 47 47 47 46 47 47 48 47 44 45 43 42 38 38 40 43 45 40 17 33 35 40 39 35 35 35 39 36 33 32 30 24 29 30 29 29 29 27 30 30 30 29 29
49 47 44 44 46 47 48 47 46 47 47 48 45 44 43 38 40 41 43 44 41 26 19 30 37 35 35 36 35 35 35 36 35 34 32 29 30 31 28 31 31 30 30 31 31 31 24
50 48 45 44 44 44 47 48 48 47 47 48 48 44 42 41 37 43 42 37 27 21 31 28 31 33 32 31 32 33 30 30 29 28 28 29 31 32 32 31 34 32 30 25 24 24 22
49 49 48 43 44 44 46 48 48 47 47 48 47 43 41 41 43 42 38 31 21 27 27 32 33 33 28 33 31 33 31 30 33 31 29 26 26 31 34 32 32 32 33 27 20 20 21
51 50 48 46 43 44 46 47 47 46 48 47 42 39 39 40 42 41 36 27 27 28 31 30 32 28 31 34 32 31 33 31 33 33 28 29 27 34 34 35 35 35 31 34 29 30 26
52 49 49 48 43 45 46 47 47 46 47 43 39 37 38 41 42 40 33 29 32 34 34 32 28 30 27 28 30 31 31 33 33 35 34 32 28 30 35 36 36 36 38 30 30 22 20
52 50 49 48 44 45 46 47 48 48 47 41 38 35 39 43 41 37 31 32 33 34 35 32 28 30 30 30 31 30 30 33 36 37 37 36 32 29 32 33 33 33 32 33 32 29 23
51 51 49 48 45 45 46 48 49 48 45 38 36 29 39 42 34 34 32 32 34 33 35 34 33 27 29 32 31 31 29 31 36 36 33 34 33 28 27 31 34 32 34 33 27 27 27
51 51 50 48 45 47 48 49 49 48 44 38 33 33 39 39 31 32 31 32 32 33 33 33 31 31 31 29 27 31 30 33 36 36 33 34 30 25 21 26 29 28 34 33 32 30 26
50 51 50 48 45 48 49 48 47 46 45 36 31 25 34 36 34 31 31 31 31 34 33 33 32 31 29 27 28 27 26 31 32 33 36 34 28 25 21 22 26 24 26 33 30 28 26
50 50 50 47 44 47 48 48 47 46 43 36 33 32 33 30 32 31 32 32 30 30 33 33 30 32 30 26 25 26 30 29 30 30 32 30 27 26 26 25 26 25 24 29 29 29 28
49 49 50 47 44 48 48 48 47 45 41 37 33 33 32 32 30 30 31 30 30 31 32 29 28 31 32 29 30 29 31 29 26 28 28 29 27 26 24 25 26 24 24 24 31 32 30
49 49 50 46 44 48 48 48 48 45 39 38 38 38 34 30 30 29 29 30 30 32 33 34 32 31 30 31 33 33 34 34 32 31 28 27 26 25 18 20 18 14 17 22 26 29 31
51 50 50 46 44 48 48 46 46 45 41 40 39 36 30 26 28 27 30 30 31 31 32 34 35 32 33 36 35 35 34 34 34 33 31 27 26 26 23 19 2 15 25 25 26 27 29
51 50 50 46 43 47 47 46 46 45 42 40 40 37 31 23 27 28 30 30 31 31 31 33 34 34 36 33 28 22 21 21 25 29 29 29 26 23 17 15 7 14 17 23 24 22 25
52 51 50 48 43 46 46 46 45 45 43 39 38 37 33 26 22 29 29 30 29 29 29 31 33 35 34 29 26 18 9 16 16 21 26 28 28 22 20 11 -0 8 22 24 24 17 22
52 51 50 49 44 43 46 45 46 45 42 39 36 37 34 30 29 29 28 29 32 31 29 30 32 33 34 28 22 19 17 22 16 16 18 23 23 21 19 15 12 16 24 24 16 11 23
52 52 51 50 47 43 45 46 45 45 42 37 35 37 34 31 31 30 31 32 33 33 28 29 30 31 33 28 24 24 23 23 22 22 20 16 14 17 19 18 10 24 24 20 20 24 27
53 52 52 50 48 45 43 46 46 44 42 39 36 37 37 32 32 33 32 33 33 34 32 33 31 33 34 31 30 29 26 26 23 16 22 19 19 17 18 15 22 26 26 25 25 26 26

GFSGBSN_sfc_30mbdewp_117.txt.gz
Dewpoint
46 45 47 48 48 46 46 47 47 44 43 42 43 44 44 45 45 45 46 45 44 43 44 46 49 54 51 45 45 52 54 56 40 35 32 29 23 24 22 24 27 21 26 27 27 28 26
46 46 47 49 44 46 46 46 48 45 43 44 43 43 43 43 43 44 45 45 44 44 43 46 51 53 48 39 52 51 52 47 38 35 33 31 29 28 27 27 24 26 27 26 25 24 25
47 47 47 48 46 46 46 46 47 45 44 44 44 43 43 43 43 43 44 45 44 44 44 46 50 50 44 43 49 49 50 48 41 36 35 34 31 27 28 26 28 27 22 21 23 24 23
47 47 47 48 48 47 45 46 46 45 44 43 43 43 44 44 45 49 50 51 49 46 46 48 49 47 43 51 50 46 42 39 38 36 35 33 31 29 28 27 25 22 22 19 22 26 26
46 47 46 47 48 48 45 46 46 45 44 43 43 43 44 46 49 51 51 52 53 51 51 50 44 42 39 51 46 46 43 37 36 35 33 32 31 29 28 26 22 23 24 18 18 26 25
46 47 47 46 47 47 48 44 45 44 44 43 43 43 44 47 48 48 50 49 49 49 47 46 44 38 42 42 46 43 41 37 36 35 32 30 29 26 26 24 19 18 20 18 15 24 25
45 47 47 47 46 47 47 48 45 45 45 44 44 43 43 45 47 46 44 44 41 40 43 39 38 39 41 45 44 39 35 32 31 29 27 30 26 27 26 22 19 17 15 14 17 22 25
44 45 47 47 46 46 47 47 48 46 45 45 44 44 42 42 45 45 44 41 41 42 37 41 42 42 42 40 37 34 36 31 30 28 28 27 24 25 26 24 22 21 20 19 24 26 26
48 44 45 47 47 47 47 46 47 48 48 45 45 44 44 41 42 42 42 42 45 44 34 36 39 39 41 39 34 34 34 31 28 26 25 24 27 28 26 25 24 22 21 22 24 27 27
49 45 45 44 46 47 47 47 47 47 48 48 45 46 44 42 39 40 40 43 45 44 30 32 34 37 37 38 33 37 37 35 30 26 26 25 27 25 25 23 24 22 26 26 27 28 25
50 49 44 45 44 45 47 48 48 47 47 49 48 45 43 43 39 39 41 43 44 42 17 32 35 40 36 33 34 34 38 35 29 29 31 25 29 28 28 28 27 27 30 29 29 28 29
50 50 48 44 45 44 47 48 48 47 47 48 48 45 44 39 41 42 43 43 42 31 19 30 35 35 35 33 33 34 34 35 33 32 31 28 29 29 29 29 30 30 30 30 29 28 24
51 50 49 45 44 45 47 47 48 47 47 48 48 45 40 41 37 43 42 40 33 21 31 28 30 30 28 29 31 31 30 29 28 29 28 31 31 32 31 30 32 32 30 25 26 25 23
52 50 50 48 44 45 46 47 47 48 47 47 46 43 40 41 43 43 41 33 22 26 26 31 31 31 29 32 30 31 30 30 33 30 27 27 27 31 34 32 32 32 32 28 21 22 22
52 51 50 48 44 46 47 47 48 49 49 46 42 40 40 41 43 42 36 28 27 28 30 29 31 25 29 31 32 31 31 31 32 32 27 28 27 32 33 33 34 35 32 35 29 28 26
51 52 50 49 45 46 46 48 49 49 48 44 38 38 38 43 43 42 35 30 30 33 33 32 29 29 26 27 28 29 29 32 33 34 33 31 28 30 35 36 36 35 37 30 30 23 22
51 52 50 49 46 47 48 49 49 48 46 43 39 37 41 42 42 38 34 32 32 34 35 31 28 27 28 28 30 28 29 32 34 36 36 34 31 29 32 33 30 35 33 33 32 29 25
51 51 51 50 46 48 49 48 47 47 46 41 39 34 40 43 39 35 33 32 33 33 35 33 32 28 27 30 28 28 28 30 34 35 32 33 31 27 27 29 32 31 32 33 28 28 26
51 51 51 50 47 49 49 48 48 47 44 38 34 39 41 41 34 33 32 32 33 33 32 32 30 31 30 28 27 28 29 33 35 34 32 32 30 25 24 27 29 29 33 33 31 30 27
50 50 51 49 47 49 49 48 48 46 43 38 32 34 36 35 34 31 31 31 31 34 33 32 31 31 28 26 27 25 23 30 32 33 34 34 30 26 21 19 25 23 25 31 30 28 26
49 50 51 49 46 48 48 48 48 46 42 38 35 35 34 34 32 32 32 31 30 30 33 32 29 30 27 22 23 22 26 27 30 31 33 32 27 26 26 24 23 23 24 23 30 30 28
49 50 50 48 46 48 48 48 47 46 42 38 33 34 34 32 32 31 31 30 29 30 32 27 29 29 29 26 25 23 28 26 22 28 26 29 27 25 24 22 24 23 24 23 23 27 29
51 50 50 48 45 48 47 47 47 45 43 38 40 37 35 33 31 29 27 29 30 32 33 33 33 30 26 31 33 32 32 31 31 29 26 26 25 23 19 20 18 12 15 18 21 24 29
52 51 50 48 45 47 47 47 47 45 43 42 40 36 29 27 28 26 28 30 30 31 31 32 34 31 33 35 33 32 33 32 32 32 32 28 25 25 24 21 11 17 24 24 18 23 26
52 52 51 50 45 46 47 47 46 45 42 41 41 39 33 22 25 27 28 29 30 31 31 31 31 33 35 33 25 19 18 21 24 29 31 31 27 23 21 16 11 7 15 22 24 20 24
53 52 51 51 46 44 46 46 46 45 42 40 38 39 34 27 21 26 28 29 27 26 27 30 34 35 35 29 24 18 8 13 12 20 26 28 28 25 19 15 4 14 23 25 24 15 22
53 53 52 51 50 44 45 45 45 45 41 39 38 39 35 30 28 28 26 27 30 30 27 29 31 34 35 26 21 16 14 20 13 14 20 23 23 22 21 19 16 19 24 24 16 17 24
53 53 52 51 51 47 44 46 45 45 42 39 38 38 36 32 31 30 30 30 32 32 26 30 28 32 31 26 22 19 20 19 21 17 17 16 14 18 17 15 13 22 24 19 22 24 25
52 52 53 52 51 50 46 44 46 46 43 39 37 37 37 33 32 33 32 32 33 34 33 32 30 32 32 32 28 26 24 24 19 12 22 17 16 12 13 14 22 24 24 25 26 26 25

GFSGBSN_sfc_30mbdewp_120.txt.gz
Dewpoint
47 48 48 50 47 46 46 47 46 45 43 44 43 43 43 43 43 45 46 45 45 44 45 48 51 54 51 44 45 52 54 55 40 36 32 30 27 25 24 25 26 24 25 25 27 27 27
48 47 48 49 48 46 47 47 45 44 43 43 43 44 44 44 45 45 44 45 45 44 44 49 54 54 45 39 51 53 51 46 35 34 31 29 28 28 26 27 26 26 28 26 25 24 24
47 47 46 48 48 48 45 46 45 44 42 43 43 44 46 49 51 51 50 46 45 44 45 50 53 49 42 42 50 52 51 46 41 35 34 32 31 28 28 26 28 27 22 23 24 24 24
48 48 47 47 49 49 46 45 44 45 43 43 44 45 48 50 50 51 51 50 48 48 50 52 50 46 40 50 51 48 49 43 38 36 34 33 31 30 29 28 25 23 22 21 24 26 28
46 47 47 47 47 48 49 46 45 45 45 44 44 45 49 49 51 50 51 51 50 51 50 52 47 41 40 50 45 46 45 38 35 34 32 31 32 28 27 26 22 23 26 20 22 25 25
45 46 47 46 46 48 48 48 47 46 45 45 45 43 45 48 48 49 50 49 47 48 47 44 43 38 42 41 45 43 39 37 35 34 31 29 28 27 25 26 20 21 18 19 16 26 26
46 46 45 47 47 48 48 49 48 48 46 45 45 45 43 45 47 46 46 46 41 40 43 40 40 39 40 42 44 36 34 32 32 30 27 29 26 29 27 22 20 17 15 14 17 26 25
49 45 45 45 46 47 47 48 48 48 48 46 46 47 45 44 45 46 44 41 42 42 38 41 41 41 41 40 35 35 36 31 31 28 26 27 25 25 25 24 21 19 19 19 26 26 26
50 49 45 45 45 46 47 48 49 48 48 48 46 46 45 44 43 43 43 42 45 44 34 35 37 38 41 39 34 35 35 31 28 26 26 27 28 26 25 24 23 21 20 21 24 28 28
50 50 47 45 45 46 47 48 48 48 48 48 49 46 44 44 42 41 40 43 45 44 29 31 34 35 36 37 32 36 37 36 29 26 27 26 26 25 24 23 23 22 26 26 27 28 23
51 50 49 46 45 46 46 48 48 48 47 48 48 48 45 43 41 40 42 43 43 43 18 32 34 38 36 33 34 34 36 34 30 29 31 27 28 27 27 27 27 28 30 29 29 26 27
51 50 50 48 45 46 46 46 48 47 48 48 49 47 44 42 42 43 43 43 43 30 20 30 34 33 30 31 32 34 33 34 34 31 30 27 29 29 29 29 30 30 30 30 28 28 24
52 50 51 49 46 47 47 46 47 48 49 48 47 44 41 41 41 43 44 41 30 22 30 27 29 28 28 28 30 31 30 30 29 27 27 31 30 32 31 29 31 31 29 25 23 24 22
51 52 51 49 46 46 47 49 48 49 49 47 44 44 41 42 43 43 43 36 22 26 27 30 30 30 29 31 30 31 29 29 32 29 27 26 26 31 33 32 31 32 31 25 19 24 25
51 52 50 49 46 48 48 48 48 49 48 45 43 43 41 42 43 43 40 27 27 27 29 29 33 27 28 30 31 29 30 30 31 31 27 26 27 32 33 33 34 34 30 35 28 29 26
51 51 51 49 46 48 48 48 48 48 48 44 40 40 40 42 43 43 36 30 31 32 32 31 28 28 24 27 28 28 29 32 32 33 33 31 26 30 35 36 35 34 37 29 30 22 22
51 51 51 50 47 48 48 48 48 48 47 44 42 40 43 43 44 40 33 31 32 33 34 32 27 26 27 27 28 26 28 33 34 35 34 33 29 29 34 33 33 34 32 32 32 29 24
51 51 51 50 47 48 49 48 48 48 47 44 41 31 41 44 39 34 33 32 33 33 34 33 33 29 27 29 28 27 28 30 34 35 31 33 30 27 28 31 31 32 32 32 29 28 28
51 50 51 51 48 49 49 48 48 48 45 41 36 38 43 42 35 33 32 32 33 33 32 32 30 31 30 27 27 27 27 34 35 34 33 33 30 26 26 27 30 30 31 33 31 30 26
51 50 50 50 48 49 49 48 48 47 45 41 36 29 40 36 34 32 31 31 31 35 33 32 31 31 29 25 25 24 23 30 33 32 33 34 30 27 22 22 25 25 28 33 31 28 25
52 50 50 50 48 47 48 48 48 47 45 42 37 34 35 36 32 31 32 31 29 30 34 32 30 29 27 23 21 20 24 25 30 32 31 33 28 28 27 27 26 25 23 27 30 29 27
52 51 50 50 48 47 48 48 47 46 46 39 36 35 35 33 32 31 31 31 29 29 30 28 29 29 28 27 27 26 28 27 24 30 27 29 26 26 24 23 24 21 22 22 23 28 30
52 51 51 50 47 47 47 47 47 45 44 39 40 37 35 34 31 30 29 29 29 32 32 32 32 30 28 28 33 32 31 31 30 29 27 26 26 24 20 24 23 13 17 18 22 24 23
53 52 52 51 48 46 47 47 47 45 44 43 40 38 32 30 29 27 28 29 29 31 31 31 33 31 33 35 34 33 33 32 31 30 31 29 27 26 23 24 10 14 24 24 23 23 22
53 53 52 51 49 45 46 46 46 45 43 41 42 40 35 26 24 25 27 28 29 30 31 30 31 33 35 33 28 21 24 25 27 30 30 31 30 25 21 20 16 16 16 21 23 21 22
53 53 53 52 51 47 45 45 46 45 42 40 39 40 36 30 24 24 27 28 28 27 27 30 33 35 35 32 25 20 13 13 16 23 25 29 30 27 22 18 6 13 22 24 25 16 24
53 53 53 52 51 50 45 45 45 45 43 40 39 39 38 33 30 27 26 27 30 30 28 28 32 34 35 29 25 19 16 19 12 15 23 25 26 25 24 21 21 20 24 25 13 12 24
53 53 53 53 52 51 48 45 46 45 44 40 40 39 37 34 33 31 30 29 31 32 28 31 30 32 33 28 24 21 20 20 20 19 18 20 20 22 22 19 14 24 24 16 21 25 25
53 53 52 52 52 52 50 47 45 46 44 40 39 38 37 34 33 34 33 32 32 34 34 32 31 32 33 31 31 26 25 24 21 15 21 16 16 14 17 18 22 24 23 25 26 26 26

GFSGBSN_sfc_30mbdewp_123.txt.gz
Dewpoint
49 46 48 48 50 47 46 45 44 43 43 44 45 49 50 50 49 45 45 45 45 47 52 53 55 54 51 44 44 52 55 51 39 37 33 29 26 26 24 26 24 24 24 27 28 27 26
47 49 48 49 49 49 46 45 45 44 44 44 47 50 50 51 50 49 46 44 44 48 52 53 54 53 46 38 51 53 49 44 39 35 34 32 29 29 28 27 26 28 28 26 25 25 24
49 49 49 47 49 49 49 46 46 45 44 45 48 50 51 50 51 50 48 46 48 50 51 50 50 45 43 43 51 51 48 45 41 36 32 32 31 28 28 27 28 24 20 24 24 25 26
45 49 49 47 47 48 48 49 47 46 45 46 47 48 50 50 50 50 50 51 51 51 51 49 47 42 40 49 49 47 47 37 37 36 33 32 32 30 28 28 24 23 21 19 24 24 27
46 45 48 49 48 47 47 48 49 47 46 45 47 47 47 49 50 49 49 48 49 50 49 46 43 41 39 48 44 47 46 38 34 33 31 31 31 28 28 25 23 22 24 19 22 25 27
47 46 45 47 49 48 47 48 48 48 47 47 47 47 47 47 48 48 49 47 46 45 43 42 43 37 41 40 44 43 42 39 35 32 31 29 29 27 26 27 17 21 19 19 18 25 26
49 46 46 45 46 49 49 48 47 47 48 48 47 47 47 47 48 49 48 45 40 39 41 39 38 38 38 41 44 37 37 34 32 31 25 29 28 26 23 22 19 16 15 15 19 27 24
50 48 46 46 46 47 49 48 48 48 48 48 49 47 46 46 47 45 44 41 42 42 37 41 40 40 41 42 35 37 39 32 31 26 26 27 24 26 25 23 22 19 19 22 26 27 27
50 49 48 45 46 47 49 49 48 48 48 49 49 48 46 45 45 43 42 42 45 45 33 35 37 38 39 38 35 35 38 34 29 27 28 27 27 26 25 24 23 22 22 24 24 29 29
51 50 49 47 46 48 48 49 49 48 48 49 49 48 46 46 41 41 41 44 45 44 27 32 34 35 38 37 32 36 37 36 29 27 28 25 26 25 24 23 23 24 28 28 29 27 17
52 51 50 48 46 48 48 48 49 48 49 49 49 48 45 46 42 41 42 43 43 41 17 30 33 37 38 34 33 32 36 34 31 31 29 27 26 26 27 28 27 29 30 29 29 27 26
51 51 50 48 47 47 47 49 49 48 49 48 48 44 45 40 43 43 44 44 42 19 19 28 33 30 31 32 32 33 34 34 34 31 29 27 29 29 30 30 31 31 30 30 29 28 22
51 52 51 48 47 48 48 47 48 48 48 48 45 44 43 42 39 43 44 41 21 22 29 26 28 30 28 29 30 31 31 31 29 25 27 30 31 32 31 30 32 31 28 23 21 23 19
51 51 51 49 47 47 48 48 48 48 49 47 45 45 42 42 44 43 43 26 21 26 27 30 30 31 29 31 30 31 30 29 31 29 26 25 24 32 32 31 29 28 30 23 17 21 23
51 51 52 50 46 49 48 48 49 49 49 47 45 43 42 41 43 43 32 26 24 27 28 30 32 28 29 29 30 29 31 30 30 31 27 25 27 33 33 34 34 33 28 33 28 27 24
51 51 51 50 47 49 49 48 49 49 49 47 40 41 40 42 44 42 32 29 30 32 33 32 27 28 25 27 27 28 31 32 32 33 33 30 26 31 34 35 35 34 36 27 29 20 20
51 51 51 50 48 49 49 48 48 48 47 47 42 37 43 43 45 35 30 31 33 34 34 32 30 26 27 26 26 26 29 33 34 35 34 32 29 29 34 33 31 33 30 32 31 30 22
51 50 51 51 49 48 48 47 48 48 46 43 41 23 41 45 32 33 30 32 34 33 34 33 33 30 28 28 28 28 28 31 35 34 32 33 31 27 28 31 34 34 32 30 26 26 28
52 50 51 51 49 49 48 47 48 47 45 40 34 35 42 42 27 30 32 32 33 33 32 32 31 31 30 27 27 26 28 34 35 34 33 33 29 24 25 28 31 31 33 32 31 30 26
53 51 51 51 49 48 48 48 48 47 47 40 37 21 37 34 35 32 31 31 31 34 33 32 31 30 30 27 26 22 23 32 33 32 34 33 30 26 9 20 27 27 29 32 30 27 24
53 52 51 51 49 48 48 48 48 47 48 41 37 30 34 32 31 31 32 31 30 30 33 32 31 29 27 24 23 22 26 27 33 33 32 33 27 29 28 28 27 27 27 29 31 28 24
53 52 51 51 49 47 47 48 47 46 46 36 34 36 35 32 31 30 31 31 29 30 29 30 29 30 29 27 27 24 28 27 26 31 28 31 24 27 23 24 25 24 25 25 27 30 29
53 53 52 52 49 47 47 47 47 45 44 37 40 38 35 35 31 28 29 29 29 31 31 32 32 30 28 29 32 32 32 30 30 30 28 27 27 24 17 23 24 13 19 20 22 23 28
53 53 53 52 50 47 46 47 47 45 44 41 39 38 31 26 30 29 28 28 28 30 30 32 33 32 32 35 33 32 33 32 32 31 31 29 28 26 23 24 5 6 22 20 19 20 23
54 53 54 53 51 48 46 46 46 45 44 39 40 38 32 21 26 22 26 27 29 29 30 30 31 33 35 32 29 20 21 27 27 31 31 31 29 26 21 21 17 17 19 19 20 14 23
54 54 53 53 52 50 46 45 45 45 42 40 38 40 35 28 22 25 25 28 27 28 28 30 34 35 34 31 27 19 8 13 13 23 26 31 31 27 25 20 7 7 19 24 23 10 24
54 54 53 53 53 51 49 45 45 45 43 39 38 39 37 32 32 27 23 26 30 30 28 29 32 33 35 29 25 21 17 18 13 14 22 25 28 27 26 23 22 22 23 25 9 1 24
54 53 53 53 53 52 51 48 45 45 44 39 39 39 35 33 32 32 29 28 31 32 28 30 27 31 32 27 26 23 20 19 20 19 22 20 21 24 25 23 14 24 24 16 15 25 25
54 53 53 52 52 52 52 51 47 45 45 40 38 39 38 34 31 35 33 32 31 33 33 32 28 32 31 30 30 28 24 25 22 17 19 16 20 17 22 20 22 25 19 23 25 25 26